[[{"header":{"parameterUnit":"m.s-1","parameterCategory":1,"la1":31.0,"la2":29.5877,"lo1":-88.7671,"lo2":-86.6584,"dy":0.0162,"dx":0.0185,"nx":115,"ny":88,"refTime":"2023-09-25T00:00:00:Z","depth":0,"parameterNumber":2,"parameterNumberName":"U-component_of_WINDS"},"data":[0.0,0.0,0.0,0.0,0.0,0.0,0.0,0.0,0.0,0.0,0.0,0.0,0.0,0.0,0.0,0.0,0.0,0.0,0.0,0.0,0.0,0.0,0.0,0.0,0.0,0.0,0.0,0.0,0.0,0.0,0.0,0.0,0.0,0.0,0.0,0.0,0.0,0.0,0.0,0.0,0.0,0.0,0.0,0.0,0.0,0.0,0.0,0.0,0.0,0.0,0.0,0.0,0.0,0.0,0.0,0.0,0.0,0.0,0.0,0.0,0.0,0.0,0.0,0.0,0.0,0.0,0.0,0.0,0.0,0.0,0.0,0.0,0.0,0.0,0.0,0.0,0.0,0.0,0.0,0.0,0.0,0.0,0.0,0.0,0.0,0.0,0.0,0.0,0.0,0.0,0.0,0.0,0.0,0.0,0.0,0.0,0.0,0.0,0.0,0.0,0.0,0.0,0.0,0.0,0.0,0.0,0.0,0.0,0.0,0.0,0.0,0.0,0.0,0.0,0.0,0.0,0.0,0.0,0.0,0.0,0.0,0.0,0.0,0.0,0.0,0.0,0.0,0.0,0.0,0.0,0.0,0.0,0.0,0.0,0.0,0.0,0.0,0.0,0.0,0.0,0.0,0.0,0.0,0.0,0.0,0.0,0.0,0.0,0.0,0.0,0.0,0.0,0.0,0.0,0.0,0.0,0.0,0.0,0.0,0.0,0.0,0.0,0.0,0.0,0.0,0.0,0.0,0.0,0.0,0.0,0.0,0.0,0.0,0.0,0.0,0.0,0.0,0.0,0.0,0.0,0.0,0.0,0.0,0.0,0.0,0.0,0.0,0.0,0.0,0.0,0.0,0.0,0.0,0.0,0.0,0.0,0.0,0.0,0.0,0.0,0.0,0.0,0.0,0.0,0.0,0.0,0.0,0.0,0.0,0.0,0.0,0.0,0.0,0.0,0.0,0.0,0.0,0.0,0.0,0.0,0.0,0.0,0.0,0.0,0.0,0.0,0.0,0.0,0.0,0.0,0.0,0.0,0.0,0.0,0.0,0.0,0.0,0.0,0.0,0.0,0.0,0.0,0.0,0.0,0.0,0.0,0.0,0.0,0.0,0.0,0.0,0.0,0.0,0.0,0.0,0.0,0.0,0.0,0.0,0.0,0.0,0.0,0.0,0.0,0.0,0.0,0.0,0.0,0.0,0.0,0.0,0.0,0.0,0.0,0.0,0.0,0.0,0.0,0.0,0.0,0.0,0.0,0.0,0.0,0.0,0.0,0.0,0.0,0.0,0.0,0.0,0.0,0.0,0.0,0.0,0.0,0.0,0.0,0.0,0.0,0.0,0.0,0.0,0.0,0.0,0.0,0.0,0.0,0.0,0.0,0.0,0.0,0.0,0.0,0.0,0.0,0.0,0.0,0.0,0.0,0.0,0.0,0.0,0.0,0.0,0.0,0.0,0.0,0.0,0.0,0.0,0.0,0.0,0.0,0.0,0.0,0.0,0.0,0.0,0.0,0.0,0.0,0.0,0.0,0.0,0.0,0.0,0.0,0.0,0.0,0.0,0.0,0.0,0.0,0.0,0.0,0.0,0.0,0.0,0.0,0.0,0.0,0.0,0.0,0.0,0.0,0.0,0.0,0.0,0.0,0.0,0.0,0.0,0.0,0.0,0.0,0.0,0.0,0.0,0.0,0.0,0.0,0.0,0.0,0.0,0.0,0.0,0.0,0.0,0.0,0.0,0.0,0.0,0.0,0.0,0.0,0.0,0.0,0.0,0.0,0.0,0.0,0.0,0.0,0.0,0.0,0.0,0.0,0.0,0.0,0.0,0.0,0.0,0.0,0.0,0.0,0.0,0.0,0.0,0.0,0.0,0.0,0.0,0.0,0.0,0.0,0.0,0.0,0.0,0.0,0.0,0.0,0.0,0.0,0.0,0.0,0.0,0.0,0.0,0.0,0.0,0.0,0.0,0.0,0.0,0.0,0.0,0.0,0.0,0.0,0.0,0.0,0.0,0.0,0.0,0.0,0.0,0.0,0.0,0.0,0.0,0.0,0.0,0.0,0.0,0.0,0.0,0.0,0.0,0.0,0.0,0.0,0.0,0.0,0.0,0.0,0.0,0.0,0.0,0.0,0.0,0.0,0.0,0.0,0.0,0.0,0.0,0.0,0.0,0.0,0.0,0.0,0.0,0.0,0.0,0.0,0.0,0.0,0.0,0.0,0.0,0.0,0.0,0.0,0.0,0.0,0.0,0.0,0.0,0.0,0.0,0.0,0.0,0.0,0.0,0.0,0.0,0.0,0.0,0.0,0.0,0.0,0.0,0.0,0.0,0.0,0.0,0.0,0.0,0.0,0.0,0.0,0.0,0.0,0.0,0.0,0.0,0.0,0.0,0.0,0.0,0.0,0.0,0.0,0.0,0.0,0.0,0.0,0.0,0.0,0.0,0.0,0.0,0.0,0.0,0.0,0.0,0.0,0.0,0.0,0.0,0.0,0.0,0.0,0.0,0.0,0.0,0.0,0.0,0.0,0.0,0.0,0.0,0.0,0.0,0.0,0.0,0.0,0.0,0.0,0.0,0.0,0.0,0.0,0.0,0.0,0.0,0.0,0.0,0.0,0.0,0.0,0.0,0.0,0.0,0.0,0.0,0.0,0.0,0.0,0.0,0.0,0.0,0.0,0.0,0.0,0.0,0.0,0.0,0.0,0.0,0.0,0.0,0.0,0.0,0.0,0.0,0.0,0.0,0.0,0.0,0.0,0.0,0.0,0.0,0.0,0.0,0.0,0.0,0.0,0.0,0.0,0.0,0.0,0.0,0.0,0.0,0.0,0.0,0.0,0.0,0.0,0.0,0.0,0.0,0.0,0.0,0.0,0.0,0.0,0.0,0.0,0.0,0.0,0.0,0.0,0.0,0.0,0.0,0.0,0.0,0.0,0.0,0.0,0.0,0.0,0.0,0.0,0.0,0.0,0.0,0.0,0.0,0.0,0.0,0.0,0.0,0.0,0.0,0.0,0.0,0.0,0.0,0.0,0.0,0.0,0.0,0.0,0.0,0.0,0.0,0.0,0.0,0.0,0.0,0.0,0.0,0.0,0.0,0.0,0.0,0.0,0.0,0.0,0.0,0.0,0.0,0.0,0.0,0.0,0.0,0.0,0.0,0.0,0.0,0.0,0.0,0.0,0.0,0.0,0.0,0.0,0.0,0.0,0.0,0.0,0.0,0.0,0.0,0.0,0.0,0.0,0.0,0.0,0.0,0.0,0.0,0.0,0.0,0.0,0.0,0.0,0.0,0.0,0.0,0.0,0.0,0.0,0.0,0.0,0.0,0.0,0.0,0.0,0.0,0.0,0.0,0.0,0.0,0.0,0.0,0.0,0.0,0.0,0.0,0.0,0.0,0.0,0.0,0.0,0.0,0.0,0.0,0.0,0.0,0.0,0.0,0.0,0.0,0.0,0.0,0.0,0.0,0.0,0.0,0.0,0.0,0.0,0.0,0.0,0.0,0.0,0.0,0.0,0.0,0.0,0.0,0.0,0.0,0.0,0.0,0.0,0.0,0.0,0.0,0.0,0.0,0.0,0.0,0.0,0.0,0.0,0.0,0.0,0.0,0.0,0.0,0.0,0.0,0.0,0.0,0.0,0.0,0.0,0.0,0.0,0.0,0.0,0.0,0.0,0.0,0.0,0.0,0.0,0.0,0.0,0.0,0.0,0.0,0.0,0.0,0.0,0.0,0.0,0.0,0.0,0.0,0.0,0.0,0.0,0.0,0.0,0.0,0.0,0.0,0.0,0.0,0.0,0.0,0.0,0.0,0.0,0.0,0.0,0.0,0.0,0.0,0.0,0.0,0.0,0.0,0.0,0.0,0.0,0.0,0.0,0.0,0.0,0.0,0.0,0.0,0.0,0.0,0.0,0.0,0.0,0.0,0.0,0.0,0.0,0.0,0.0,0.0,0.0,0.0,0.0,0.0,0.0,0.0,0.0,0.0,0.0,0.0,0.0,0.0,0.0,0.0,0.0,0.0,0.0,0.0,0.0,0.0,0.0,0.0,0.0,0.0,0.0,0.0,0.0,0.0,0.0,0.0,0.0,0.0,0.0,0.0,0.0,0.0,0.0,0.0,0.0,0.0,0.0,0.0,0.0,0.0,0.0,0.0,0.0,0.0,0.0,0.0,0.0,0.0,0.0,0.0,0.0,0.0,0.0,0.0,0.0,0.0,0.0,0.0,0.0,0.0,0.0,0.0,0.0,0.0,0.0,0.0,0.0,0.0,0.0,-1.4415,0.0,0.0,0.0,0.0,0.0,0.0,0.0,0.0,0.0,0.0,0.0,0.0,0.0,0.0,0.0,0.0,0.0,0.0,0.0,0.0,0.0,0.0,0.0,0.0,0.0,0.0,0.0,0.0,0.0,0.0,0.0,0.0,0.0,0.0,0.0,0.0,0.0,0.0,0.0,0.0,0.0,0.0,0.0,0.0,0.0,0.0,0.0,0.0,0.0,0.0,0.0,0.0,0.0,0.0,0.0,0.0,0.0,0.0,0.0,0.0,0.0,0.0,0.0,0.0,0.0,0.0,0.0,0.0,0.0,0.0,0.0,0.0,0.0,0.0,0.0,0.0,0.0,0.0,0.0,0.0,0.0,0.0,0.0,0.0,0.0,0.0,0.0,0.0,0.0,0.0,0.0,0.0,0.0,0.0,0.0,0.0,0.0,0.0,0.0,0.0,0.0,0.0,0.0,0.0,0.0,0.0,0.0,0.0,0.0,0.0,-1.7668,-1.7418,-1.6874,-1.6246,-1.5462,0.0,0.0,0.0,0.0,0.0,0.0,0.0,0.0,0.0,0.0,0.0,0.0,0.0,0.0,0.0,0.0,0.0,0.0,0.0,0.0,0.0,0.0,0.0,0.0,0.0,0.0,0.0,0.0,0.0,0.0,0.0,0.0,0.0,0.0,0.0,0.0,0.0,0.0,0.0,0.0,0.0,0.0,0.0,0.0,0.0,0.0,0.0,0.0,0.0,0.0,0.0,0.0,0.0,0.0,0.0,0.0,0.0,0.0,0.0,0.0,0.0,0.0,0.0,0.0,0.0,0.0,0.0,0.0,0.0,0.0,0.0,0.0,0.0,0.0,0.0,0.0,0.0,0.0,0.0,0.0,0.0,0.0,0.0,0.0,0.0,0.0,0.0,0.0,0.0,0.0,0.0,0.0,0.0,0.0,0.0,0.0,0.0,0.0,0.0,0.0,0.0,0.0,0.0,0.0,0.0,0.0,0.0,0.0,0.0,0.0,0.0,0.0,-1.8716,-1.8084,-1.6923,0.0,0.0,0.0,0.0,0.0,0.0,0.0,0.0,0.0,0.0,0.0,0.0,0.0,0.0,0.0,0.0,0.0,0.0,0.0,0.0,0.0,0.0,0.0,0.0,0.0,0.0,0.0,0.0,0.0,0.0,0.0,0.0,0.0,0.0,0.0,0.0,0.0,0.0,0.0,0.0,0.0,0.0,0.0,0.0,0.0,0.0,0.0,0.0,0.0,0.0,0.0,0.0,0.0,0.0,0.0,0.0,0.0,0.0,0.0,0.0,0.0,0.0,0.0,0.0,0.0,0.0,0.0,0.0,0.0,0.0,0.0,0.0,0.0,0.0,0.0,0.0,0.0,0.0,0.0,0.0,0.0,0.0,0.0,0.0,0.0,0.0,0.0,0.0,0.0,0.0,0.0,0.0,0.0,0.0,0.0,0.0,0.0,0.0,0.0,0.0,0.0,0.0,0.0,0.0,0.0,0.0,0.0,0.0,0.0,0.0,-1.8604,-2.1014,-2.0268,0.0,-1.9778,0.0,0.0,0.0,0.0,0.0,0.0,0.0,0.0,0.0,0.0,0.0,0.0,0.0,0.0,0.0,0.0,0.0,0.0,0.0,0.0,0.0,0.0,0.0,0.0,0.0,0.0,0.0,0.0,0.0,0.0,0.0,0.0,0.0,0.0,0.0,0.0,0.0,0.0,0.0,0.0,0.0,0.0,0.0,0.0,0.0,0.0,0.0,0.0,0.0,0.0,0.0,0.0,0.0,0.0,0.0,0.0,0.0,0.0,0.0,0.0,0.0,0.0,0.0,0.0,0.0,0.0,0.0,0.0,0.0,0.0,0.0,0.0,0.0,0.0,0.0,0.0,0.0,0.0,0.0,0.0,0.0,0.0,0.0,0.0,0.0,0.0,0.0,0.0,0.0,0.0,0.0,0.0,0.0,0.0,0.0,0.0,0.0,0.0,0.0,0.0,0.0,0.0,0.0,0.0,0.0,0.0,0.0,0.0,0.0,0.0,-2.0006,-2.1888,-2.0994,-2.0013,0.0,0.0,0.0,0.0,0.0,0.0,0.0,0.0,0.0,0.0,0.0,0.0,0.0,0.0,0.0,0.0,0.0,0.0,0.0,0.0,0.0,0.0,0.0,0.0,0.0,0.0,0.0,0.0,0.0,0.0,0.0,0.0,0.0,0.0,0.0,0.0,0.0,0.0,0.0,0.0,0.0,0.0,0.0,0.0,0.0,0.0,0.0,0.0,0.0,0.0,0.0,0.0,0.0,0.0,0.0,0.0,0.0,0.0,0.0,0.0,0.0,0.0,0.0,0.0,0.0,0.0,0.0,0.0,0.0,0.0,0.0,0.0,0.0,0.0,0.0,0.0,0.0,0.0,0.0,0.0,0.0,0.0,0.0,0.0,0.0,0.0,0.0,0.0,0.0,0.0,0.0,0.0,0.0,0.0,0.0,0.0,0.0,0.0,0.0,0.0,0.0,0.0,0.0,0.0,0.0,0.0,0.0,0.0,0.0,0.0,-2.0693,-2.1415,-2.3001,-2.1773,-2.0423,-1.9232,0.0,0.0,0.0,0.0,0.0,0.0,0.0,0.0,0.0,0.0,0.0,0.0,0.0,0.0,0.0,0.0,0.0,0.0,0.0,0.0,0.0,0.0,0.0,0.0,0.0,0.0,0.0,0.0,0.0,0.0,0.0,0.0,0.0,0.0,0.0,0.0,0.0,0.0,0.0,0.0,0.0,0.0,0.0,0.0,0.0,0.0,0.0,0.0,0.0,0.0,0.0,0.0,0.0,0.0,0.0,0.0,0.0,0.0,0.0,0.0,0.0,0.0,0.0,0.0,0.0,0.0,0.0,0.0,0.0,0.0,0.0,0.0,0.0,0.0,0.0,0.0,0.0,0.0,0.0,0.0,0.0,0.0,0.0,0.0,0.0,0.0,0.0,0.0,0.0,0.0,0.0,0.0,0.0,0.0,0.0,0.0,0.0,0.0,0.0,0.0,0.0,0.0,0.0,0.0,0.0,0.0,0.0,0.0,-2.4583,-2.2566,-2.266,-2.5174,-2.2825,-2.1615,0.0,0.0,0.0,0.0,0.0,0.0,0.0,0.0,0.0,0.0,0.0,0.0,0.0,0.0,0.0,0.0,0.0,0.0,0.0,0.0,0.0,0.0,0.0,0.0,0.0,0.0,0.0,0.0,0.0,0.0,0.0,0.0,0.0,0.0,0.0,0.0,0.0,0.0,0.0,0.0,0.0,0.0,0.0,0.0,0.0,0.0,0.0,0.0,0.0,0.0,0.0,0.0,0.0,0.0,0.0,0.0,0.0,0.0,0.0,0.0,0.0,0.0,0.0,0.0,0.0,0.0,0.0,0.0,0.0,0.0,0.0,0.0,0.0,0.0,0.0,0.0,0.0,0.0,0.0,0.0,0.0,0.0,0.0,0.0,0.0,0.0,0.0,0.0,0.0,0.0,0.0,0.0,0.0,0.0,0.0,0.0,0.0,0.0,0.0,0.0,0.0,0.0,0.0,0.0,0.0,0.0,0.0,0.0,0.0,-2.23,-2.3507,-2.4798,-2.6034,-2.3987,-2.2709,0.0,0.0,0.0,0.0,0.0,0.0,0.0,0.0,0.0,0.0,0.0,0.0,0.0,0.0,0.0,0.0,0.0,0.0,0.0,0.0,0.0,0.0,0.0,0.0,0.0,0.0,0.0,0.0,0.0,0.0,0.0,0.0,0.0,0.0,0.0,0.0,0.0,0.0,0.0,0.0,0.0,0.0,0.0,0.0,0.0,0.0,0.0,0.0,0.0,0.0,0.0,0.0,0.0,0.0,0.0,0.0,0.0,0.0,0.0,0.0,0.0,0.0,0.0,0.0,0.0,0.0,0.0,0.0,0.0,0.0,0.0,0.0,0.0,0.0,0.0,0.0,0.0,0.0,0.0,0.0,0.0,0.0,0.0,0.0,0.0,0.0,0.0,0.0,0.0,0.0,0.0,0.0,0.0,0.0,0.0,0.0,0.0,0.0,0.0,0.0,0.0,0.0,0.0,0.0,0.0,0.0,0.0,0.0,0.0,-2.2313,0.0,-2.6734,-2.6581,-2.5211,-2.3635,0.0,0.0,0.0,0.0,0.0,0.0,0.0,0.0,0.0,0.0,0.0,0.0,0.0,0.0,0.0,0.0,0.0,0.0,0.0,0.0,0.0,0.0,0.0,0.0,0.0,0.0,0.0,0.0,0.0,0.0,0.0,0.0,0.0,0.0,0.0,0.0,0.0,0.0,0.0,0.0,0.0,0.0,0.0,0.0,0.0,0.0,0.0,0.0,0.0,0.0,0.0,0.0,0.0,0.0,0.0,0.0,0.0,0.0,0.0,0.0,0.0,0.0,0.0,0.0,0.0,0.0,0.0,0.0,0.0,0.0,0.0,0.0,0.0,0.0,0.0,0.0,0.0,0.0,0.0,0.0,0.0,0.0,0.0,0.0,0.0,0.0,0.0,0.0,0.0,0.0,0.0,0.0,0.0,0.0,0.0,0.0,0.0,0.0,0.0,0.0,0.0,0.0,0.0,0.0,0.0,0.0,0.0,0.0,-2.1433,-2.53,-2.7737,-2.8366,-2.7031,-2.6473,-2.4408,0.0,0.0,0.0,0.0,0.0,0.0,0.0,0.0,0.0,0.0,0.0,0.0,0.0,0.0,0.0,0.0,0.0,0.0,0.0,0.0,0.0,0.0,0.0,0.0,0.0,0.0,0.0,0.0,0.0,0.0,0.0,0.0,0.0,0.0,0.0,0.0,0.0,0.0,0.0,0.0,0.0,0.0,0.0,0.0,0.0,0.0,0.0,0.0,0.0,0.0,0.0,0.0,0.0,0.0,0.0,0.0,0.0,0.0,0.0,0.0,0.0,0.0,0.0,0.0,0.0,0.0,0.0,0.0,0.0,0.0,0.0,0.0,0.0,0.0,0.0,0.0,0.0,0.0,0.0,0.0,0.0,0.0,0.0,0.0,0.0,0.0,0.0,0.0,0.0,0.0,0.0,0.0,0.0,0.0,0.0,0.0,0.0,0.0,0.0,0.0,0.0,0.0,0.0,0.0,0.0,0.0,0.0,0.0,0.0,-2.4794,-2.8394,-3.0391,-3.0469,-2.7805,-2.5985,0.0,0.0,0.0,0.0,0.0,0.0,0.0,0.0,0.0,0.0,0.0,0.0,0.0,0.0,0.0,0.0,0.0,0.0,0.0,0.0,0.0,0.0,0.0,0.0,0.0,0.0,0.0,0.0,0.0,0.0,0.0,0.0,0.0,0.0,0.0,0.0,0.0,0.0,0.0,0.0,0.0,0.0,0.0,0.0,0.0,0.0,0.0,0.0,0.0,0.0,0.0,0.0,0.0,0.0,0.0,0.0,0.0,0.0,0.0,0.0,0.0,0.0,0.0,0.0,0.0,0.0,0.0,0.0,0.0,0.0,0.0,0.0,0.0,0.0,0.0,0.0,0.0,0.0,0.0,0.0,0.0,0.0,0.0,0.0,0.0,0.0,0.0,0.0,0.0,0.0,0.0,0.0,0.0,0.0,0.0,0.0,0.0,0.0,0.0,0.0,0.0,0.0,0.0,0.0,0.0,0.0,0.0,0.0,0.0,-2.6805,-3.0458,-3.2199,-3.1696,-2.9623,-2.7769,-2.6197,0.0,0.0,0.0,0.0,0.0,0.0,0.0,0.0,0.0,0.0,0.0,0.0,0.0,0.0,0.0,0.0,0.0,0.0,0.0,0.0,0.0,0.0,0.0,0.0,0.0,0.0,0.0,0.0,0.0,0.0,0.0,0.0,0.0,0.0,0.0,0.0,0.0,0.0,0.0,0.0,0.0,0.0,0.0,0.0,0.0,0.0,0.0,0.0,0.0,0.0,0.0,0.0,0.0,0.0,0.0,0.0,0.0,0.0,0.0,0.0,0.0,0.0,0.0,0.0,0.0,0.0,0.0,0.0,0.0,0.0,0.0,0.0,0.0,0.0,0.0,0.0,0.0,0.0,0.0,0.0,0.0,0.0,0.0,0.0,0.0,0.0,0.0,0.0,0.0,0.0,0.0,0.0,0.0,0.0,0.0,0.0,0.0,0.0,0.0,0.0,0.0,0.0,0.0,0.0,0.0,0.0,0.0,0.0,-3.0567,-3.3696,-3.3996,-3.1302,-3.1765,-2.9753,0.0,0.0,0.0,0.0,0.0,0.0,0.0,0.0,0.0,0.0,0.0,0.0,0.0,0.0,0.0,0.0,0.0,0.0,0.0,0.0,0.0,0.0,0.0,0.0,0.0,0.0,0.0,0.0,0.0,0.0,0.0,0.0,0.0,0.0,0.0,0.0,0.0,0.0,0.0,0.0,0.0,0.0,0.0,0.0,0.0,0.0,0.0,0.0,0.0,0.0,0.0,0.0,0.0,0.0,0.0,0.0,0.0,0.0,0.0,0.0,0.0,0.0,0.0,0.0,0.0,0.0,0.0,0.0,0.0,0.0,0.0,0.0,0.0,0.0,0.0,0.0,0.0,0.0,0.0,0.0,0.0,0.0,0.0,0.0,0.0,0.0,0.0,0.0,0.0,0.0,0.0,0.0,0.0,0.0,0.0,0.0,0.0,0.0,0.0,0.0,0.0,0.0,0.0,0.0,0.0,0.0,0.0,0.0,0.0,-3.2788,-3.6162,-3.7046,-3.5064,-3.3468,-3.1303,0.0,0.0,0.0,0.0,0.0,0.0,0.0,0.0,0.0,0.0,0.0,0.0,0.0,0.0,0.0,0.0,0.0,0.0,0.0,0.0,0.0,0.0,0.0,0.0,0.0,0.0,0.0,0.0,0.0,0.0,0.0,0.0,0.0,0.0,0.0,0.0,0.0,0.0,0.0,0.0,0.0,0.0,0.0,0.0,0.0,0.0,0.0,0.0,0.0,0.0,0.0,0.0,0.0,0.0,0.0,0.0,0.0,0.0,0.0,0.0,0.0,0.0,0.0,0.0,0.0,0.0,0.0,0.0,0.0,0.0,0.0,0.0,0.0,0.0,0.0,0.0,0.0,0.0,0.0,0.0,0.0,0.0,0.0,0.0,0.0,0.0,0.0,0.0,0.0,0.0,0.0,0.0,0.0,0.0,0.0,0.0,0.0,0.0,0.0,0.0,0.0,0.0,0.0,0.0,0.0,0.0,0.0,0.0,-3.1846,-3.4631,-3.8622,-3.9849,-3.8002,-3.5951,-3.317,0.0,0.0,0.0,0.0,0.0,0.0,0.0,0.0,0.0,0.0,0.0,0.0,0.0,0.0,0.0,0.0,0.0,0.0,0.0,0.0,0.0,0.0,0.0,0.0,0.0,0.0,0.0,0.0,0.0,0.0,0.0,0.0,0.0,0.0,0.0,0.0,0.0,0.0,0.0,0.0,0.0,0.0,0.0,0.0,0.0,0.0,0.0,0.0,0.0,0.0,0.0,0.0,0.0,0.0,0.0,0.0,0.0,0.0,0.0,0.0,0.0,0.0,0.0,0.0,0.0,0.0,0.0,0.0,0.0,0.0,0.0,0.0,0.0,0.0,0.0,0.0,0.0,0.0,0.0,0.0,0.0,0.0,0.0,0.0,0.0,0.0,0.0,0.0,0.0,0.0,0.0,0.0,0.0,0.0,0.0,0.0,0.0,0.0,0.0,0.0,0.0,0.0,0.0,0.0,0.0,0.0,0.0,0.0,-3.3462,-3.6245,-4.054,-4.1953,-4.0165,-3.839,-3.4948,0.0,0.0,0.0,0.0,0.0,0.0,0.0,0.0,0.0,0.0,0.0,0.0,0.0,0.0,0.0,0.0,0.0,0.0,0.0,0.0,0.0,0.0,0.0,0.0,0.0,0.0,0.0,0.0,0.0,0.0,0.0,0.0,0.0,0.0,0.0,0.0,0.0,0.0,0.0,0.0,0.0,0.0,0.0,0.0,0.0,0.0,0.0,0.0,0.0,0.0,0.0,0.0,0.0,0.0,0.0,0.0,0.0,0.0,0.0,0.0,0.0,0.0,0.0,0.0,0.0,0.0,0.0,0.0,0.0,0.0,0.0,0.0,0.0,0.0,0.0,0.0,0.0,0.0,0.0,0.0,0.0,0.0,0.0,0.0,0.0,0.0,0.0,0.0,0.0,0.0,0.0,0.0,0.0,0.0,0.0,0.0,0.0,0.0,0.0,0.0,0.0,0.0,0.0,0.0,0.0,0.0,0.0,0.0,-3.4346,-3.7412,-3.9751,-4.095,-4.0877,-3.809,-3.483,0.0,0.0,0.0,0.0,0.0,0.0,0.0,0.0,0.0,0.0,0.0,0.0,0.0,0.0,0.0,0.0,0.0,0.0,0.0,0.0,0.0,0.0,0.0,0.0,0.0,0.0,0.0,0.0,0.0,0.0,0.0,0.0,0.0,0.0,0.0,0.0,0.0,0.0,0.0,0.0,0.0,0.0,0.0,0.0,0.0,0.0,0.0,0.0,-2.4669,0.0,0.0,0.0,0.0,0.0,0.0,0.0,0.0,0.0,0.0,0.0,0.0,0.0,0.0,0.0,0.0,0.0,0.0,0.0,0.0,0.0,0.0,0.0,0.0,0.0,0.0,0.0,0.0,0.0,0.0,0.0,0.0,0.0,0.0,0.0,0.0,0.0,0.0,0.0,0.0,0.0,0.0,0.0,0.0,0.0,0.0,0.0,0.0,0.0,0.0,0.0,0.0,0.0,0.0,0.0,0.0,0.0,0.0,0.0,-3.6102,-3.8379,-4.0704,-4.1733,-4.1257,-3.8239,-3.5103,0.0,0.0,0.0,0.0,0.0,0.0,0.0,0.0,0.0,0.0,0.0,0.0,0.0,0.0,0.0,0.0,0.0,0.0,0.0,0.0,0.0,0.0,0.0,0.0,0.0,0.0,0.0,0.0,0.0,0.0,0.0,0.0,0.0,0.0,0.0,0.0,0.0,0.0,0.0,0.0,0.0,0.0,0.0,0.0,0.0,0.0,0.0,0.0,0.0,0.0,0.0,0.0,0.0,0.0,0.0,0.0,0.0,0.0,0.0,0.0,0.0,0.0,0.0,0.0,0.0,0.0,0.0,0.0,0.0,0.0,0.0,0.0,0.0,0.0,0.0,0.0,0.0,0.0,0.0,0.0,0.0,0.0,0.0,0.0,0.0,0.0,0.0,0.0,0.0,0.0,0.0,0.0,0.0,0.0,0.0,0.0,0.0,0.0,0.0,0.0,0.0,0.0,0.0,0.0,0.0,0.0,0.0,-3.4494,-3.7513,-3.9139,-4.1711,-4.2521,-4.1316,-3.8388,-3.5365,-3.2315,0.0,0.0,0.0,0.0,0.0,0.0,0.0,0.0,0.0,0.0,0.0,0.0,0.0,0.0,0.0,0.0,0.0,0.0,0.0,0.0,0.0,0.0,0.0,0.0,0.0,0.0,0.0,0.0,0.0,0.0,0.0,0.0,0.0,0.0,0.0,0.0,0.0,0.0,-2.2204,-2.4726,0.0,0.0,0.0,0.0,0.0,0.0,0.0,0.0,-2.7423,0.0,0.0,0.0,0.0,0.0,0.0,0.0,0.0,0.0,0.0,0.0,0.0,0.0,0.0,0.0,0.0,0.0,0.0,0.0,0.0,0.0,0.0,0.0,0.0,0.0,0.0,0.0,0.0,0.0,0.0,0.0,0.0,0.0,0.0,0.0,0.0,0.0,0.0,0.0,0.0,0.0,0.0,0.0,0.0,0.0,0.0,0.0,0.0,0.0,0.0,0.0,0.0,0.0,0.0,0.0,0.0,-3.0869,-3.367,-3.6414,-3.912,-4.0332,-4.0675,-4.0121,-3.7676,-3.4835,-3.1753,0.0,0.0,0.0,0.0,0.0,0.0,0.0,0.0,0.0,0.0,0.0,0.0,0.0,0.0,0.0,0.0,0.0,0.0,0.0,0.0,0.0,0.0,0.0,0.0,0.0,0.0,0.0,0.0,0.0,0.0,0.0,0.0,0.0,0.0,0.0,0.0,0.0,0.0,0.0,-2.8937,-3.0425,0.0,0.0,0.0,0.0,0.0,0.0,0.0,0.0,-2.7534,0.0,0.0,0.0,0.0,0.0,0.0,0.0,0.0,0.0,0.0,0.0,0.0,0.0,0.0,0.0,0.0,0.0,0.0,0.0,0.0,0.0,0.0,0.0,0.0,0.0,0.0,0.0,0.0,0.0,0.0,0.0,0.0,0.0,0.0,0.0,0.0,0.0,0.0,0.0,0.0,0.0,0.0,0.0,0.0,0.0,0.0,0.0,0.0,0.0,0.0,0.0,0.0,0.0,0.0,0.0,-3.1133,-3.4297,-3.6889,-3.8922,-3.9441,-3.9515,-3.9067,-3.6035,-3.3437,0.0,0.0,0.0,0.0,0.0,0.0,0.0,0.0,0.0,0.0,0.0,0.0,0.0,0.0,0.0,0.0,0.0,0.0,0.0,0.0,0.0,0.0,0.0,0.0,0.0,0.0,0.0,0.0,0.0,0.0,0.0,0.0,0.0,0.0,0.0,0.0,0.0,0.0,0.0,0.0,-2.9481,-3.0567,-3.1485,0.0,0.0,0.0,0.0,0.0,0.0,-2.8775,-2.7925,0.0,0.0,0.0,0.0,0.0,0.0,0.0,0.0,0.0,0.0,0.0,0.0,0.0,0.0,0.0,0.0,0.0,0.0,0.0,0.0,0.0,0.0,0.0,0.0,0.0,0.0,0.0,0.0,0.0,0.0,0.0,0.0,0.0,0.0,0.0,0.0,0.0,0.0,0.0,0.0,0.0,0.0,0.0,0.0,0.0,0.0,0.0,0.0,0.0,0.0,0.0,0.0,0.0,0.0,0.0,-3.0961,-3.4643,-3.7112,-3.8284,-3.8608,-3.8381,-3.7501,-3.4478,-3.2243,0.0,0.0,0.0,0.0,0.0,0.0,0.0,0.0,0.0,0.0,0.0,0.0,0.0,0.0,0.0,0.0,0.0,0.0,0.0,0.0,0.0,0.0,0.0,0.0,0.0,0.0,0.0,0.0,0.0,0.0,0.0,0.0,0.0,0.0,0.0,0.0,0.0,0.0,0.0,0.0,0.0,-3.0762,-3.2221,-3.1079,0.0,0.0,0.0,0.0,-2.9947,-2.9332,0.0,0.0,0.0,0.0,0.0,0.0,0.0,0.0,0.0,0.0,0.0,0.0,0.0,0.0,0.0,0.0,0.0,0.0,0.0,0.0,0.0,0.0,0.0,0.0,0.0,0.0,0.0,0.0,0.0,0.0,0.0,0.0,0.0,0.0,0.0,0.0,0.0,0.0,0.0,0.0,0.0,0.0,0.0,0.0,0.0,0.0,0.0,0.0,0.0,0.0,0.0,0.0,0.0,0.0,0.0,0.0,-2.9875,-3.3249,-3.5525,-3.6635,-3.7546,-3.6927,-3.4666,-3.3921,-3.2153,0.0,0.0,0.0,0.0,0.0,0.0,0.0,0.0,0.0,0.0,0.0,0.0,0.0,0.0,0.0,0.0,0.0,0.0,0.0,0.0,0.0,0.0,0.0,0.0,0.0,0.0,0.0,0.0,0.0,0.0,0.0,0.0,0.0,0.0,0.0,0.0,0.0,0.0,0.0,0.0,0.0,-3.3559,-3.2489,-3.2534,-3.2255,0.0,0.0,-3.0333,-3.1162,-3.1615,0.0,0.0,0.0,0.0,0.0,0.0,0.0,0.0,0.0,0.0,0.0,0.0,0.0,0.0,0.0,0.0,0.0,0.0,0.0,0.0,0.0,0.0,0.0,0.0,0.0,0.0,0.0,0.0,0.0,0.0,0.0,0.0,0.0,0.0,0.0,0.0,0.0,0.0,0.0,0.0,0.0,0.0,0.0,0.0,0.0,0.0,0.0,0.0,0.0,0.0,0.0,0.0,0.0,0.0,0.0,-2.682,-2.98,-3.2477,-3.456,-3.605,-3.6318,-3.5621,-3.3915,-3.2723,-3.1059,0.0,0.0,0.0,0.0,0.0,0.0,0.0,0.0,0.0,0.0,0.0,0.0,0.0,0.0,0.0,0.0,0.0,0.0,0.0,0.0,0.0,0.0,0.0,0.0,0.0,0.0,0.0,0.0,0.0,0.0,0.0,0.0,0.0,0.0,0.0,0.0,0.0,0.0,0.0,0.0,0.0,0.0,-3.2154,-3.2005,0.0,0.0,0.0,-3.054,-3.1615,0.0,0.0,0.0,0.0,0.0,0.0,0.0,0.0,0.0,0.0,0.0,0.0,0.0,0.0,0.0,0.0,0.0,0.0,0.0,0.0,0.0,0.0,0.0,0.0,0.0,0.0,0.0,0.0,0.0,0.0,0.0,0.0,0.0,0.0,0.0,0.0,0.0,0.0,0.0,0.0,0.0,0.0,0.0,0.0,0.0,0.0,0.0,0.0,0.0,0.0,0.0,0.0,0.0,0.0,0.0,0.0,0.0,-2.9614,-3.1788,-3.3779,-3.5464,-3.5146,-3.434,-3.3071,-3.1437,0.0,0.0,0.0,0.0,0.0,0.0,0.0,0.0,0.0,0.0,0.0,0.0,0.0,0.0,0.0,0.0,0.0,0.0,0.0,0.0,0.0,0.0,0.0,0.0,0.0,0.0,0.0,-1.8896,0.0,0.0,0.0,0.0,0.0,0.0,0.0,0.0,0.0,0.0,0.0,0.0,0.0,0.0,-3.0815,-3.1869,-3.1678,-3.1806,0.0,0.0,-3.0353,-3.1075,-3.056,-2.9637,0.0,0.0,0.0,0.0,0.0,0.0,0.0,0.0,0.0,0.0,0.0,0.0,0.0,0.0,0.0,0.0,0.0,0.0,0.0,0.0,0.0,0.0,0.0,0.0,0.0,0.0,0.0,0.0,0.0,0.0,0.0,0.0,0.0,0.0,0.0,0.0,0.0,0.0,0.0,0.0,0.0,0.0,0.0,0.0,0.0,0.0,0.0,0.0,0.0,0.0,0.0,0.0,0.0,0.0,0.0,-2.8912,-3.1078,-3.2961,-3.4505,-3.4203,-3.3126,-3.1322,-3.0163,-2.8547,0.0,0.0,0.0,0.0,0.0,0.0,0.0,0.0,0.0,0.0,0.0,0.0,0.0,0.0,0.0,0.0,0.0,0.0,0.0,0.0,0.0,0.0,0.0,0.0,0.0,0.0,0.0,0.0,0.0,0.0,0.0,0.0,0.0,0.0,0.0,0.0,0.0,0.0,0.0,0.0,0.0,-3.0635,-3.1849,-3.2448,-3.2657,0.0,0.0,-2.9717,-2.9186,-3.0102,-2.9859,-2.6798,0.0,0.0,0.0,0.0,0.0,0.0,0.0,0.0,0.0,0.0,0.0,0.0,0.0,0.0,0.0,0.0,0.0,0.0,0.0,0.0,0.0,0.0,0.0,0.0,0.0,0.0,0.0,0.0,0.0,0.0,0.0,0.0,0.0,0.0,0.0,0.0,0.0,0.0,0.0,0.0,0.0,0.0,0.0,0.0,0.0,0.0,0.0,0.0,0.0,0.0,0.0,0.0,0.0,-2.5803,-2.8069,-2.9721,-3.1161,-3.233,-3.2408,-3.1311,-2.9,-2.9193,-2.8085,0.0,0.0,0.0,0.0,0.0,0.0,0.0,0.0,0.0,0.0,0.0,0.0,0.0,0.0,0.0,0.0,0.0,0.0,0.0,0.0,0.0,0.0,0.0,0.0,0.0,0.0,0.0,0.0,-1.8992,-1.9006,-1.9148,0.0,0.0,0.0,0.0,0.0,0.0,0.0,0.0,0.0,0.0,-2.8675,-2.9868,-3.0059,0.0,0.0,-2.9755,-2.9054,-2.885,-2.8475,-2.7546,-2.5664,-2.4318,0.0,0.0,0.0,0.0,0.0,0.0,0.0,0.0,0.0,0.0,0.0,0.0,0.0,0.0,0.0,0.0,0.0,0.0,0.0,0.0,0.0,0.0,0.0,0.0,0.0,0.0,0.0,0.0,0.0,0.0,0.0,0.0,0.0,0.0,0.0,0.0,0.0,0.0,0.0,0.0,0.0,0.0,0.0,0.0,0.0,0.0,0.0,0.0,0.0,0.0,0.0,0.0,-2.5306,-2.7281,-2.8541,-2.9798,-3.1073,-3.1069,-3.0061,-2.797,-2.8193,-2.7246,0.0,0.0,0.0,0.0,0.0,0.0,0.0,0.0,0.0,0.0,0.0,0.0,0.0,0.0,0.0,0.0,0.0,0.0,0.0,0.0,0.0,0.0,0.0,0.0,0.0,0.0,0.0,0.0,-1.8944,-1.8742,-1.898,0.0,0.0,0.0,0.0,0.0,0.0,0.0,0.0,0.0,0.0,-2.7207,-2.8431,-2.8557,-2.857,-2.8695,-2.8175,-2.7759,-2.7499,-2.6478,-2.5348,-2.4188,0.0,0.0,0.0,0.0,0.0,0.0,0.0,0.0,0.0,0.0,0.0,0.0,0.0,0.0,0.0,0.0,0.0,0.0,0.0,0.0,0.0,0.0,0.0,0.0,0.0,0.0,0.0,0.0,0.0,0.0,0.0,0.0,0.0,0.0,0.0,0.0,0.0,0.0,0.0,0.0,0.0,0.0,0.0,0.0,0.0,0.0,0.0,0.0,0.0,0.0,0.0,0.0,0.0,-2.4366,-2.6566,-2.7562,-2.904,-3.0925,-3.0438,-2.9504,-2.8364,-2.7145,-2.5744,-2.4231,0.0,0.0,0.0,0.0,0.0,0.0,0.0,0.0,0.0,0.0,0.0,0.0,0.0,0.0,0.0,0.0,0.0,0.0,0.0,0.0,0.0,0.0,0.0,0.0,0.0,0.0,-1.913,-1.8819,-1.8721,0.0,0.0,0.0,0.0,0.0,0.0,0.0,0.0,0.0,0.0,-2.5379,-2.6726,-2.7886,-2.8434,-2.8197,-2.7045,-2.6358,-2.5648,-2.4607,-2.4279,-2.3719,0.0,0.0,0.0,0.0,0.0,0.0,0.0,0.0,0.0,0.0,0.0,0.0,0.0,0.0,0.0,0.0,0.0,0.0,0.0,0.0,0.0,0.0,0.0,0.0,0.0,0.0,0.0,-2.8431,-2.8352,0.0,0.0,0.0,0.0,0.0,0.0,0.0,0.0,0.0,0.0,0.0,-2.6779,-2.6651,0.0,0.0,0.0,0.0,0.0,0.0,0.0,0.0,0.0,0.0,0.0,0.0,-2.3524,-2.5164,-2.5357,-2.5942,-2.7124,-2.6671,-2.5819,-2.4639,-2.464,-2.4163,-2.3106,0.0,0.0,0.0,0.0,0.0,0.0,0.0,0.0,0.0,0.0,0.0,0.0,0.0,0.0,0.0,0.0,0.0,0.0,0.0,0.0,0.0,0.0,0.0,0.0,0.0,-1.9955,0.0,0.0,0.0,0.0,0.0,0.0,0.0,0.0,0.0,0.0,0.0,-2.3155,-2.3971,-2.4572,-2.5108,-2.5619,-2.5224,-2.4851,0.0,0.0,0.0,0.0,0.0,0.0,0.0,0.0,0.0,0.0,0.0,0.0,0.0,0.0,-2.2046,-2.0743,-1.9841,-1.9367,-1.9541,0.0,0.0,0.0,0.0,0.0,0.0,0.0,0.0,0.0,0.0,0.0,0.0,0.0,0.0,0.0,0.0,-2.9047,0.0,0.0,0.0,0.0,0.0,0.0,0.0,0.0,-2.7795,-2.7664,-2.7737,-2.7423,-2.7029,0.0,-2.5986,-2.5025,0.0,0.0,0.0,0.0,0.0,0.0,0.0,0.0,-2.2782,-2.3799,-2.368,-2.3897,-2.4538,-2.4502,-2.3876,-2.261,-2.2936,-2.2773,-2.2048,-2.0653,-1.9786,0.0,0.0,0.0,0.0,0.0,0.0,0.0,0.0,0.0,0.0,0.0,0.0,0.0,0.0,0.0,0.0,0.0,0.0,0.0,0.0,0.0,0.0,0.0,-2.0327,0.0,0.0,0.0,0.0,0.0,0.0,0.0,0.0,0.0,-2.1789,-2.2404,-2.2964,-2.3566,-2.3756,-2.3835,-2.3796,0.0,0.0,0.0,0.0,0.0,0.0,0.0,-1.938,-1.899,-1.8841,-1.8789,-1.8867,-2.0117,-2.1623,-2.2944,0.0,0.0,-2.1492,-2.0674,-2.0259,-2.0556,-2.0722,-2.0916,-2.1225,-2.2004,-2.2835,0.0,0.0,0.0,0.0,0.0,0.0,0.0,0.0,-2.8527,-2.9002,0.0,-2.8539,0.0,0.0,0.0,0.0,0.0,0.0,0.0,0.0,-2.9334,-2.9048,-2.839,-2.8415,-2.7892,-2.6823,-2.7287,-2.664,-2.5069,-2.4286,0.0,0.0,0.0,0.0,0.0,0.0,-2.2086,-2.2409,-2.2611,-2.293,-2.3361,-2.4026,-2.3761,-2.2487,-2.2043,-2.1582,-2.1066,-1.9988,-1.9148,-1.8629,-1.8587,0.0,0.0,0.0,0.0,0.0,0.0,0.0,0.0,0.0,0.0,0.0,0.0,0.0,0.0,0.0,0.0,0.0,0.0,0.0,0.0,-2.012,0.0,0.0,0.0,0.0,0.0,0.0,0.0,0.0,0.0,0.0,-2.1905,-2.2687,-2.3079,-2.2848,0.0,0.0,0.0,0.0,-2.2189,-2.0652,-2.0888,-2.0824,-1.9773,-1.967,-1.9428,-1.8656,0.0,0.0,-1.7852,-1.8914,-2.0088,-2.0828,-2.1673,-2.2705,-2.457,-2.309,-2.2032,-2.2723,-2.1954,-2.1223,-2.1192,-2.177,-2.2308,-2.6684,0.0,0.0,0.0,0.0,-2.8918,-2.9456,-3.0079,-3.0976,-3.075,-2.9644,-2.9432,0.0,0.0,0.0,0.0,0.0,0.0,-2.7693,-2.7686,-2.8152,-2.8252,-2.8082,-2.8441,-2.8281,-2.7562,-2.7391,-2.6785,-2.5788,-2.4921,-2.4066,-2.3286,0.0,0.0,0.0,0.0,-2.1204,-2.1989,-2.1775,-2.1886,-2.2303,-2.2198,-2.1969,-2.1573,-2.0867,-2.0389,-2.0257,-1.9333,-1.8774,-1.8614,-1.8197,0.0,0.0,0.0,0.0,0.0,0.0,0.0,0.0,0.0,0.0,0.0,0.0,0.0,0.0,0.0,0.0,0.0,0.0,0.0,-1.9834,-2.0106,-1.9942,0.0,0.0,0.0,0.0,0.0,0.0,0.0,0.0,0.0,-2.197,-2.2315,-2.2448,0.0,0.0,-2.2406,-2.1546,-2.0857,-2.0375,-2.0352,0.0,0.0,0.0,-1.8,-1.7191,-1.7154,-1.7368,-1.7704,-1.8381,-1.9146,-2.0143,-2.1518,-2.1994,-2.2502,-2.345,-2.3,-2.2302,-2.221,-2.2112,-2.2087,-2.2146,-2.229,-2.2713,-2.7737,-2.7506,-2.7701,-2.7967,-2.8367,-2.8882,-2.938,-2.9813,-3.0887,-3.0845,-3.0025,-2.9734,-2.8711,-2.7093,-2.6693,0.0,0.0,0.0,-2.7512,-2.7741,-2.7624,-2.7668,-2.7914,-2.7972,-2.7844,-2.7558,-2.7254,-2.6726,-2.5967,-2.5,-2.4213,-2.3624,0.0,0.0,-2.1655,-2.0681,-2.0305,-2.0626,-2.0457,-2.0387,-2.0383,-2.0093,-2.0232,-2.0719,-1.9705,-1.9231,-1.9395,-1.8526,-1.8034,-1.8034,-1.7705,-1.765,0.0,0.0,0.0,0.0,0.0,0.0,0.0,0.0,0.0,0.0,0.0,-1.6879,-1.6655,0.0,0.0,0.0,-1.802,-1.8902,-1.9264,-1.9695,0.0,0.0,0.0,0.0,0.0,0.0,0.0,-2.0094,-2.0236,-2.0602,-2.1506,-2.1778,-2.198,-2.235,-2.2138,-2.1765,-2.1163,0.0,-1.9493,-1.9563,-1.8099,-1.7145,-1.7719,-1.6935,-1.6252,-1.6277,-1.6492,-1.6995,-1.8004,-1.8693,-1.9716,-2.1323,-2.2001,-2.238,-2.3062,-2.2956,-2.2625,-2.219,-2.2294,-2.2428,-2.2263,-2.2366,-2.2896,-2.851,-2.8038,-2.7565,-2.7406,-2.7533,-2.7966,-2.8137,-2.813,-2.9228,-2.9891,-3.025,-2.9591,-2.9061,-2.8499,-2.7478,0.0,-2.7099,-2.7616,-2.8113,-2.8656,-2.7514,-2.7259,-2.7754,-2.7284,-2.6994,-2.6943,-2.6994,-2.6649,-2.5832,-2.4788,-2.3899,-2.3185,-2.2512,-2.1617,-2.0507,-2.0059,-1.9481,-1.8783,-1.9055,-1.892,-1.831,-1.828,-1.8864,-1.9997,-1.8767,-1.8262,-1.8619,-1.7708,-1.7228,-1.7228,-1.7162,-1.7162,-1.7162,0.0,0.0,0.0,0.0,0.0,0.0,0.0,0.0,0.0,0.0,0.0,0.0,0.0,0.0,0.0,-1.7431,0.0,-1.8112,-1.9068,0.0,0.0,0.0,-1.9536,-1.9258,-1.9304,-1.9429,-1.9755,0.0,0.0,-2.0739,0.0,-2.155,-2.1956,-2.1567,-2.12,-2.1159,-2.0205,-1.927,-1.8572,-1.7854,-1.7128,-1.6503,-1.622,-1.6008,-1.5795,-1.5818,-1.6187,-1.7067,-1.7762,-1.8906,-2.0673,-2.1516,-2.2129,-2.2826,-2.2822,-2.2832,-2.2315,-2.2346,-2.2273,-2.1921,-2.2147,-2.2792,-2.7412,-2.6968,-2.6825,-2.7325,-2.8239,-2.9316,-2.9326,-2.8751,-2.9854,-2.9936,-2.925,-2.8936,-2.8282,-2.7362,-2.6553,-2.6341,-2.6659,-2.6616,-2.6777,-2.7041,-2.6768,-2.67,-2.6826,-2.7094,-2.7006,-2.6674,-2.7183,-2.7088,-2.6299,-2.4846,-2.4022,-2.3682,-2.1585,-2.04,-2.0182,-1.9747,-1.943,-1.9213,-1.9747,-1.9968,-1.9936,-1.9913,-1.9882,-1.9723,-1.9032,-1.8513,-1.8178,-1.7534,-1.7228,-1.719,-1.6747,-1.6708,-1.7162,-1.6083,0.0,0.0,0.0,0.0,0.0,0.0,0.0,0.0,0.0,-1.7288,-1.6889,0.0,-1.7698,0.0,-1.7578,-1.7991,-1.8381,-1.8646,0.0,0.0,-1.9494,-1.9773,-1.967,-1.9982,-2.0102,-1.9917,-1.9833,-1.9952,-2.0311,-2.0308,-2.034,-2.0458,-2.0918,-2.1055,-2.0624,-1.9804,-1.8918,-1.8018,-1.7045,-1.6246,-1.5715,-1.5226,-1.4966,-1.4823,-1.5021,-1.5453,-1.6339,-1.7204,-1.8253,-1.9418,-2.0217,-2.0701,-2.1086,-2.1046,-2.1073,-2.0953,-2.1428,-2.1903,-2.1628,-2.1966,-2.2611,-2.6496,-2.6304,-2.6314,-2.6485,-2.6967,-2.8533,-2.8887,-2.8471,-2.972,-2.9802,-2.9074,-2.8672,-2.8138,-2.7545,-2.6659,-2.6373,-2.6559,-2.6313,-2.627,-2.6361,-2.6465,-2.6487,-2.6499,-2.6813,-2.6788,-2.6512,-2.693,-2.6593,-2.5573,-2.4502,-2.3637,-2.3001,-2.1302,-2.0449,-2.05,-1.9621,-1.9316,-1.9714,-1.9833,-1.9896,-1.9901,-1.9733,-1.9552,-1.9444,-1.8592,-1.8076,-1.7856,-1.7198,-1.6931,-1.7094,-1.6788,-1.6759,-1.7087,-1.641,-1.6234,0.0,0.0,0.0,0.0,0.0,0.0,0.0,0.0,0.0,0.0,0.0,-1.7836,-1.78,-1.7865,-1.8011,-1.8408,-1.8405,-1.848,-1.8651,-1.8899,-1.9118,-1.9261,-1.9499,-1.9664,-1.9634,-1.9525,-1.9568,-1.9748,-1.9713,-1.9639,-1.9629,-2.0059,-2.0256,-1.9871,-1.893,-1.7922,-1.7375,-1.6221,-1.5329,-1.5017,-1.4706,-1.4504,-1.4518,-1.4618,-1.5078,-1.6124,-1.7005,-1.7958,-1.9061,-1.9878,-2.0321,-2.0375,-2.0374,-2.0333,-2.0245,-2.0524,-2.0876,-2.0991,-2.152,-2.2195,-2.5809,-2.5702,-2.5702,-2.5365,-2.492,-2.6805,-2.7649,-2.774,-2.8998,-2.9406,-2.9165,-2.8366,-2.8056,-2.8084,-2.6968,-2.6565,-2.6685,-2.6371,-2.6206,-2.6166,-2.6361,-2.6418,-2.643,-2.6355,-2.6317,-2.6352,-2.6276,-2.5648,-2.4546,-2.3981,-2.3081,-2.1947,-2.1344,-2.1094,-2.1076,-1.9766,-1.9478,-2.0233,-1.991,-1.9696,-1.9585,-1.905,-1.8948,-1.928,-1.7933,-1.7273,-1.7451,-1.6739,-1.6531,-1.6873,-1.6854,-1.6875,-1.6864,-1.6765,-1.6736,0.0,-1.6658,0.0,0.0,0.0,0.0,0.0,0.0,0.0,0.0,-1.7787,-1.794,-1.845,-1.8138,-1.8005,-1.824,-1.8269,-1.8187,-1.8086,-1.8096,-1.8262,-1.8627,-1.8685,-1.8802,-1.916,-1.9199,-1.9199,-1.9209,-1.9199,-1.9199,-1.9209,-1.9238,-1.9149,-1.8897,-1.7898,-1.7055,-1.6821,-1.545,-1.4515,-1.4394,-1.4372,-1.4342,-1.4364,-1.4525,-1.5011,-1.6173,-1.7067,-1.799,-1.9107,-1.9864,-2.0271,-2.023,-2.0189,-2.01,-1.9748,-1.9761,-1.991,-2.0285,-2.0898,-2.1601,-2.5103,-2.4769,-2.4769,-2.4462,-2.4135,-2.5961,-2.6742,-2.6824,-2.7765,-2.8222,-2.8187,-2.6981,-2.6792,-2.727,-2.5914,-2.5789,-2.6661,-2.6455,-2.6222,-2.5933,-2.6015,-2.6015,-2.599,-2.5571,-2.5416,-2.548,-2.5149,-2.4888,-2.4718,-2.3644,-2.2931,-2.2521,-2.1452,-2.1052,-2.1228,0.0,0.0,0.0,-2.1415,-2.1643,-2.1667,-2.0714,-2.0055,-1.9675,-1.7981,0.0,-1.6417,-1.6139,-1.606,-1.6275,-1.617,0.0,0.0,0.0,0.0,0.0,0.0,0.0,0.0,0.0,0.0,0.0,-1.7644,-1.7389,-1.7632,-1.7821,-1.811,-1.8502,-1.8203,-1.8021,-1.8066,-1.8042,-1.8144,-1.8432,-1.8481,-1.8656,-1.9102,-1.916,-1.9072,-1.8754,-1.8724,-1.8724,-1.8724,-1.8724,-1.8724,-1.8689,-1.8724,-1.8367,-1.7481,-1.7332,-1.7003,-1.6056,-1.4851,-1.402,-1.3718,-1.3741,-1.3807,-1.377,-1.4455,-1.5184,-1.5959,-1.7329,-1.8311,-1.8792,-1.9394,-1.9793,-1.9427,-1.9357,-1.9354,-1.9264,-1.9243,-1.9354,-1.9839,-2.0417,-2.0884,-2.4384,0.0,-2.4129,-2.3964,0.0,-2.5084,-2.5621,-2.5652,-2.7597,-2.8044,-2.7323,-2.6117,-2.5915,-2.6399,-2.537,-2.5446,-2.6384,-2.6141,-2.5909,-2.5758,-2.5863,-2.5923,-2.5898,-2.5628,-2.5379,-2.5188,-2.4962,-2.4587,-2.4131,-2.3536,-2.3077,-2.2672,-2.2075,-2.1843,-2.1984,-2.1855,-2.164,-2.1302,-2.1628,-2.1716,-2.149,-2.0608,-1.9802,-1.9149,0.0,0.0,0.0,0.0,0.0,0.0,0.0,0.0,0.0,0.0,0.0,-1.6685,-1.6482,-1.6806,-1.7813,-1.7542,-1.7554,-1.81,-1.7906,-1.7784,-1.7829,-1.7915,-1.8061,-1.8256,-1.8125,-1.8008,-1.8008,-1.8008,-1.8096,-1.8256,-1.8295,-1.8428,-1.8613,-1.8652,-1.8574,-1.8344,-1.8286,-1.8295,-1.8295,-1.8295,-1.8147,-1.7815,-1.7745,-1.7285,-1.6114,-1.6254,-1.6122,-1.4858,-1.4186,-1.3682,-1.3572,-1.3848,-1.4013,-1.4145,-1.4796,-1.5616,-1.6314,-1.7197,-1.7981,-1.8429,-1.8906,-1.9063,-1.889,-1.8808,-1.8808,-1.8808,-1.8808,-1.8841,-1.9065,-1.9698,-2.0226,-2.3667,-2.3667,-2.3667,-2.358,-2.3493,-2.437,-2.4744,-2.4904,0.0,0.0,0.0,-2.5304,-2.5061,-2.5431,-2.4907,-2.5052,-2.5643,-2.5684,-2.555,-2.5347,-2.5641,-2.5805,-2.5793,-2.5597,-2.5326,-2.493,-2.47,-2.4181,-2.3366,-2.3255,-2.3034,-2.2672,-2.2549,-2.2561,-2.2635,-2.2463,-2.2097,-2.1596,-2.1749,-2.1565,-2.1005,-2.0185,-1.9413,-1.8619,-1.7359,-1.662,-1.6437,-1.6036,-1.6016,-1.6407,-1.6397,-1.6387,-1.6447,-1.6626,-1.6781,-1.6949,-1.7031,-1.7319,-1.7935,-1.7862,-1.7872,-1.8008,-1.8008,-1.8008,-1.8008,-1.8008,-1.8008,-1.8008,-1.8008,-1.8008,-1.8008,-1.8008,-1.8008,-1.8008,-1.8008,-1.8018,-1.8018,-1.8008,-1.8047,-1.8008,-1.8027,-1.8008,-1.8027,-1.8027,-1.7794,-1.726,-1.7116,-1.6332,-1.5065,-1.5018,-1.4908,-1.3864,-1.3587,-1.3543,-1.3739,-1.3985,-1.4466,-1.4744,-1.5286,-1.6018,-1.6793,-1.7207,-1.7575,-1.817,-1.8362,-1.8355,-1.8295,-1.8248,-1.8285,-1.8275,-1.8285,-1.8241,-1.8175,-1.8718,-1.9209,-2.3188,-2.3188,-2.3188,-2.3188,-2.3232,-2.4155,-2.4956,-2.5663,-2.6069,-2.5875,-2.5168,-2.4,-2.3879,-2.4574,-2.4057,-2.3939,-2.4129,-2.5413,-2.5432,0.0,-2.504,-2.5382,-2.5334,-2.4512,-2.412,-2.4095,-2.3242,-2.2793,-2.2764,-2.2346,-2.2224,-2.2354,-2.197,-2.2,-2.2311,-2.155,-2.1518,-2.2482,-2.2979,-2.2865,-2.2167,-2.1092,-2.0064,-1.9022,-1.7276,-1.6178,-1.584,-1.5605,-1.5566,-1.582,-1.5654,-1.5654,-1.5801,-1.527,-1.5413,-1.6556,-1.5661,-1.5876,-1.7828,-1.7398,-1.7329,-1.794,-1.8008,-1.8008,-1.8008,-1.8008,-1.8008,-1.8008,-1.7974,-1.8008,-1.8008,-1.8008,-1.8008,-1.8008,-1.8008,-1.8008,-1.8008,-1.8008,-1.8008,-1.8008,-1.8008,-1.8008,-1.8008,-1.8008,-1.794,-1.7759,-1.7044,-1.6298,-1.4994,-1.4122,-1.3783,-1.3528,-1.3492,-1.3768,-1.4186,-1.3949,-1.441,-1.5349,-1.5658,-1.6079,-1.6851,-1.7483,-1.785,-1.7764,-1.7835,-1.7835,-1.7575,-1.7466,-1.7515,-1.7513,-1.7513,-1.7461,-1.729,-1.7451,-1.7543,-2.3101,-2.3101,-2.3101,-2.3101,-2.3135,-2.344,-2.4059,-2.4808,-2.4221,-2.399,-2.3932,-2.291,-2.2673,-2.297,-2.2775,-2.2934,-2.3349,-2.4095,-2.4313,-2.412,-2.4492,-2.4744,-2.4808,-2.4398,-2.3758,-2.3059,-2.2822,-2.2473,-2.2019,-2.1764,-2.1849,-2.2261,-2.2025,-2.1892,-2.1831,-2.165,-2.1722,-2.1977,-2.1723,-2.1575,-2.1514,-2.0236,-1.9081,-1.8106,-1.682,-1.5989,-1.5566,-1.5439,-1.5449,-1.5517,-1.5439,-1.5449,-1.5517,-1.5427,-1.5675,-1.6307,-1.5974,-1.6169,-1.7229,-1.6977,-1.7039,-1.7613,-1.7666,-1.7773,-1.7998,-1.7613,-1.7579,-1.794,-1.7657,-1.7569,-1.793,-1.8008,-1.8008,-1.8008,-1.8008,-1.8008,-1.8008,-1.8008,-1.8008,-1.8008,-1.8008,-1.8008,-1.8008,-1.8008,-1.7794,-1.7442,-1.6437,-1.5508,-1.5207,-1.4573,-1.3941,-1.363,-1.3804,-1.4194,-1.4573,-1.5108,-1.5569,-1.6306,-1.6517,-1.6748,-1.7116,-1.7444,-1.7321,-1.7167,-1.7204,-1.7167,-1.6971,-1.6971,-1.6971,-1.6981,-1.6981,-1.6908,-1.6867,-1.6678,-1.6786,-2.2969,-2.3047,-2.296,-2.2916,-2.2916,-2.2794,-2.3033,-2.3487,-2.2726,-2.2502,-2.2514,-2.1981,-2.1668,-2.1529,-2.1617,-2.1869,-2.2312,-2.2686,-2.3047,-2.3404,-2.3512,-2.3777,-2.4047,-2.3937,-2.3278,-2.2435,-2.2603,-2.2287,-2.15,-2.1404,-2.1536,-2.1825,-2.1837,-2.162,-2.1218,-2.162,-2.1589,-2.114,-2.0372,-2.0139,-2.0434,-1.9305,-1.8166,-1.6998,-1.6387,-1.5859,-1.5449,-1.542,-1.542,-1.542,-1.542,-1.542,-1.543,-1.5723,-1.5987,-1.6114,-1.6387,-1.6599,-1.6687,-1.6697,-1.6843,-1.7207,-1.7236,-1.7373,-1.7599,-1.7107,-1.7089,-1.7774,-1.751,-1.7442,-1.7906,-1.8008,-1.8008,-1.8008,-1.8008,-1.8008,-1.8008,-1.8008,-1.8008,-1.8008,-1.8008,-1.7988,-1.79,-1.7871,-1.7523,-1.6612,-1.5411,-1.4913,-1.5347,-1.4963,-1.4375,-1.4271,-1.451,-1.4966,-1.5092,-1.5713,-1.645,-1.688,-1.6916,-1.6948,-1.7015,-1.6911,-1.6668,-1.6641,-1.6582,-1.6504,-1.6455,-1.6551,-1.6522,-1.6461,-1.6626,-1.6819,-1.6636,-1.6255,-1.6367,-2.2618,-2.275,-2.2574,-2.2432,-2.2467,-2.2422,-2.2311,-2.2078,-2.2261,-2.1783,-2.0941,-2.1145,-2.105,-2.0772,-2.1015,-2.0837,-2.0411,-2.1697,-2.2017,-2.1501,-2.176,-2.2283,-2.2791,-2.2105,-2.2049,-2.2435,-2.2135,-2.1673,-2.1296,-2.1326,-2.117,-2.0803,-2.0759,-2.0779,-2.0718,-2.0762,-2.0659,-2.0419,-2.0087,-1.9789,-1.9513,-1.9156,-1.8061,-1.6255,-1.6155,-1.5889,-1.5459,-1.542,-1.542,-1.542,-1.542,-1.542,-1.542,-1.5459,-1.5654,-1.6056,-1.6134,-1.633,-1.6638,-1.6697,-1.6697,-1.6746,-1.6755,-1.6794,-1.686,-1.6501,-1.6756,-1.7687,-1.7906,-1.7833,-1.7974,-1.7988,-1.7949,-1.79,-1.7959,-1.8008,-1.7949,-1.8008,-1.8008,-1.8008,-1.791,-1.7861,-1.751,-1.7432,-1.7014,-1.6118,-1.527,-1.4882,-1.5265,-1.4959,-1.4883,-1.5279,-1.5579,-1.5895,-1.6288,-1.5756,-1.6168,-1.6973,-1.6468,-1.6305,-1.6558,-1.6677,-1.658,-1.6182,-1.6153,-1.6016,-1.5871,-1.5907,-1.6103,-1.595,-1.6321,-1.6945,-1.6446,-1.5946,-1.609,-2.2441,-2.252,-2.2441,-2.2255,-2.2047,-2.1889,-2.1654,-2.1273,-2.1243,-2.0847,-2.0235,-2.0346,-2.0311,-2.0188,-2.0352,-2.0072,-1.9639,-2.0507,-2.0739,-2.0437,-2.0827,-2.1098,-2.1248,-2.0958,-2.0666,-2.0363,-2.0406,-2.0312,-2.0121,-2.0427,-2.0542,-2.0472,-2.0731,-2.0966,-2.1039,-2.0948,-2.0707,-2.0308,-1.9966,-1.9461,-1.887,-1.852,-1.7926,-1.6958,-1.6378,-1.6016,-1.5831,-1.5547,-1.542,-1.542,-1.542,-1.542,-1.542,-1.542,-1.5459,-1.5664,-1.5674,-1.5762,-1.5917,-1.5927,-1.6034,-1.6309,-1.6338,-1.6543,-1.707,-1.6971,-1.723,-1.7755,-1.7393,-1.7097,-1.757,-1.7646,-1.7539,-1.7353,-1.748,-1.7549,-1.7233,-1.7223,-1.7223,-1.7223,-1.7213,-1.7207,-1.7041,-1.696,-1.6786,-1.623,-1.5574,-1.5231,-1.5858,-1.5488,-1.5435,-1.6074,-1.6307,-1.6419,-1.6763,-1.6479,-1.6515,-1.6917,-1.6555,-1.6121,-1.6185,-1.6054,-1.5869,-1.5713,-1.5723,-1.5664,-1.5498,-1.5526,-1.5661,-1.5633,-1.594,-1.6585,-1.633,-1.6112,-1.633,-2.2078,-2.1872,-2.1736,-2.1471,-2.1247,-2.1213,-2.0987,-2.0662,-2.0517,-2.0311,-2.0071,-1.9951,-1.9978,-2.0,-1.975,-1.9408,-1.9201,-1.9332,-1.9421,-1.9442,-1.961,-1.9731,-1.983,-1.9721,-1.9391,-1.9029,-1.9294,-1.936,-1.918,-1.935,-1.9709,-1.9961,-2.0254,-2.0445,-2.0589,-2.0583,-2.0306,-1.9778,-1.9663,-1.9243,-1.8395,-1.8101,-1.7754,-1.7197,-1.6496,-1.6125,-1.6085,-1.5644,-1.542,-1.542,-1.542,-1.542,-1.542,-1.542,-1.542,-1.542,-1.542,-1.542,-1.542,-1.5527,-1.5732,-1.6056,-1.6125,-1.6408,-1.7021,-1.7207,-1.7402,-1.7701,-1.6926,-1.6675,-1.7265,-1.7275,-1.7061,-1.6755,-1.7041,-1.7061,-1.6765,-1.6697,-1.6726,-1.6697,-1.6775,-1.6638,-1.65,-1.6249,-1.5937,-1.604,-1.551,-1.536,-1.6078,-1.5748,-1.5575,-1.6461,-1.6437,-1.6424,-1.6722,-1.6569,-1.6775,-1.6728,-1.6297,-1.5829,-1.5909,-1.5576,-1.543,-1.5547,-1.5449,-1.5439,-1.5468,-1.5468,-1.5748,-1.5853,-1.6054,-1.6226,-1.6283,-1.6169,-1.6301,-2.1302,-2.0639,-2.005,-1.9903,-1.9851,-2.0364,-2.0319,-1.998,-2.0319,-2.0464,-2.032,-2.0056,-2.008,-2.0285,-1.9255,-1.8733,-1.866,-1.8413,-1.8248,-1.8193,-1.7888,-1.8033,-1.8639,-1.8306,-1.8509,-1.8984,-1.9048,-1.9201,-1.9293,-1.8679,-1.8548,-1.9049,-1.8884,-1.8716,-1.8903,-1.9288,-1.9083,-1.872,-1.9228,-1.9148,-1.8197,-1.8022,-1.7594,-1.6882,-1.6328,-1.6144,-1.6095,-1.5654,-1.543,-1.543,-1.542,-1.542,-1.542,-1.542,-1.542,-1.542,-1.542,-1.542,-1.5459,-1.5782,-1.6036,-1.6075,-1.6065,-1.625,-1.6716,-1.6794,-1.7012,-1.7383,-1.6964,-1.6847,-1.7227,-1.6973,-1.6707,-1.6629,-1.6687,-1.6697,-1.6668,-1.656,-1.6677,-1.6638,-1.658,-1.6414,-1.6123,-1.5046,-1.4952,-1.5083,-1.4648,-1.4526,-1.536,-1.5272,-1.5495,-1.5961,-1.5919,-1.5611,-1.6408,-1.6333,-1.6172,-1.6212,-1.6016,-1.5498,-1.5449,-1.542,-1.542,-1.542,-1.542,-1.5439,-1.5497,-1.5777,-1.6226,-1.6273,-1.5882,-1.594,-1.6255,-1.5777,-1.5882,-2.0303,-1.948,-1.9633,-1.9573,-1.9411,-1.9892,-1.9907,-1.9549,-1.9668,-1.9737,-1.9713,-1.9586,-1.9598,-1.9689,-1.8737,-1.8339,-1.8292,-1.8145,-1.7853,-1.7413,-1.744,-1.75,-1.746,-1.737,-1.7432,-1.7706,-1.7784,-1.7867,-1.8017,-1.7813,-1.8064,-1.8559,-1.8575,-1.8773,-1.9212,-1.9093,-1.8894,-1.8748,-1.8697,-1.8394,-1.8061,-1.8008,-1.7852,-1.7506,-1.6865,-1.6621,-1.6926,-1.6242,-1.586,-1.585,-1.5566,-1.542,-1.542,-1.542,-1.542,-1.542,-1.542,-1.542,-1.543,-1.5527,-1.5771,-1.6046,-1.5801,-1.5986,-1.6531,-1.6707,-1.6882,-1.7187,-1.6982,-1.6846,-1.6826,-1.6572,-1.6191,-1.5977,-1.6133,-1.6201,-1.5967,-1.5889,-1.5859,-1.5889,-1.5859,-1.5811,-1.5653,-1.5234,-1.503,-1.5147,-1.4882,-1.4838,-1.5003,-1.4977,-1.5023,-1.5392,-1.5377,-1.5311,-1.5602,-1.5701,-1.5684,-1.587,-1.5791,-1.5537,-1.542,-1.542,-1.542,-1.542,-1.542,-1.542,-1.5468,-1.5497,-1.6026,-1.595,-1.5613,-1.5835,-1.6255,-1.5835,-1.5921,-1.8795,-1.8292,-1.8463,-1.8562,-1.8548,-1.9059,-1.9317,-1.9262,-1.9292,-1.946,-1.9608,-1.942,-1.9411,-1.9478,-1.8581,-1.8081,-1.8045,-1.7816,-1.7395,-1.6982,-1.7312,-1.7284,-1.6982,-1.7037,-1.7027,-1.6927,-1.6908,-1.6968,-1.7141,-1.7314,-1.7613,-1.8037,-1.8148,-1.8476,-1.889,-1.86,-1.8432,-1.8442,-1.8124,-1.793,-1.7974,-1.8008,-1.8008,-1.793,-1.7408,-1.7207,-1.7373,-1.666,-1.6232,-1.6075,-1.5781,-1.5557,-1.543,-1.542,-1.542,-1.542,-1.542,-1.542,-1.5439,-1.5547,-1.5791,-1.6046,-1.585,-1.5957,-1.6599,-1.658,-1.6748,-1.6963,-1.6777,-1.6514,-1.6436,-1.6144,-1.5732,-1.5498,-1.5674,-1.5762,-1.5469,-1.543,-1.5439,-1.5469,-1.5478,-1.5439,-1.542,-1.5371,-1.5254,-1.5147,-1.5,-1.4911,-1.4823,-1.4734,-1.4686,-1.4872,-1.4999,-1.5059,-1.5291,-1.54,-1.543,-1.5576,-1.5693,-1.5498,-1.542,-1.542,-1.542,-1.542,-1.542,-1.542,-1.5391,-1.5352,-1.5362,-1.5362,-1.5449,-1.5623,-1.5845,-1.5921,-1.5921,-1.6904,-1.6815,-1.6484,-1.6873,-1.7357,-1.804,-1.8576,-1.9222,-1.9292,-1.9648,-2.0079,-1.9608,-1.9629,-1.9918,-1.876,-1.8146,-1.7972,-1.7468,-1.7101,-1.7009,-1.733,-1.733,-1.7046,-1.7303,-1.7266,-1.6972,-1.6936,-1.6917,-1.6943,-1.7107,-1.7235,-1.727,-1.7461,-1.7588,-1.7564,-1.7632,-1.7623,-1.775,-1.774,-1.7784,-1.7974,-1.7974,-1.7974,-1.8008,-1.793,-1.7734,-1.7393,-1.6963,-1.6543,-1.6193,-1.6075,-1.588,-1.5478,-1.542,-1.542,-1.542,-1.542,-1.542,-1.5459,-1.5752,-1.5958,-1.6075,-1.6076,-1.6123,-1.6475,-1.6338,-1.6299,-1.6572,-1.6387,-1.6144,-1.6085,-1.5732,-1.5469,-1.542,-1.5478,-1.5459,-1.543,-1.542,-1.542,-1.542,-1.542,-1.542,-1.5381,-1.5303,-1.5196,-1.5059,-1.4872,-1.4725,-1.4625,-1.4545,-1.4595,-1.4619,-1.4672,-1.4742,-1.4963,-1.5186,-1.5255,-1.5352,-1.543,-1.542,-1.542,-1.542,-1.542,-1.542,-1.5332,-1.5332,-1.5274,-1.5245,-1.5225,-1.5264,-1.5352,-1.541,-1.5507,-1.5613,-1.5584,-1.5303,-1.5487,-1.6445,-1.6935,-1.7251,-1.8363,-1.9054,-1.9301,-1.9292,-1.945,-1.9608,-1.9411,-1.9312,-1.9169,-1.869,-1.8347,-1.8081,-1.7798,-1.7596,-1.7385,-1.7449,-1.7596,-1.7651,-1.7568,-1.7422,-1.733,-1.7312,-1.7165,-1.6954,-1.6987,-1.7012,-1.7003,-1.7081,-1.7141,-1.7279,-1.727,-1.7382,-1.7529,-1.7554,-1.7623,-1.7794,-1.7784,-1.7852,-1.7974,-1.8008,-1.7812,-1.7402,-1.7256,-1.6973,-1.6523,-1.6221,-1.5899,-1.5508,-1.542,-1.542,-1.542,-1.542,-1.542,-1.543,-1.5547,-1.5762,-1.5958,-1.5791,-1.585,-1.6222,-1.6173,-1.6144,-1.626,-1.6173,-1.6125,-1.6026,-1.5664,-1.543,-1.542,-1.542,-1.542,-1.542,-1.542,-1.542,-1.542,-1.542,-1.542,-1.542,-1.5332,-1.5245,-1.5021,-1.4913,-1.4795,-1.4538,-1.4423,-1.4359,-1.4235,-1.4294,-1.4325,-1.4506,-1.4601,-1.4648,-1.4857,-1.5041,-1.5234,-1.5283,-1.5322,-1.5342,-1.5362,-1.5313,-1.5225,-1.5167,-1.5108,-1.5088,-1.5156,-1.5244,-1.5293,-1.5342,-1.5362,-1.5391,-1.4436,-1.4599,-1.5683,-1.6483,-1.699,-1.8016,-1.8709,-1.9121,-1.9112,-1.9112,-1.9192,-1.9183,-1.9104,-1.8935,-1.8779,-1.8577,-1.831,-1.8301,-1.8164,-1.7907,-1.7908,-1.799,-1.7989,-1.7743,-1.7606,-1.7642,-1.7688,-1.7523,-1.7147,-1.7266,-1.7211,-1.6972,-1.7046,-1.7107,-1.7091,-1.7097,-1.7176,-1.7358,-1.7392,-1.7461,-1.7623,-1.7681,-1.7784,-1.7896,-1.794,-1.7793,-1.7422,-1.7416,-1.71,-1.6533,-1.6055,-1.5684,-1.5439,-1.542,-1.542,-1.542,-1.541,-1.5381,-1.5342,-1.5362,-1.541,-1.5604,-1.5429,-1.539,-1.5692,-1.575,-1.577,-1.582,-1.5811,-1.584,-1.5801,-1.5596,-1.542,-1.542,-1.542,-1.542,-1.542,-1.542,-1.542,-1.542,-1.542,-1.542,-1.542,-1.541,-1.5245,-1.4965,-1.4801,-1.4581,-1.4275,-1.4058,-1.3902,-1.3773,-1.3783,-1.3867,-1.4025,-1.4051,-1.4037,-1.43,-1.4604,-1.4845,-1.501,-1.5068,-1.5098,-1.5206,-1.5205,-1.5147,-1.5059,-1.4931,-1.4902,-1.5,-1.5156,-1.5176,-1.5235,-1.5362,-1.5342,-1.4155,-1.4219,-1.4556,-1.5467,-1.6518,-1.682,-1.7664,-1.87,-1.8723,-1.8763,-1.8962,-1.9073,-1.9107,-1.9125,-1.8898,-1.8751,-1.8715,-1.8742,-1.8627,-1.8513,-1.8525,-1.8388,-1.7929,-1.7929,-1.7911,-1.7848,-1.8006,-1.7871,-1.7432,-1.7697,-1.7688,-1.7009,-1.7193,-1.7266,-1.6998,-1.6908,-1.7003,-1.7176,-1.7166,-1.7289,-1.7461,-1.7579,-1.7672,-1.7706,-1.7852,-1.7779,-1.7451,-1.7246,-1.6897,-1.6173,-1.5703,-1.5459,-1.542,-1.542,-1.5391,-1.5381,-1.5371,-1.5235,-1.5157,-1.5109,-1.508,-1.506,-1.5088,-1.5059,-1.5263,-1.5341,-1.54,-1.5469,-1.5478,-1.5459,-1.5459,-1.543,-1.542,-1.542,-1.542,-1.542,-1.542,-1.542,-1.542,-1.542,-1.542,-1.542,-1.54,-1.5381,-1.5099,-1.4772,-1.4487,-1.4119,-1.3793,-1.359,-1.3378,-1.3304,-1.3313,-1.3395,-1.3521,-1.3349,-1.3361,-1.3702,-1.4011,-1.4258,-1.4721,-1.4904,-1.4926,-1.5051,-1.5068,-1.5009,-1.495,-1.4813,-1.4813,-1.497,-1.5068,-1.5098,-1.5196,-1.5323,-1.5313,-1.3849,-1.3799,-1.481,-1.5362,-1.5618,-1.6209,-1.6974,-1.7781,-1.7925,-1.8256,-1.8873,-1.9152,-1.9028,-1.8907,-1.9033,-1.899,-1.8852,-1.8969,-1.9037,-1.8879,-1.8888,-1.8575,-1.8196,-1.8317,-1.8282,-1.808,-1.8188,-1.7986,-1.7343,-1.7579,-1.7449,-1.6927,-1.7046,-1.7046,-1.6917,-1.6908,-1.6943,-1.6978,-1.6968,-1.7072,-1.7245,-1.7304,-1.7432,-1.7672,-1.774,-1.7682,-1.7353,-1.677,-1.6378,-1.6105,-1.5644,-1.542,-1.5391,-1.5313,-1.5264,-1.5196,-1.4907,-1.4678,-1.4659,-1.4649,-1.4659,-1.4735,-1.4935,-1.5205,-1.5332,-1.5332,-1.5362,-1.542,-1.542,-1.542,-1.542,-1.542,-1.542,-1.542,-1.542,-1.542,-1.542,-1.542,-1.542,-1.542,-1.54,-1.5381,-1.5254,-1.5118,-1.4856,-1.455,-1.4153,-1.3788,-1.3438,-1.3247,-1.3057,-1.2919,-1.2881,-1.2933,-1.2937,-1.2721,-1.2751,-1.3086,-1.337,-1.3576,-1.4215,-1.484,-1.4859,-1.4883,-1.4852,-1.4793,-1.4734,-1.4636,-1.4793,-1.497,-1.5098,-1.5156,-1.5274,-1.5362,-1.5303,-1.3724,-1.3567,-1.4467,-1.4933,-1.5131,-1.5555,-1.6087,-1.6648,-1.6805,-1.7131,-1.7674,-1.8376,-1.8492,-1.8364,-1.8985,-1.9173,-1.8978,-1.8797,-1.8767,-1.8843,-1.8634,-1.8422,-1.8316,-1.8483,-1.8369,-1.8091,-1.8353,-1.8132,-1.7649,-1.7733,-1.7588,-1.723,-1.7147,-1.7073,-1.6908,-1.6908,-1.6908,-1.6908,-1.6908,-1.6968,-1.7072,-1.7132,-1.727,-1.751,-1.7584,-1.7533,-1.7003,-1.6177,-1.5721,-1.5663,-1.5449,-1.5284,-1.5216,-1.5147,-1.5117,-1.5108,-1.4801,-1.4563,-1.4364,-1.444,-1.4459,-1.4402,-1.4676,-1.4991,-1.5167,-1.5216,-1.5245,-1.5381,-1.541,-1.542,-1.542,-1.542,-1.542,-1.542,-1.542,-1.541,-1.541,-1.5244,-1.5137,-1.5079,-1.5051,-1.4945,-1.48,-1.4665,-1.4434,-1.4063,-1.3622,-1.3317,-1.306,-1.2932,-1.2773,-1.2606,-1.2487,-1.2547,-1.2573,-1.2422,-1.2404,-1.2697,-1.3093,-1.3238,-1.385,-1.4659,-1.4724,-1.467,-1.4638,-1.4606,-1.4636,-1.4666,-1.4813,-1.5,-1.5127,-1.5235,-1.5323,-1.5244,-1.5195,-1.3723,-1.3523,-1.3763,-1.4295,-1.4865,-1.4787,-1.5076,-1.5509,-1.5695,-1.5824,-1.6165,-1.7115,-1.7617,-1.7666,-1.8541,-1.9054,-1.8908,-1.851,-1.8536,-1.8474,-1.8233,-1.7923,-1.8188,-1.8292,-1.8157,-1.7987,-1.843,-1.83,-1.8006,-1.8208,-1.8078,-1.767,-1.7513,-1.7303,-1.7064,-1.6954,-1.6908,-1.6908,-1.6908,-1.6908,-1.6968,-1.7072,-1.7166,-1.7304,-1.7545,-1.7235,-1.6549,-1.5819,-1.5397,-1.5243,-1.5215,-1.5156,-1.5029,-1.5009,-1.497,-1.4865,-1.4723,-1.4439,-1.4194,-1.4295,-1.4359,-1.4098,-1.4338,-1.4656,-1.4962,-1.5051,-1.5081,-1.5235,-1.5381,-1.5381,-1.5362,-1.5391,-1.5362,-1.5342,-1.5332,-1.5284,-1.5254,-1.4981,-1.471,-1.455,-1.455,-1.4264,-1.4057,-1.3974,-1.404,-1.3616,-1.319,-1.287,-1.2679,-1.2524,-1.2402,-1.2266,-1.2193,-1.2147,-1.2147,-1.2128,-1.2202,-1.2399,-1.2911,-1.326,-1.3698,-1.4261,-1.4428,-1.4508,-1.459,-1.4636,-1.4686,-1.4775,-1.4931,-1.5049,-1.5205,-1.5284,-1.5323,-1.5098,-1.4951,-1.3532,-1.3537,-1.3811,-1.4016,-1.4145,-1.4132,-1.4327,-1.4663,-1.5042,-1.5352,-1.5955,-1.6617,-1.6862,-1.6935,-1.7796,-1.7917,-1.7715,-1.8367,-1.8953,-1.8531,-1.7448,-1.7314,-1.7692,-1.8006,-1.8052,-1.8054,-1.8461,-1.8426,-1.8214,-1.8328,-1.841,-1.8008,-1.7642,-1.7458,-1.7339,-1.7037,-1.6908,-1.6908,-1.6908,-1.6908,-1.6908,-1.6943,-1.7072,-1.7201,-1.7398,-1.7073,-1.6436,-1.6094,-1.5754,-1.5411,-1.5209,-1.5155,-1.5018,-1.4862,-1.4784,-1.4642,-1.4109,-1.3821,-1.3894,-1.382,-1.3765,-1.4052,-1.4231,-1.4553,-1.5079,-1.4898,-1.4866,-1.499,-1.5205,-1.5303,-1.5254,-1.5235,-1.5225,-1.5187,-1.4907,-1.4696,-1.4705,-1.4674,-1.4424,-1.4213,-1.4026,-1.3914,-1.3773,-1.3455,-1.3332,-1.3093,-1.2799,-1.2454,-1.2296,-1.22,-1.2126,-1.2076,-1.2076,-1.2076,-1.2076,-1.2131,-1.2303,-1.2468,-1.289,-1.3423,-1.3849,-1.4118,-1.4414,-1.4553,-1.4608,-1.4656,-1.4715,-1.4931,-1.5088,-1.5176,-1.5274,-1.5284,-1.5225,-1.4961,-1.46,-1.3447,-1.3344,-1.3489,-1.3544,-1.3468,-1.3393,-1.3441,-1.367,-1.3975,-1.4316,-1.4783,-1.5496,-1.5869,-1.5992,-1.6895,-1.7269,-1.7602,-1.8425,-1.8723,-1.8241,-1.7561,-1.7529,-1.773,-1.7973,-1.8032,-1.7694,-1.8223,-1.8316,-1.8264,-1.8407,-1.8499,-1.8319,-1.7807,-1.7513,-1.744,-1.7075,-1.6927,-1.6908,-1.6908,-1.6908,-1.6908,-1.6908,-1.7012,-1.7076,-1.7033,-1.6646,-1.6171,-1.5858,-1.5585,-1.5328,-1.5245,-1.5204,-1.5037,-1.4786,-1.4616,-1.4484,-1.4225,-1.3818,-1.3855,-1.3882,-1.3938,-1.3987,-1.4091,-1.4345,-1.4554,-1.4485,-1.4402,-1.4515,-1.4788,-1.5032,-1.5089,-1.5098,-1.5088,-1.5021,-1.4659,-1.4345,-1.4199,-1.4008,-1.3905,-1.3698,-1.3559,-1.3385,-1.3199,-1.3032,-1.2851,-1.2701,-1.256,-1.2237,-1.2311,-1.22,-1.2126,-1.2076,-1.2076,-1.2076,-1.2076,-1.222,-1.245,-1.2707,-1.3075,-1.3598,-1.4123,-1.4355,-1.4549,-1.4577,-1.4577,-1.4725,-1.4823,-1.5039,-1.5176,-1.5284,-1.5332,-1.5274,-1.5068,-1.4668,-1.4297,-1.3456,-1.3291,-1.3165,-1.3101,-1.3151,-1.3012,-1.291,-1.2838,-1.3077,-1.3452,-1.3349,-1.4342,-1.488,-1.5123,-1.6162,-1.7138,-1.7952,-1.812,-1.8143,-1.8144,-1.7821,-1.778,-1.7896,-1.7943,-1.7838,-1.7157,-1.8075,-1.8395,-1.841,-1.8467,-1.8706,-1.863,-1.7815,-1.7551,-1.746,-1.6997,-1.6769,-1.6874,-1.6908,-1.6908,-1.6908,-1.6908,-1.6978,-1.7017,-1.6807,-1.6422,-1.6104,-1.5807,-1.5475,-1.5317,-1.5355,-1.5324,-1.5206,-1.4854,-1.4543,-1.4524,-1.4341,-1.4194,-1.4084,-1.4167,-1.4196,-1.3949,-1.3856,-1.3942,-1.4063,-1.3909,-1.3788,-1.3917,-1.4156,-1.4391,-1.4715,-1.4677,-1.4705,-1.4658,-1.4364,-1.3996,-1.3627,-1.3221,-1.3124,-1.3315,-1.3176,-1.2993,-1.2839,-1.2683,-1.2487,-1.2327,-1.2196,-1.2135,-1.2184,-1.2218,-1.2144,-1.2076,-1.2076,-1.2076,-1.2076,-1.2128,-1.2386,-1.2772,-1.3131,-1.3644,-1.4185,-1.4416,-1.4508,-1.4536,-1.4595,-1.4704,-1.4852,-1.5,-1.5176,-1.5332,-1.5245,-1.5107,-1.4775,-1.4338,-1.3987,-1.4008,-1.4141,-1.3379,-1.3248,-1.3453,-1.361,-1.3426,-1.3133,-1.349,-1.3598,-1.3417,-1.3766,-1.411,-1.4608,-1.5622,-1.7009,-1.8048,-1.8083,-1.8044,-1.8346,-1.8026,-1.7655,-1.767,-1.7726,-1.7548,-1.7719,-1.83,-1.8712,-1.8845,-1.9052,-1.8991,-1.8843,-1.7799,-1.7351,-1.7351,-1.6813,-1.6412,-1.6839,-1.6908,-1.6908,-1.6908,-1.6908,-1.6908,-1.6968,-1.678,-1.6551,-1.6309,-1.618,-1.612,-1.605,-1.5804,-1.5831,-1.578,-1.534,-1.49,-1.4579,-1.4268,-1.4176,-1.4304,-1.413,-1.4106,-1.3997,-1.3821,-1.3662,-1.3704,-1.3474,-1.333,-1.3309,-1.3401,-1.3522,-1.3699,-1.3961,-1.383,-1.3708,-1.3477,-1.3143,-1.3019,-1.2777,-1.2621,-1.2956,-1.2848,-1.2732,-1.265,-1.2505,-1.23,-1.223,-1.2153,-1.2101,-1.2126,-1.2178,-1.2181,-1.2128,-1.2076,-1.2076,-1.2076,-1.2128,-1.2275,-1.268,-1.3084,-1.3461,-1.3947,-1.4304,-1.446,-1.4497,-1.4565,-1.4666,-1.4813,-1.497,-1.5117,-1.5254,-1.509,-1.4893,-1.4541,-1.4163,-1.3779,-1.4937,-1.4901,-1.444,-1.4349,-1.4409,-1.4096,-1.3799,-1.3547,-1.338,-1.3349,-1.3419,-1.3525,-1.4026,-1.4782,-1.5378,-1.6694,-1.7816,-1.8303,-1.839,-1.8662,-1.8123,-1.7639,-1.7529,-1.7555,-1.7541,-1.771,-1.8205,-1.8747,-1.9006,-1.9173,-1.8946,-1.8287,-1.7418,-1.7116,-1.7012,-1.6304,-1.6272,-1.6744,-1.6908,-1.6908,-1.6908,-1.6908,-1.6908,-1.6908,-1.6881,-1.6663,-1.6334,-1.6065,-1.6111,-1.6175,-1.5909,-1.5854,-1.5817,-1.5643,-1.5212,-1.4818,-1.4423,-1.4268,-1.446,-1.4295,-1.4269,-1.4254,-1.3922,-1.3672,-1.3521,-1.3274,-1.3009,-1.2999,-1.3011,-1.3203,-1.371,-1.3645,-1.3821,-1.3857,-1.3415,-1.3065,-1.2971,-1.2641,-1.2667,-1.2765,-1.2575,-1.2558,-1.2625,-1.245,-1.2168,-1.2076,-1.2076,-1.2076,-1.2076,-1.222,-1.2303,-1.2285,-1.225,-1.2285,-1.2266,-1.2239,-1.2275,-1.2634,-1.302,-1.3396,-1.38,-1.4203,-1.4414,-1.4506,-1.4595,-1.4636,-1.4754,-1.4902,-1.5029,-1.5147,-1.4964,-1.4729,-1.4377,-1.3987,-1.3607,-1.5901,-1.5643,-1.5477,-1.5394,-1.5269,-1.4594,-1.4265,-1.4126,-1.3639,-1.3496,-1.3639,-1.3707,-1.417,-1.4884,-1.5416,-1.6253,-1.786,-1.8404,-1.8454,-1.8411,-1.8148,-1.78,-1.7578,-1.7633,-1.7686,-1.7579,-1.8043,-1.837,-1.8656,-1.8728,-1.8337,-1.7735,-1.7132,-1.6838,-1.6584,-1.6272,-1.6466,-1.6755,-1.6917,-1.6908,-1.6908,-1.6908,-1.6908,-1.6908,-1.6908,-1.6762,-1.6486,-1.6248,-1.6239,-1.6294,-1.6111,-1.5835,-1.5799,-1.5661,-1.5423,-1.5102,-1.4726,-1.4531,-1.4506,-1.4497,-1.4425,-1.4328,-1.3984,-1.3673,-1.3329,-1.2963,-1.2696,-1.2733,-1.2733,-1.2856,-1.3221,-1.3461,-1.3608,-1.369,-1.3396,-1.3167,-1.3075,-1.2919,-1.2854,-1.2779,-1.2459,-1.2468,-1.2652,-1.2395,-1.2104,-1.2076,-1.2076,-1.2076,-1.2122,-1.245,-1.2542,-1.2514,-1.2505,-1.2514,-1.2478,-1.2404,-1.2459,-1.2634,-1.301,-1.3369,-1.3754,-1.4148,-1.4323,-1.4485,-1.4515,-1.4565,-1.4704,-1.4813,-1.4941,-1.4974,-1.482,-1.4682,-1.4494,-1.4029,-1.3536,-1.6574,-1.6494,-1.5711,-1.5394,-1.5428,-1.5184,-1.5115,-1.5206,-1.5038,-1.4929,-1.4427,-1.4399,-1.4199,-1.4318,-1.4995,-1.6117,-1.7211,-1.7612,-1.7775,-1.7903,-1.7819,-1.7557,-1.7307,-1.7631,-1.7496,-1.7451,-1.7969,-1.8243,-1.8228,-1.7976,-1.7731,-1.7393,-1.6918,-1.6618,-1.6915,-1.6407,-1.6739,-1.7197,-1.7073,-1.6908,-1.6908,-1.6908,-1.6908,-1.6908,-1.6899,-1.6872,-1.6762,-1.6606,-1.6652,-1.6661,-1.6413,-1.6239,-1.6129,-1.5524,-1.5239,-1.5001,-1.4763,-1.4485,-1.4485,-1.4485,-1.4425,-1.4208,-1.3755,-1.3294,-1.2969,-1.2573,-1.2264,-1.219,-1.2218,-1.2347,-1.2551,-1.245,-1.2422,-1.2707,-1.2983,-1.2882,-1.2854,-1.3112,-1.3066,-1.3038,-1.2799,-1.2744,-1.2817,-1.2432,-1.2076,-1.2076,-1.2094,-1.214,-1.2275,-1.2634,-1.2964,-1.2992,-1.2863,-1.2845,-1.2726,-1.2643,-1.267,-1.2753,-1.3029,-1.3369,-1.3736,-1.4102,-1.4378,-1.4485,-1.4485,-1.4515,-1.4595,-1.4704,-1.4823,-1.479,-1.4668,-1.4695,-1.4747,-1.4194,-1.3536,-1.7257,-1.7391,-1.6823,-1.6693,-1.6732,-1.5845,-1.5543,-1.5658,-1.5145,-1.4911,-1.4743,-1.4395,-1.4403,-1.4781,-1.5759,-1.679,-1.7624,-1.7605,-1.7478,-1.7396,-1.735,-1.7126,-1.6813,-1.6866,-1.6884,-1.7045,-1.726,-1.7412,-1.7573,-1.8091,-1.8241,-1.7415,-1.6995,-1.6678,-1.6918,-1.633,-1.6519,-1.6872,-1.6982,-1.6917,-1.6908,-1.6908,-1.6908,-1.6908,-1.6908,-1.6908,-1.6862,-1.6661,-1.6553,-1.6505,-1.6193,-1.5845,-1.5634,-1.5276,-1.5029,-1.4744,-1.4616,-1.4485,-1.4485,-1.4485,-1.4407,-1.4262,-1.3875,-1.3433,-1.287,-1.2374,-1.2076,-1.211,-1.2076,-1.2183,-1.2358,-1.2432,-1.2744,-1.2919,-1.2854,-1.2937,-1.301,-1.3103,-1.3222,-1.3176,-1.3194,-1.3194,-1.3185,-1.302,-1.2755,-1.2654,-1.27,-1.2764,-1.2819,-1.301,-1.3323,-1.358,-1.3396,-1.3213,-1.3038,-1.2909,-1.2937,-1.301,-1.3121,-1.3433,-1.3745,-1.4066,-1.4339,-1.4485,-1.4485,-1.4515,-1.4515,-1.4616,-1.4754,-1.4654,-1.4534,-1.4582,-1.4638,-1.4235,-1.376,-1.7586,-1.7684,-1.7449,-1.7501,-1.761,-1.6341,-1.6015,-1.6156,-1.5528,-1.5196,-1.4965,-1.4425,-1.4421,-1.5148,-1.5866,-1.6512,-1.7057,-1.7525,-1.7255,-1.6924,-1.681,-1.6687,-1.6448,-1.6325,-1.6325,-1.6289,-1.6793,-1.698,-1.7402,-1.7957,-1.8239,-1.7359,-1.7171,-1.6893,-1.6573,-1.6507,-1.6687,-1.6875,-1.6927,-1.6908,-1.6908,-1.6908,-1.6908,-1.6908,-1.6908,-1.6908,-1.6844,-1.6508,-1.6315,-1.6233,-1.5817,-1.5441,-1.5212,-1.501,-1.4808,-1.4607,-1.4485,-1.4485,-1.4485,-1.4476,-1.443,-1.424,-1.3827,-1.3157,-1.2625,-1.2239,-1.2076,-1.2076,-1.2076,-1.2266,-1.245,-1.2496,-1.2643,-1.2882,-1.3066,-1.3186,-1.3323,-1.3396,-1.3598,-1.3772,-1.3763,-1.3717,-1.369,-1.3653,-1.3497,-1.3314,-1.3305,-1.336,-1.3406,-1.3433,-1.3662,-1.3975,-1.3919,-1.3736,-1.3607,-1.3433,-1.3369,-1.3268,-1.3369,-1.3525,-1.3837,-1.4139,-1.4412,-1.4485,-1.4485,-1.4485,-1.4515,-1.4586,-1.4647,-1.4613,-1.4578,-1.4524,-1.4402,-1.4091,-1.4031,-1.7317,-1.6957,-1.6923,-1.6932,-1.6974,-1.653,-1.6527,-1.6712,-1.6726,-1.6336,-1.5591,-1.4645,-1.3776,-1.3837,-1.4647,-1.5144,-1.4875,-1.6655,-1.6561,-1.6198,-1.6164,-1.6435,-1.6297,-1.6184,-1.6175,-1.6272,-1.6561,-1.6764,-1.7085,-1.7761,-1.7513,-1.6759,-1.7209,-1.709,-1.6969,-1.6982,-1.69,-1.6963,-1.6908,-1.6908,-1.6908,-1.6908,-1.6908,-1.6899,-1.6899,-1.6908,-1.6881,-1.6468,-1.6142,-1.6147,-1.5579,-1.5166,-1.4983,-1.4772,-1.4588,-1.4513,-1.4485,-1.4485,-1.4485,-1.4458,-1.4286,-1.3846,-1.336,-1.2817,-1.2303,-1.2174,-1.2076,-1.2076,-1.2076,-1.2094,-1.2174,-1.2159,-1.2376,-1.2615,-1.2919,-1.3102,-1.3304,-1.3681,-1.3882,-1.4258,-1.4313,-1.4167,-1.413,-1.4066,-1.3937,-1.3736,-1.3671,-1.3717,-1.3809,-1.3873,-1.4057,-1.4268,-1.4378,-1.4311,-1.4293,-1.4121,-1.3736,-1.3644,-1.3727,-1.38,-1.3937,-1.424,-1.4485,-1.4485,-1.4485,-1.4485,-1.4485,-1.4536,-1.4577,-1.4627,-1.4621,-1.4548,-1.4646,-1.4553,-1.4554,-1.5429,-1.5827,-1.5606,-1.603,-1.6838,-1.6268,-1.6216,-1.6493,-1.6462,-1.5802,-1.4854,-1.4315,-1.3711,-1.3368,-1.3448,-1.4081,-1.45,-1.5588,-1.5785,-1.6071,-1.6338,-1.6501,-1.6396,-1.6143,-1.6171,-1.6076,-1.6309,-1.6491,-1.6596,-1.7488,-1.7485,-1.7272,-1.7386,-1.7628,-1.763,-1.7252,-1.704,-1.6982,-1.6908,-1.6908,-1.6908,-1.6908,-1.6908,-1.6899,-1.6606,-1.6569,-1.6477,-1.6129,-1.5845,-1.557,-1.5258,-1.5019,-1.4808,-1.4588,-1.4524,-1.4485,-1.4485,-1.4485,-1.4467,-1.4421,-1.4212,-1.3626,-1.3195,-1.279,-1.2174,-1.211,-1.2076,-1.2076,-1.2122,-1.2186,-1.2138,-1.2138,-1.2229,-1.2422,-1.2652,-1.2909,-1.3295,-1.3718,-1.3984,-1.4249,-1.4405,-1.4394,-1.4412,-1.443,-1.4275,-1.4119,-1.4102,-1.4066,-1.4139,-1.4194,-1.4323,-1.4396,-1.4458,-1.4485,-1.4458,-1.4249,-1.3992,-1.4029,-1.4066,-1.4093,-1.4139,-1.4295,-1.4485,-1.4485,-1.4485,-1.4485,-1.4485,-1.4485,-1.4506,-1.4556,-1.4586,-1.4588,-1.4715,-1.4902,-1.4906,-1.4074,-1.4628,-1.4387,-1.515,-1.6371,-1.576,-1.5711,-1.5988,-1.5579,-1.4796,-1.3673,-1.3774,-1.3332,-1.2732,-1.3035,-1.3126,-1.3836,-1.4683,-1.5096,-1.5304,-1.5494,-1.5875,-1.5844,-1.574,-1.5588,-1.5679,-1.6129,-1.6381,-1.6407,-1.7268,-1.7397,-1.7345,-1.7448,-1.7617,-1.7579,-1.7276,-1.6908,-1.6908,-1.6908,-1.6908,-1.6908,-1.6908,-1.6908,-1.6853,-1.6551,-1.6376,-1.6202,-1.5854,-1.5432,-1.5212,-1.4974,-1.4751,-1.4595,-1.4485,-1.4485,-1.4485,-1.4485,-1.4485,-1.4449,-1.4185,-1.3919,-1.3415,-1.2956,-1.2597,-1.2294,-1.2202,-1.234,-1.234,-1.2369,-1.2424,-1.2422,-1.2459,-1.2551,-1.279,-1.2643,-1.2863,-1.3387,-1.3828,-1.4003,-1.4194,-1.4341,-1.4485,-1.4485,-1.4485,-1.443,-1.4311,-1.4293,-1.4266,-1.435,-1.4396,-1.4433,-1.4458,-1.4476,-1.4485,-1.4467,-1.435,-1.4231,-1.4268,-1.4295,-1.4304,-1.4368,-1.4458,-1.4485,-1.4485,-1.4485,-1.4485,-1.4485,-1.4485,-1.4485,-1.4515,-1.4545,-1.4565,-1.4666,-1.4804,-1.4872,-1.3569,-1.3557,-1.3542,-1.4397,-1.5606,-1.4955,-1.5034,-1.543,-1.4461,-1.36,-1.3018,-1.3011,-1.2469,-1.1974,-1.2604,-1.2732,-1.27,-1.3956,-1.4511,-1.4101,-1.4526,-1.4415,-1.4592,-1.4783,-1.5199,-1.5241,-1.5823,-1.6345,-1.6317,-1.7059,-1.7277,-1.7197,-1.7199,-1.7218,-1.7189,-1.7014,-1.6917,-1.6908,-1.6874,-1.6908,-1.6908,-1.6908,-1.6899,-1.6716,-1.6413,-1.6193,-1.5936,-1.5419,-1.5053,-1.4974,-1.4705,-1.4558,-1.4504,-1.4485,-1.4485,-1.4485,-1.4485,-1.4485,-1.4449,-1.3782,-1.3488,-1.3369,-1.3075,-1.2569,-1.234,-1.2441,-1.2689,-1.2707,-1.2928,-1.3112,-1.3102,-1.2964,-1.302,-1.2868,-1.2696,-1.2699,-1.3155,-1.3601,-1.3724,-1.4008,-1.4298,-1.4485,-1.4485,-1.4485,-1.4485,-1.4458,-1.4476,-1.4485,-1.4485,-1.4485,-1.4485,-1.4485,-1.4485,-1.4485,-1.4485,-1.4485,-1.4449,-1.4506,-1.4497,-1.446,-1.4451,-1.4467,-1.4485,-1.4485,-1.4485,-1.4485,-1.4485,-1.4485,-1.4485,-1.4485,-1.4485,-1.4536,-1.4636,-1.4734,-1.4831,-1.2006,-1.2703,-1.2703,-1.3317,-1.4158,-1.3998,-1.4042,-1.4186,-1.3825,-1.3237,-1.2652,-1.2645,-1.2168,-1.167,-1.1621,-1.1866,-1.2014,-1.2738,-1.3267,-1.3505,-1.3895,-1.4187,-1.4327,-1.4569,-1.5012,-1.5118,-1.5721,-1.6317,-1.639,-1.6991,-1.7093,-1.7015,-1.6859,-1.6728,-1.6661,-1.6622,-1.6682,-1.6716,-1.6795,-1.6908,-1.6908,-1.6899,-1.6798,-1.656,-1.6166,-1.5854,-1.5593,-1.4972,-1.4669,-1.4693,-1.4444,-1.4366,-1.4387,-1.4387,-1.4455,-1.4387,-1.4357,-1.4366,-1.4287,-1.3934,-1.3736,-1.3608,-1.3387,-1.302,-1.3001,-1.302,-1.3102,-1.3103,-1.3277,-1.3378,-1.324,-1.3176,-1.3123,-1.2605,-1.2388,-1.231,-1.2594,-1.2981,-1.329,-1.3708,-1.407,-1.4327,-1.4426,-1.4455,-1.4455,-1.4426,-1.4417,-1.4485,-1.4485,-1.4485,-1.4485,-1.4485,-1.4485,-1.4485,-1.4485,-1.4485,-1.4485,-1.4485,-1.4485,-1.4467,-1.4476,-1.4485,-1.4485,-1.4485,-1.4485,-1.4485,-1.4485,-1.4485,-1.4485,-1.4485,-1.4485,-1.4536,-1.4636,-1.4701,-1.4763,-1.1005,-1.1744,-1.1855,-1.2187,-1.2689,-1.2952,-1.2952,-1.2799,-1.3018,-1.2696,-1.2033,-1.2027,-1.1768,-1.1223,-1.1135,-1.1262,-1.1536,-1.198,-1.2518,-1.2818,-1.3106,-1.3156,-1.3484,-1.416,-1.4328,-1.4673,-1.5406,-1.6048,-1.6602,-1.6935,-1.703,-1.6879,-1.6523,-1.6303,-1.6237,-1.6351,-1.6533,-1.6612,-1.6716,-1.683,-1.6864,-1.6881,-1.6789,-1.6443,-1.6032,-1.5542,-1.5164,-1.4698,-1.4237,-1.4267,-1.4267,-1.4198,-1.4228,-1.4258,-1.4297,-1.4207,-1.4207,-1.4237,-1.4227,-1.4166,-1.4054,-1.4075,-1.3882,-1.3571,-1.3369,-1.3341,-1.3378,-1.3432,-1.3514,-1.3587,-1.3596,-1.3569,-1.3247,-1.2789,-1.2501,-1.241,-1.2295,-1.2692,-1.3,-1.3442,-1.3821,-1.4079,-1.4207,-1.4357,-1.4387,-1.4357,-1.4327,-1.4357,-1.4396,-1.4426,-1.4384,-1.436,-1.4441,-1.4471,-1.4492,-1.4485,-1.4485,-1.4485,-1.4501,-1.4496,-1.4485,-1.4485,-1.4485,-1.4485,-1.4485,-1.4485,-1.4485,-1.4485,-1.4485,-1.4485,-1.4485,-1.4536,-1.4636,-1.4708,-1.4768,-1.0602,-1.0795,-1.1013,-1.1106,-1.1236,-1.1957,-1.1829,-1.1254,-1.1929,-1.1848,-1.1124,-1.1199,-1.1156,-1.1124,-1.1099,-1.1244,-1.1401,-1.1313,-1.1558,-1.1711,-1.1866,-1.1825,-1.2068,-1.2583,-1.3346,-1.4214,-1.4993,-1.5836,-1.6716,-1.6978,-1.6995,-1.6773,-1.6227,-1.5996,-1.599,-1.6105,-1.6333,-1.6438,-1.6542,-1.6656,-1.6735,-1.6795,-1.6669,-1.6362,-1.5972,-1.5508,-1.5083,-1.4595,-1.4173,-1.4028,-1.401,-1.4001,-1.401,-1.401,-1.401,-1.401,-1.4019,-1.4139,-1.4189,-1.4147,-1.4255,-1.4196,-1.377,-1.347,-1.3451,-1.3584,-1.3627,-1.3715,-1.3843,-1.4033,-1.415,-1.3961,-1.3731,-1.3307,-1.2919,-1.2668,-1.2393,-1.2525,-1.2799,-1.3169,-1.3571,-1.3761,-1.364,-1.3761,-1.401,-1.3731,-1.3662,-1.3821,-1.392,-1.4178,-1.4153,-1.4118,-1.423,-1.4445,-1.4493,-1.4599,-1.4496,-1.4468,-1.4486,-1.4513,-1.4499,-1.4439,-1.4511,-1.452,-1.4501,-1.4485,-1.4485,-1.4485,-1.4485,-1.4485,-1.4494,-1.4515,-1.4565,-1.4703,-1.4811,-1.01,-1.0314,-1.0485,-1.0629,-1.0858,-1.1088,-1.1114,-1.1136,-1.1366,-1.1169,-1.0803,-1.1033,-1.0985,-1.0815,-1.1021,-1.1148,-1.1178,-1.1172,-1.1202,-1.122,-1.122,-1.125,-1.1595,-1.2144,-1.2736,-1.3402,-1.4291,-1.5255,-1.577,-1.6313,-1.6679,-1.645,-1.6045,-1.5857,-1.5805,-1.5867,-1.6,-1.6167,-1.6228,-1.6447,-1.6482,-1.6517,-1.64,-1.6113,-1.5829,-1.5412,-1.492,-1.4484,-1.4114,-1.4012,-1.3899,-1.3851,-1.3851,-1.395,-1.398,-1.386,-1.392,-1.401,-1.398,-1.4049,-1.4139,-1.4169,-1.3882,-1.3958,-1.3931,-1.3884,-1.3838,-1.3901,-1.3966,-1.4073,-1.4139,-1.4022,-1.3785,-1.3412,-1.2955,-1.25,-1.2151,-1.1942,-1.222,-1.2689,-1.3117,-1.3341,-1.318,-1.3321,-1.3511,-1.31,-1.2956,-1.3155,-1.3388,-1.3666,-1.3809,-1.3768,-1.3953,-1.4165,-1.4612,-1.4812,-1.4594,-1.448,-1.4381,-1.4244,-1.4078,-1.4088,-1.4373,-1.45,-1.4484,-1.4487,-1.4485,-1.4485,-1.4494,-1.4494,-1.4533,-1.4494,-1.4513,-1.4653,-1.4928,-0.9892,-0.9991,-1.0229,-1.0394,-1.0509,-1.0533,-1.0629,-1.0755,-1.0767,-1.0665,-1.0563,-1.0719,-1.0773,-1.0731,-1.0882,-1.1009,-1.1123,-1.1129,-1.1148,-1.1148,-1.1117,-1.1135,-1.1459,-1.1828,-1.2293,-1.2835,-1.3489,-1.4334,-1.5017,-1.571,-1.6165,-1.6373,-1.5985,-1.5627,-1.539,-1.524,-1.5133,-1.5374,-1.5665,-1.6123,-1.6237,-1.6237,-1.613,-1.5883,-1.5689,-1.5215,-1.4892,-1.4478,-1.4035,-1.3965,-1.3848,-1.3662,-1.3662,-1.3761,-1.3791,-1.37,-1.3731,-1.3791,-1.383,-1.389,-1.3941,-1.3941,-1.3911,-1.3953,-1.3974,-1.3909,-1.3897,-1.3893,-1.3902,-1.3929,-1.3989,-1.398,-1.3662,-1.3351,-1.2765,-1.2182,-1.1756,-1.1327,-1.1646,-1.2151,-1.2514,-1.2808,-1.2915,-1.305,-1.2956,-1.2489,-1.239,-1.2585,-1.282,-1.3104,-1.3262,-1.3304,-1.358,-1.3874,-1.4335,-1.4619,-1.4317,-1.4045,-1.3915,-1.3776,-1.3602,-1.3673,-1.3934,-1.4227,-1.4471,-1.4478,-1.4509,-1.4508,-1.4533,-1.4588,-1.468,-1.4698,-1.4662,-1.4588,-1.4955,-0.9754,-0.9777,-1.0118,-1.025,-1.0262,-1.0262,-1.0274,-1.0256,-1.025,-1.025,-1.0262,-1.0304,-1.0436,-1.0521,-1.0671,-1.087,-1.1003,-1.1069,-1.1117,-1.1117,-1.1117,-1.1117,-1.1117,-1.1204,-1.1752,-1.2318,-1.2893,-1.3535,-1.4715,-1.5215,-1.548,-1.6122,-1.5654,-1.5106,-1.4581,-1.4545,-1.4366,-1.4222,-1.4939,-1.5586,-1.5912,-1.6088,-1.6167,-1.5991,-1.5545,-1.5017,-1.4967,-1.4463,-1.3716,-1.3836,-1.3768,-1.3528,-1.3541,-1.3541,-1.3541,-1.3541,-1.3571,-1.364,-1.37,-1.3731,-1.37,-1.3731,-1.3791,-1.367,-1.361,-1.3731,-1.3761,-1.3761,-1.3739,-1.3739,-1.3799,-1.386,-1.367,-1.3329,-1.2842,-1.2189,-1.1577,-1.1307,-1.141,-1.1966,-1.2561,-1.2688,-1.1994,-1.2042,-1.229,-1.1847,-1.17,-1.1914,-1.2227,-1.2476,-1.2685,-1.2821,-1.3187,-1.3514,-1.3773,-1.3962,-1.3751,-1.3563,-1.3512,-1.3337,-1.3157,-1.3253,-1.3445,-1.3876,-1.4356,-1.4504,-1.4539,-1.4661,-1.4802,-1.49,-1.4964,-1.4937,-1.4873,-1.4818,-1.5019,-0.9298,-0.9452,-0.9846,-0.9997,-0.9997,-0.9997,-0.9997,-0.9973,-0.9781,-0.9829,-1.0003,-1.0178,-1.0214,-1.0178,-1.0521,-1.0755,-1.084,-1.1039,-1.1105,-1.1117,-1.1117,-1.1117,-1.1117,-1.1117,-1.1353,-1.1608,-1.2116,-1.2847,-1.3748,-1.4111,-1.4137,-1.4229,-1.4194,-1.4078,-1.3781,-1.3745,-1.36,-1.3237,-1.3673,-1.4442,-1.4838,-1.5007,-1.5081,-1.529,-1.5111,-1.4989,-1.4818,-1.4373,-1.405,-1.4024,-1.3708,-1.3545,-1.348,-1.348,-1.348,-1.348,-1.348,-1.3541,-1.358,-1.358,-1.348,-1.329,-1.323,-1.3139,-1.3169,-1.3411,-1.3541,-1.3571,-1.3541,-1.3511,-1.3571,-1.364,-1.367,-1.3299,-1.2942,-1.2197,-1.1505,-1.1432,-1.1372,-1.1851,-1.2523,-1.2176,-1.1422,-1.1227,-1.1397,-1.1273,-1.0992,-1.1044,-1.1448,-1.1757,-1.2113,-1.2335,-1.2814,-1.3157,-1.3354,-1.3419,-1.3272,-1.3217,-1.3212,-1.2999,-1.2735,-1.3093,-1.3449,-1.3882,-1.4246,-1.4454,-1.4761,-1.5118,-1.5242,-1.5318,-1.5368,-1.5395,-1.5441,-1.5414,-1.5487,-0.9113,-0.9182,-0.9553,-0.9733,-0.9733,-0.9733,-0.9733,-0.967,-0.9544,-0.9594,-0.97,-0.9877,-0.9925,-0.9925,-1.034,-1.0617,-1.0749,-1.0997,-1.1087,-1.1117,-1.1117,-1.1117,-1.1117,-1.1105,-1.1161,-1.1335,-1.1929,-1.2592,-1.2952,-1.3426,-1.3571,-1.3419,-1.3419,-1.3259,-1.3047,-1.2945,-1.2734,-1.2395,-1.2478,-1.2853,-1.3581,-1.406,-1.4481,-1.4759,-1.4833,-1.4797,-1.4699,-1.4333,-1.4153,-1.399,-1.3716,-1.3554,-1.348,-1.348,-1.348,-1.348,-1.348,-1.348,-1.348,-1.342,-1.329,-1.3139,-1.3169,-1.326,-1.3064,-1.3307,-1.3511,-1.348,-1.3078,-1.2986,-1.326,-1.3381,-1.3511,-1.3359,-1.2975,-1.2383,-1.2,-1.1808,-1.1598,-1.153,-1.1984,-1.2002,-1.1423,-1.111,-1.1262,-1.1372,-1.0981,-1.1021,-1.1263,-1.1363,-1.1628,-1.1953,-1.2458,-1.2684,-1.2776,-1.2847,-1.2862,-1.2861,-1.2869,-1.2612,-1.2423,-1.3015,-1.3538,-1.3581,-1.3896,-1.4579,-1.4932,-1.5289,-1.5673,-1.5794,-1.5854,-1.5881,-1.5927,-1.5964,-1.6028,-0.9088,-0.9001,-0.9344,-0.9484,-0.9478,-0.9484,-0.949,-0.949,-0.9478,-0.9478,-0.9534,-0.9514,-0.9672,-0.9919,-1.0226,-1.046,-1.0737,-1.0997,-1.1093,-1.1117,-1.1117,-1.1117,-1.1093,-1.1063,-1.1027,-1.1163,-1.1641,-1.192,-1.215,-1.2586,-1.2872,-1.3157,-1.3019,-1.2772,-1.2304,-1.2002,-1.1734,-1.1381,-1.1271,-1.1371,-1.2256,-1.337,-1.3882,-1.4153,-1.4363,-1.4591,-1.4519,-1.4373,-1.4119,-1.3947,-1.3711,-1.3549,-1.348,-1.348,-1.348,-1.348,-1.348,-1.348,-1.348,-1.348,-1.339,-1.3321,-1.345,-1.3329,-1.3103,-1.3094,-1.3268,-1.3078,-1.2642,-1.2704,-1.2978,-1.3056,-1.3216,-1.308,-1.2677,-1.2398,-1.2168,-1.2,-1.1695,-1.141,-1.1563,-1.1725,-1.1497,-1.1223,-1.1229,-1.1309,-1.1363,-1.1524,-1.1598,-1.1529,-1.1633,-1.187,-1.2187,-1.2311,-1.2261,-1.2321,-1.2375,-1.2338,-1.2318,-1.2131,-1.2161,-1.2602,-1.2834,-1.2761,-1.325,-1.4332,-1.5001,-1.5408,-1.5753,-1.6187,-1.6312,-1.6321,-1.6294,-1.6349,-1.6505,-0.8806,-0.9094,-0.9364,-0.9472,-0.9466,-0.9472,-0.9478,-0.9478,-0.9478,-0.9478,-0.949,-0.9534,-0.966,-0.9931,-1.0412,-1.0653,-1.0701,-1.0954,-1.1087,-1.1117,-1.1117,-1.1117,-1.1033,-1.087,-1.081,-1.0912,-1.1058,-1.1101,-1.1519,-1.1656,-1.165,-1.1773,-1.1561,-1.1352,-1.12,-1.103,-1.0972,-1.0766,-1.0658,-1.0727,-1.1115,-1.2103,-1.3059,-1.3464,-1.3879,-1.4077,-1.417,-1.4136,-1.4101,-1.3982,-1.3768,-1.3566,-1.348,-1.345,-1.342,-1.342,-1.342,-1.342,-1.342,-1.345,-1.3381,-1.307,-1.31,-1.3086,-1.2842,-1.262,-1.2612,-1.2374,-1.222,-1.2604,-1.2795,-1.2567,-1.2583,-1.2064,-1.1614,-1.1668,-1.161,-1.1654,-1.1594,-1.1615,-1.1793,-1.1762,-1.1583,-1.1423,-1.141,-1.1416,-1.1176,-1.1309,-1.1574,-1.1633,-1.1658,-1.1795,-1.199,-1.1935,-1.1855,-1.1892,-1.1916,-1.1892,-1.1929,-1.204,-1.2083,-1.2083,-1.2211,-1.2345,-1.3208,-1.4375,-1.4942,-1.5463,-1.6027,-1.6453,-1.6688,-1.6762,-1.6697,-1.6661,-1.6734]},{"header":{"parameterUnit":"m.s-1","parameterCategory":1,"la1":31.0,"la2":29.5877,"lo1":-88.7671,"lo2":-86.6584,"dy":0.0162,"dx":0.0185,"nx":115,"ny":88,"refTime":"2023-09-25T00:00:00:Z","depth":0,"parameterNumber":3,"parameterNumberName":"V-component_of_WINDS"},"data":[0.0,0.0,0.0,0.0,0.0,0.0,0.0,0.0,0.0,0.0,0.0,0.0,0.0,0.0,0.0,0.0,0.0,0.0,0.0,0.0,0.0,0.0,0.0,0.0,0.0,0.0,0.0,0.0,0.0,0.0,0.0,0.0,0.0,0.0,0.0,0.0,0.0,0.0,0.0,0.0,0.0,0.0,0.0,0.0,0.0,0.0,0.0,0.0,0.0,0.0,0.0,0.0,0.0,0.0,0.0,0.0,0.0,0.0,0.0,0.0,0.0,0.0,0.0,0.0,0.0,0.0,0.0,0.0,0.0,0.0,0.0,0.0,0.0,0.0,0.0,0.0,0.0,0.0,0.0,0.0,0.0,0.0,0.0,0.0,0.0,0.0,0.0,0.0,0.0,0.0,0.0,0.0,0.0,0.0,0.0,0.0,0.0,0.0,0.0,0.0,0.0,0.0,0.0,0.0,0.0,0.0,0.0,0.0,0.0,0.0,0.0,0.0,0.0,0.0,0.0,0.0,0.0,0.0,0.0,0.0,0.0,0.0,0.0,0.0,0.0,0.0,0.0,0.0,0.0,0.0,0.0,0.0,0.0,0.0,0.0,0.0,0.0,0.0,0.0,0.0,0.0,0.0,0.0,0.0,0.0,0.0,0.0,0.0,0.0,0.0,0.0,0.0,0.0,0.0,0.0,0.0,0.0,0.0,0.0,0.0,0.0,0.0,0.0,0.0,0.0,0.0,0.0,0.0,0.0,0.0,0.0,0.0,0.0,0.0,0.0,0.0,0.0,0.0,0.0,0.0,0.0,0.0,0.0,0.0,0.0,0.0,0.0,0.0,0.0,0.0,0.0,0.0,0.0,0.0,0.0,0.0,0.0,0.0,0.0,0.0,0.0,0.0,0.0,0.0,0.0,0.0,0.0,0.0,0.0,0.0,0.0,0.0,0.0,0.0,0.0,0.0,0.0,0.0,0.0,0.0,0.0,0.0,0.0,0.0,0.0,0.0,0.0,0.0,0.0,0.0,0.0,0.0,0.0,0.0,0.0,0.0,0.0,0.0,0.0,0.0,0.0,0.0,0.0,0.0,0.0,0.0,0.0,0.0,0.0,0.0,0.0,0.0,0.0,0.0,0.0,0.0,0.0,0.0,0.0,0.0,0.0,0.0,0.0,0.0,0.0,0.0,0.0,0.0,0.0,0.0,0.0,0.0,0.0,0.0,0.0,0.0,0.0,0.0,0.0,0.0,0.0,0.0,0.0,0.0,0.0,0.0,0.0,0.0,0.0,0.0,0.0,0.0,0.0,0.0,0.0,0.0,0.0,0.0,0.0,0.0,0.0,0.0,0.0,0.0,0.0,0.0,0.0,0.0,0.0,0.0,0.0,0.0,0.0,0.0,0.0,0.0,0.0,0.0,0.0,0.0,0.0,0.0,0.0,0.0,0.0,0.0,0.0,0.0,0.0,0.0,0.0,0.0,0.0,0.0,0.0,0.0,0.0,0.0,0.0,0.0,0.0,0.0,0.0,0.0,0.0,0.0,0.0,0.0,0.0,0.0,0.0,0.0,0.0,0.0,0.0,0.0,0.0,0.0,0.0,0.0,0.0,0.0,0.0,0.0,0.0,0.0,0.0,0.0,0.0,0.0,0.0,0.0,0.0,0.0,0.0,0.0,0.0,0.0,0.0,0.0,0.0,0.0,0.0,0.0,0.0,0.0,0.0,0.0,0.0,0.0,0.0,0.0,0.0,0.0,0.0,0.0,0.0,0.0,0.0,0.0,0.0,0.0,0.0,0.0,0.0,0.0,0.0,0.0,0.0,0.0,0.0,0.0,0.0,0.0,0.0,0.0,0.0,0.0,0.0,0.0,0.0,0.0,0.0,0.0,0.0,0.0,0.0,0.0,0.0,0.0,0.0,0.0,0.0,0.0,0.0,0.0,0.0,0.0,0.0,0.0,0.0,0.0,0.0,0.0,0.0,0.0,0.0,0.0,0.0,0.0,0.0,0.0,0.0,0.0,0.0,0.0,0.0,0.0,0.0,0.0,0.0,0.0,0.0,0.0,0.0,0.0,0.0,0.0,0.0,0.0,0.0,0.0,0.0,0.0,0.0,0.0,0.0,0.0,0.0,0.0,0.0,0.0,0.0,0.0,0.0,0.0,0.0,0.0,0.0,0.0,0.0,0.0,0.0,0.0,0.0,0.0,0.0,0.0,0.0,0.0,0.0,0.0,0.0,0.0,0.0,0.0,0.0,0.0,0.0,0.0,0.0,0.0,0.0,0.0,0.0,0.0,0.0,0.0,0.0,0.0,0.0,0.0,0.0,0.0,0.0,0.0,0.0,0.0,0.0,0.0,0.0,0.0,0.0,0.0,0.0,0.0,0.0,0.0,0.0,0.0,0.0,0.0,0.0,0.0,0.0,0.0,0.0,0.0,0.0,0.0,0.0,0.0,0.0,0.0,0.0,0.0,0.0,0.0,0.0,0.0,0.0,0.0,0.0,0.0,0.0,0.0,0.0,0.0,0.0,0.0,0.0,0.0,0.0,0.0,0.0,0.0,0.0,0.0,0.0,0.0,0.0,0.0,0.0,0.0,0.0,0.0,0.0,0.0,0.0,0.0,0.0,0.0,0.0,0.0,0.0,0.0,0.0,0.0,0.0,0.0,0.0,0.0,0.0,0.0,0.0,0.0,0.0,0.0,0.0,0.0,0.0,0.0,0.0,0.0,0.0,0.0,0.0,0.0,0.0,0.0,0.0,0.0,0.0,0.0,0.0,0.0,0.0,0.0,0.0,0.0,0.0,0.0,0.0,0.0,0.0,0.0,0.0,0.0,0.0,0.0,0.0,0.0,0.0,0.0,0.0,0.0,0.0,0.0,0.0,0.0,0.0,0.0,0.0,0.0,0.0,0.0,0.0,0.0,0.0,0.0,0.0,0.0,0.0,0.0,0.0,0.0,0.0,0.0,0.0,0.0,0.0,0.0,0.0,0.0,0.0,0.0,0.0,0.0,0.0,0.0,0.0,0.0,0.0,0.0,0.0,0.0,0.0,0.0,0.0,0.0,0.0,0.0,0.0,0.0,0.0,0.0,0.0,0.0,0.0,0.0,0.0,0.0,0.0,0.0,0.0,0.0,0.0,0.0,0.0,0.0,0.0,0.0,0.0,0.0,0.0,0.0,0.0,0.0,0.0,0.0,0.0,0.0,0.0,0.0,0.0,0.0,0.0,0.0,0.0,0.0,0.0,0.0,0.0,0.0,0.0,0.0,0.0,0.0,0.0,0.0,0.0,0.0,0.0,0.0,0.0,0.0,0.0,0.0,0.0,0.0,0.0,0.0,0.0,0.0,0.0,0.0,0.0,0.0,0.0,0.0,0.0,0.0,0.0,0.0,0.0,0.0,0.0,0.0,0.0,0.0,0.0,0.0,0.0,0.0,0.0,0.0,0.0,0.0,0.0,0.0,0.0,0.0,0.0,0.0,0.0,0.0,0.0,0.0,0.0,0.0,0.0,0.0,0.0,0.0,0.0,0.0,0.0,0.0,0.0,0.0,0.0,0.0,0.0,0.0,0.0,0.0,0.0,0.0,0.0,0.0,0.0,0.0,0.0,0.0,0.0,0.0,0.0,0.0,0.0,0.0,0.0,0.0,0.0,0.0,0.0,0.0,0.0,0.0,0.0,0.0,0.0,0.0,0.0,0.0,0.0,0.0,0.0,0.0,0.0,0.0,0.0,0.0,0.0,0.0,0.0,0.0,0.0,0.0,0.0,0.0,0.0,0.0,0.0,0.0,0.0,0.0,0.0,0.0,0.0,0.0,0.0,0.0,0.0,0.0,0.0,0.0,0.0,0.0,0.0,0.0,0.0,0.0,0.0,0.0,0.0,0.0,0.0,0.0,0.0,0.0,0.0,0.0,0.0,0.0,0.0,0.0,0.0,0.0,0.0,0.0,0.0,0.0,0.0,0.0,0.0,0.0,0.0,0.0,0.0,0.0,0.0,0.0,0.0,0.0,0.0,0.0,0.0,0.0,0.0,0.0,0.0,0.0,0.0,0.0,0.0,0.0,0.0,0.0,0.0,0.0,0.0,0.0,0.0,0.0,0.0,0.0,0.0,0.0,0.0,0.0,0.0,0.0,0.0,0.0,0.0,0.0,0.0,0.0,0.0,0.0,0.0,0.0,0.0,0.0,0.0,0.0,0.0,0.0,0.0,0.0,0.0,0.0,0.0,0.0,0.0,0.0,0.0,0.0,0.0,0.0,0.0,0.0,0.0,0.0,0.0,0.0,2.1422,0.0,0.0,0.0,0.0,0.0,0.0,0.0,0.0,0.0,0.0,0.0,0.0,0.0,0.0,0.0,0.0,0.0,0.0,0.0,0.0,0.0,0.0,0.0,0.0,0.0,0.0,0.0,0.0,0.0,0.0,0.0,0.0,0.0,0.0,0.0,0.0,0.0,0.0,0.0,0.0,0.0,0.0,0.0,0.0,0.0,0.0,0.0,0.0,0.0,0.0,0.0,0.0,0.0,0.0,0.0,0.0,0.0,0.0,0.0,0.0,0.0,0.0,0.0,0.0,0.0,0.0,0.0,0.0,0.0,0.0,0.0,0.0,0.0,0.0,0.0,0.0,0.0,0.0,0.0,0.0,0.0,0.0,0.0,0.0,0.0,0.0,0.0,0.0,0.0,0.0,0.0,0.0,0.0,0.0,0.0,0.0,0.0,0.0,0.0,0.0,0.0,0.0,0.0,0.0,0.0,0.0,0.0,0.0,0.0,0.0,2.4486,2.3167,2.3494,2.2934,2.1478,0.0,0.0,0.0,0.0,0.0,0.0,0.0,0.0,0.0,0.0,0.0,0.0,0.0,0.0,0.0,0.0,0.0,0.0,0.0,0.0,0.0,0.0,0.0,0.0,0.0,0.0,0.0,0.0,0.0,0.0,0.0,0.0,0.0,0.0,0.0,0.0,0.0,0.0,0.0,0.0,0.0,0.0,0.0,0.0,0.0,0.0,0.0,0.0,0.0,0.0,0.0,0.0,0.0,0.0,0.0,0.0,0.0,0.0,0.0,0.0,0.0,0.0,0.0,0.0,0.0,0.0,0.0,0.0,0.0,0.0,0.0,0.0,0.0,0.0,0.0,0.0,0.0,0.0,0.0,0.0,0.0,0.0,0.0,0.0,0.0,0.0,0.0,0.0,0.0,0.0,0.0,0.0,0.0,0.0,0.0,0.0,0.0,0.0,0.0,0.0,0.0,0.0,0.0,0.0,0.0,0.0,0.0,0.0,0.0,0.0,0.0,0.0,2.4117,2.3568,2.2611,0.0,0.0,0.0,0.0,0.0,0.0,0.0,0.0,0.0,0.0,0.0,0.0,0.0,0.0,0.0,0.0,0.0,0.0,0.0,0.0,0.0,0.0,0.0,0.0,0.0,0.0,0.0,0.0,0.0,0.0,0.0,0.0,0.0,0.0,0.0,0.0,0.0,0.0,0.0,0.0,0.0,0.0,0.0,0.0,0.0,0.0,0.0,0.0,0.0,0.0,0.0,0.0,0.0,0.0,0.0,0.0,0.0,0.0,0.0,0.0,0.0,0.0,0.0,0.0,0.0,0.0,0.0,0.0,0.0,0.0,0.0,0.0,0.0,0.0,0.0,0.0,0.0,0.0,0.0,0.0,0.0,0.0,0.0,0.0,0.0,0.0,0.0,0.0,0.0,0.0,0.0,0.0,0.0,0.0,0.0,0.0,0.0,0.0,0.0,0.0,0.0,0.0,0.0,0.0,0.0,0.0,0.0,0.0,0.0,0.0,2.4914,2.6957,2.6594,0.0,2.4698,0.0,0.0,0.0,0.0,0.0,0.0,0.0,0.0,0.0,0.0,0.0,0.0,0.0,0.0,0.0,0.0,0.0,0.0,0.0,0.0,0.0,0.0,0.0,0.0,0.0,0.0,0.0,0.0,0.0,0.0,0.0,0.0,0.0,0.0,0.0,0.0,0.0,0.0,0.0,0.0,0.0,0.0,0.0,0.0,0.0,0.0,0.0,0.0,0.0,0.0,0.0,0.0,0.0,0.0,0.0,0.0,0.0,0.0,0.0,0.0,0.0,0.0,0.0,0.0,0.0,0.0,0.0,0.0,0.0,0.0,0.0,0.0,0.0,0.0,0.0,0.0,0.0,0.0,0.0,0.0,0.0,0.0,0.0,0.0,0.0,0.0,0.0,0.0,0.0,0.0,0.0,0.0,0.0,0.0,0.0,0.0,0.0,0.0,0.0,0.0,0.0,0.0,0.0,0.0,0.0,0.0,0.0,0.0,0.0,0.0,2.5264,2.6909,2.5925,2.4659,0.0,0.0,0.0,0.0,0.0,0.0,0.0,0.0,0.0,0.0,0.0,0.0,0.0,0.0,0.0,0.0,0.0,0.0,0.0,0.0,0.0,0.0,0.0,0.0,0.0,0.0,0.0,0.0,0.0,0.0,0.0,0.0,0.0,0.0,0.0,0.0,0.0,0.0,0.0,0.0,0.0,0.0,0.0,0.0,0.0,0.0,0.0,0.0,0.0,0.0,0.0,0.0,0.0,0.0,0.0,0.0,0.0,0.0,0.0,0.0,0.0,0.0,0.0,0.0,0.0,0.0,0.0,0.0,0.0,0.0,0.0,0.0,0.0,0.0,0.0,0.0,0.0,0.0,0.0,0.0,0.0,0.0,0.0,0.0,0.0,0.0,0.0,0.0,0.0,0.0,0.0,0.0,0.0,0.0,0.0,0.0,0.0,0.0,0.0,0.0,0.0,0.0,0.0,0.0,0.0,0.0,0.0,0.0,0.0,0.0,2.544,2.5807,2.7051,2.5325,2.3807,2.2718,0.0,0.0,0.0,0.0,0.0,0.0,0.0,0.0,0.0,0.0,0.0,0.0,0.0,0.0,0.0,0.0,0.0,0.0,0.0,0.0,0.0,0.0,0.0,0.0,0.0,0.0,0.0,0.0,0.0,0.0,0.0,0.0,0.0,0.0,0.0,0.0,0.0,0.0,0.0,0.0,0.0,0.0,0.0,0.0,0.0,0.0,0.0,0.0,0.0,0.0,0.0,0.0,0.0,0.0,0.0,0.0,0.0,0.0,0.0,0.0,0.0,0.0,0.0,0.0,0.0,0.0,0.0,0.0,0.0,0.0,0.0,0.0,0.0,0.0,0.0,0.0,0.0,0.0,0.0,0.0,0.0,0.0,0.0,0.0,0.0,0.0,0.0,0.0,0.0,0.0,0.0,0.0,0.0,0.0,0.0,0.0,0.0,0.0,0.0,0.0,0.0,0.0,0.0,0.0,0.0,0.0,0.0,0.0,3.0155,2.7314,2.6649,2.858,2.5573,2.4165,0.0,0.0,0.0,0.0,0.0,0.0,0.0,0.0,0.0,0.0,0.0,0.0,0.0,0.0,0.0,0.0,0.0,0.0,0.0,0.0,0.0,0.0,0.0,0.0,0.0,0.0,0.0,0.0,0.0,0.0,0.0,0.0,0.0,0.0,0.0,0.0,0.0,0.0,0.0,0.0,0.0,0.0,0.0,0.0,0.0,0.0,0.0,0.0,0.0,0.0,0.0,0.0,0.0,0.0,0.0,0.0,0.0,0.0,0.0,0.0,0.0,0.0,0.0,0.0,0.0,0.0,0.0,0.0,0.0,0.0,0.0,0.0,0.0,0.0,0.0,0.0,0.0,0.0,0.0,0.0,0.0,0.0,0.0,0.0,0.0,0.0,0.0,0.0,0.0,0.0,0.0,0.0,0.0,0.0,0.0,0.0,0.0,0.0,0.0,0.0,0.0,0.0,0.0,0.0,0.0,0.0,0.0,0.0,0.0,2.5541,2.5374,2.5848,2.7018,2.4894,2.4035,0.0,0.0,0.0,0.0,0.0,0.0,0.0,0.0,0.0,0.0,0.0,0.0,0.0,0.0,0.0,0.0,0.0,0.0,0.0,0.0,0.0,0.0,0.0,0.0,0.0,0.0,0.0,0.0,0.0,0.0,0.0,0.0,0.0,0.0,0.0,0.0,0.0,0.0,0.0,0.0,0.0,0.0,0.0,0.0,0.0,0.0,0.0,0.0,0.0,0.0,0.0,0.0,0.0,0.0,0.0,0.0,0.0,0.0,0.0,0.0,0.0,0.0,0.0,0.0,0.0,0.0,0.0,0.0,0.0,0.0,0.0,0.0,0.0,0.0,0.0,0.0,0.0,0.0,0.0,0.0,0.0,0.0,0.0,0.0,0.0,0.0,0.0,0.0,0.0,0.0,0.0,0.0,0.0,0.0,0.0,0.0,0.0,0.0,0.0,0.0,0.0,0.0,0.0,0.0,0.0,0.0,0.0,0.0,0.0,2.4085,0.0,2.537,2.5951,2.3768,2.2675,0.0,0.0,0.0,0.0,0.0,0.0,0.0,0.0,0.0,0.0,0.0,0.0,0.0,0.0,0.0,0.0,0.0,0.0,0.0,0.0,0.0,0.0,0.0,0.0,0.0,0.0,0.0,0.0,0.0,0.0,0.0,0.0,0.0,0.0,0.0,0.0,0.0,0.0,0.0,0.0,0.0,0.0,0.0,0.0,0.0,0.0,0.0,0.0,0.0,0.0,0.0,0.0,0.0,0.0,0.0,0.0,0.0,0.0,0.0,0.0,0.0,0.0,0.0,0.0,0.0,0.0,0.0,0.0,0.0,0.0,0.0,0.0,0.0,0.0,0.0,0.0,0.0,0.0,0.0,0.0,0.0,0.0,0.0,0.0,0.0,0.0,0.0,0.0,0.0,0.0,0.0,0.0,0.0,0.0,0.0,0.0,0.0,0.0,0.0,0.0,0.0,0.0,0.0,0.0,0.0,0.0,0.0,0.0,2.3804,2.6719,2.5584,2.5151,2.5652,2.2263,2.0165,0.0,0.0,0.0,0.0,0.0,0.0,0.0,0.0,0.0,0.0,0.0,0.0,0.0,0.0,0.0,0.0,0.0,0.0,0.0,0.0,0.0,0.0,0.0,0.0,0.0,0.0,0.0,0.0,0.0,0.0,0.0,0.0,0.0,0.0,0.0,0.0,0.0,0.0,0.0,0.0,0.0,0.0,0.0,0.0,0.0,0.0,0.0,0.0,0.0,0.0,0.0,0.0,0.0,0.0,0.0,0.0,0.0,0.0,0.0,0.0,0.0,0.0,0.0,0.0,0.0,0.0,0.0,0.0,0.0,0.0,0.0,0.0,0.0,0.0,0.0,0.0,0.0,0.0,0.0,0.0,0.0,0.0,0.0,0.0,0.0,0.0,0.0,0.0,0.0,0.0,0.0,0.0,0.0,0.0,0.0,0.0,0.0,0.0,0.0,0.0,0.0,0.0,0.0,0.0,0.0,0.0,0.0,0.0,0.0,2.2522,2.2283,2.2694,2.3751,2.0575,1.9715,0.0,0.0,0.0,0.0,0.0,0.0,0.0,0.0,0.0,0.0,0.0,0.0,0.0,0.0,0.0,0.0,0.0,0.0,0.0,0.0,0.0,0.0,0.0,0.0,0.0,0.0,0.0,0.0,0.0,0.0,0.0,0.0,0.0,0.0,0.0,0.0,0.0,0.0,0.0,0.0,0.0,0.0,0.0,0.0,0.0,0.0,0.0,0.0,0.0,0.0,0.0,0.0,0.0,0.0,0.0,0.0,0.0,0.0,0.0,0.0,0.0,0.0,0.0,0.0,0.0,0.0,0.0,0.0,0.0,0.0,0.0,0.0,0.0,0.0,0.0,0.0,0.0,0.0,0.0,0.0,0.0,0.0,0.0,0.0,0.0,0.0,0.0,0.0,0.0,0.0,0.0,0.0,0.0,0.0,0.0,0.0,0.0,0.0,0.0,0.0,0.0,0.0,0.0,0.0,0.0,0.0,0.0,0.0,0.0,2.1707,2.1776,2.2493,2.3884,2.0312,1.9354,2.1309,0.0,0.0,0.0,0.0,0.0,0.0,0.0,0.0,0.0,0.0,0.0,0.0,0.0,0.0,0.0,0.0,0.0,0.0,0.0,0.0,0.0,0.0,0.0,0.0,0.0,0.0,0.0,0.0,0.0,0.0,0.0,0.0,0.0,0.0,0.0,0.0,0.0,0.0,0.0,0.0,0.0,0.0,0.0,0.0,0.0,0.0,0.0,0.0,0.0,0.0,0.0,0.0,0.0,0.0,0.0,0.0,0.0,0.0,0.0,0.0,0.0,0.0,0.0,0.0,0.0,0.0,0.0,0.0,0.0,0.0,0.0,0.0,0.0,0.0,0.0,0.0,0.0,0.0,0.0,0.0,0.0,0.0,0.0,0.0,0.0,0.0,0.0,0.0,0.0,0.0,0.0,0.0,0.0,0.0,0.0,0.0,0.0,0.0,0.0,0.0,0.0,0.0,0.0,0.0,0.0,0.0,0.0,0.0,2.3721,2.3759,2.4249,2.5122,2.1224,1.9092,0.0,0.0,0.0,0.0,0.0,0.0,0.0,0.0,0.0,0.0,0.0,0.0,0.0,0.0,0.0,0.0,0.0,0.0,0.0,0.0,0.0,0.0,0.0,0.0,0.0,0.0,0.0,0.0,0.0,0.0,0.0,0.0,0.0,0.0,0.0,0.0,0.0,0.0,0.0,0.0,0.0,0.0,0.0,0.0,0.0,0.0,0.0,0.0,0.0,0.0,0.0,0.0,0.0,0.0,0.0,0.0,0.0,0.0,0.0,0.0,0.0,0.0,0.0,0.0,0.0,0.0,0.0,0.0,0.0,0.0,0.0,0.0,0.0,0.0,0.0,0.0,0.0,0.0,0.0,0.0,0.0,0.0,0.0,0.0,0.0,0.0,0.0,0.0,0.0,0.0,0.0,0.0,0.0,0.0,0.0,0.0,0.0,0.0,0.0,0.0,0.0,0.0,0.0,0.0,0.0,0.0,0.0,0.0,0.0,2.5159,2.5853,2.558,2.4325,2.1476,1.9894,0.0,0.0,0.0,0.0,0.0,0.0,0.0,0.0,0.0,0.0,0.0,0.0,0.0,0.0,0.0,0.0,0.0,0.0,0.0,0.0,0.0,0.0,0.0,0.0,0.0,0.0,0.0,0.0,0.0,0.0,0.0,0.0,0.0,0.0,0.0,0.0,0.0,0.0,0.0,0.0,0.0,0.0,0.0,0.0,0.0,0.0,0.0,0.0,0.0,0.0,0.0,0.0,0.0,0.0,0.0,0.0,0.0,0.0,0.0,0.0,0.0,0.0,0.0,0.0,0.0,0.0,0.0,0.0,0.0,0.0,0.0,0.0,0.0,0.0,0.0,0.0,0.0,0.0,0.0,0.0,0.0,0.0,0.0,0.0,0.0,0.0,0.0,0.0,0.0,0.0,0.0,0.0,0.0,0.0,0.0,0.0,0.0,0.0,0.0,0.0,0.0,0.0,0.0,0.0,0.0,0.0,0.0,0.0,2.4107,2.6156,2.7043,2.6563,2.4679,2.2958,2.1541,0.0,0.0,0.0,0.0,0.0,0.0,0.0,0.0,0.0,0.0,0.0,0.0,0.0,0.0,0.0,0.0,0.0,0.0,0.0,0.0,0.0,0.0,0.0,0.0,0.0,0.0,0.0,0.0,0.0,0.0,0.0,0.0,0.0,0.0,0.0,0.0,0.0,0.0,0.0,0.0,0.0,0.0,0.0,0.0,0.0,0.0,0.0,0.0,0.0,0.0,0.0,0.0,0.0,0.0,0.0,0.0,0.0,0.0,0.0,0.0,0.0,0.0,0.0,0.0,0.0,0.0,0.0,0.0,0.0,0.0,0.0,0.0,0.0,0.0,0.0,0.0,0.0,0.0,0.0,0.0,0.0,0.0,0.0,0.0,0.0,0.0,0.0,0.0,0.0,0.0,0.0,0.0,0.0,0.0,0.0,0.0,0.0,0.0,0.0,0.0,0.0,0.0,0.0,0.0,0.0,0.0,0.0,0.0,2.4817,2.6637,2.7668,2.731,2.5649,2.4871,2.3351,0.0,0.0,0.0,0.0,0.0,0.0,0.0,0.0,0.0,0.0,0.0,0.0,0.0,0.0,0.0,0.0,0.0,0.0,0.0,0.0,0.0,0.0,0.0,0.0,0.0,0.0,0.0,0.0,0.0,0.0,0.0,0.0,0.0,0.0,0.0,0.0,0.0,0.0,0.0,0.0,0.0,0.0,0.0,0.0,0.0,0.0,0.0,0.0,0.0,0.0,0.0,0.0,0.0,0.0,0.0,0.0,0.0,0.0,0.0,0.0,0.0,0.0,0.0,0.0,0.0,0.0,0.0,0.0,0.0,0.0,0.0,0.0,0.0,0.0,0.0,0.0,0.0,0.0,0.0,0.0,0.0,0.0,0.0,0.0,0.0,0.0,0.0,0.0,0.0,0.0,0.0,0.0,0.0,0.0,0.0,0.0,0.0,0.0,0.0,0.0,0.0,0.0,0.0,0.0,0.0,0.0,0.0,0.0,2.6176,2.6624,2.8289,2.821,2.6167,2.4973,2.2999,0.0,0.0,0.0,0.0,0.0,0.0,0.0,0.0,0.0,0.0,0.0,0.0,0.0,0.0,0.0,0.0,0.0,0.0,0.0,0.0,0.0,0.0,0.0,0.0,0.0,0.0,0.0,0.0,0.0,0.0,0.0,0.0,0.0,0.0,0.0,0.0,0.0,0.0,0.0,0.0,0.0,0.0,0.0,0.0,0.0,0.0,0.0,0.0,2.5158,0.0,0.0,0.0,0.0,0.0,0.0,0.0,0.0,0.0,0.0,0.0,0.0,0.0,0.0,0.0,0.0,0.0,0.0,0.0,0.0,0.0,0.0,0.0,0.0,0.0,0.0,0.0,0.0,0.0,0.0,0.0,0.0,0.0,0.0,0.0,0.0,0.0,0.0,0.0,0.0,0.0,0.0,0.0,0.0,0.0,0.0,0.0,0.0,0.0,0.0,0.0,0.0,0.0,0.0,0.0,0.0,0.0,0.0,0.0,2.587,2.5704,2.6686,2.6459,2.4851,2.4127,2.2688,0.0,0.0,0.0,0.0,0.0,0.0,0.0,0.0,0.0,0.0,0.0,0.0,0.0,0.0,0.0,0.0,0.0,0.0,0.0,0.0,0.0,0.0,0.0,0.0,0.0,0.0,0.0,0.0,0.0,0.0,0.0,0.0,0.0,0.0,0.0,0.0,0.0,0.0,0.0,0.0,0.0,0.0,0.0,0.0,0.0,0.0,0.0,0.0,0.0,0.0,0.0,0.0,0.0,0.0,0.0,0.0,0.0,0.0,0.0,0.0,0.0,0.0,0.0,0.0,0.0,0.0,0.0,0.0,0.0,0.0,0.0,0.0,0.0,0.0,0.0,0.0,0.0,0.0,0.0,0.0,0.0,0.0,0.0,0.0,0.0,0.0,0.0,0.0,0.0,0.0,0.0,0.0,0.0,0.0,0.0,0.0,0.0,0.0,0.0,0.0,0.0,0.0,0.0,0.0,0.0,0.0,0.0,2.4322,2.5066,2.4934,2.4816,2.4241,2.3197,2.3066,2.2314,2.0885,0.0,0.0,0.0,0.0,0.0,0.0,0.0,0.0,0.0,0.0,0.0,0.0,0.0,0.0,0.0,0.0,0.0,0.0,0.0,0.0,0.0,0.0,0.0,0.0,0.0,0.0,0.0,0.0,0.0,0.0,0.0,0.0,0.0,0.0,0.0,0.0,0.0,0.0,2.6113,2.6748,0.0,0.0,0.0,0.0,0.0,0.0,0.0,0.0,2.5405,0.0,0.0,0.0,0.0,0.0,0.0,0.0,0.0,0.0,0.0,0.0,0.0,0.0,0.0,0.0,0.0,0.0,0.0,0.0,0.0,0.0,0.0,0.0,0.0,0.0,0.0,0.0,0.0,0.0,0.0,0.0,0.0,0.0,0.0,0.0,0.0,0.0,0.0,0.0,0.0,0.0,0.0,0.0,0.0,0.0,0.0,0.0,0.0,0.0,0.0,0.0,0.0,0.0,0.0,0.0,0.0,2.6017,2.5028,2.5085,2.6387,2.5386,2.438,2.3398,2.2582,2.1504,2.0132,0.0,0.0,0.0,0.0,0.0,0.0,0.0,0.0,0.0,0.0,0.0,0.0,0.0,0.0,0.0,0.0,0.0,0.0,0.0,0.0,0.0,0.0,0.0,0.0,0.0,0.0,0.0,0.0,0.0,0.0,0.0,0.0,0.0,0.0,0.0,0.0,0.0,0.0,0.0,2.8067,2.7941,0.0,0.0,0.0,0.0,0.0,0.0,0.0,0.0,2.5285,0.0,0.0,0.0,0.0,0.0,0.0,0.0,0.0,0.0,0.0,0.0,0.0,0.0,0.0,0.0,0.0,0.0,0.0,0.0,0.0,0.0,0.0,0.0,0.0,0.0,0.0,0.0,0.0,0.0,0.0,0.0,0.0,0.0,0.0,0.0,0.0,0.0,0.0,0.0,0.0,0.0,0.0,0.0,0.0,0.0,0.0,0.0,0.0,0.0,0.0,0.0,0.0,0.0,0.0,0.0,2.4488,2.5494,2.601,2.5946,2.5187,2.4333,2.3416,2.1974,2.0793,0.0,0.0,0.0,0.0,0.0,0.0,0.0,0.0,0.0,0.0,0.0,0.0,0.0,0.0,0.0,0.0,0.0,0.0,0.0,0.0,0.0,0.0,0.0,0.0,0.0,0.0,0.0,0.0,0.0,0.0,0.0,0.0,0.0,0.0,0.0,0.0,0.0,0.0,0.0,0.0,2.8908,2.9134,2.749,0.0,0.0,0.0,0.0,0.0,0.0,2.5514,2.587,0.0,0.0,0.0,0.0,0.0,0.0,0.0,0.0,0.0,0.0,0.0,0.0,0.0,0.0,0.0,0.0,0.0,0.0,0.0,0.0,0.0,0.0,0.0,0.0,0.0,0.0,0.0,0.0,0.0,0.0,0.0,0.0,0.0,0.0,0.0,0.0,0.0,0.0,0.0,0.0,0.0,0.0,0.0,0.0,0.0,0.0,0.0,0.0,0.0,0.0,0.0,0.0,0.0,0.0,0.0,2.291,2.5518,2.6472,2.546,2.4893,2.4158,2.332,2.1597,2.0344,0.0,0.0,0.0,0.0,0.0,0.0,0.0,0.0,0.0,0.0,0.0,0.0,0.0,0.0,0.0,0.0,0.0,0.0,0.0,0.0,0.0,0.0,0.0,0.0,0.0,0.0,0.0,0.0,0.0,0.0,0.0,0.0,0.0,0.0,0.0,0.0,0.0,0.0,0.0,0.0,0.0,3.0362,2.8071,2.9558,0.0,0.0,0.0,0.0,2.5804,2.6937,0.0,0.0,0.0,0.0,0.0,0.0,0.0,0.0,0.0,0.0,0.0,0.0,0.0,0.0,0.0,0.0,0.0,0.0,0.0,0.0,0.0,0.0,0.0,0.0,0.0,0.0,0.0,0.0,0.0,0.0,0.0,0.0,0.0,0.0,0.0,0.0,0.0,0.0,0.0,0.0,0.0,0.0,0.0,0.0,0.0,0.0,0.0,0.0,0.0,0.0,0.0,0.0,0.0,0.0,0.0,0.0,2.4247,2.4547,2.5165,2.6132,2.491,2.3752,2.2999,2.1819,2.0632,0.0,0.0,0.0,0.0,0.0,0.0,0.0,0.0,0.0,0.0,0.0,0.0,0.0,0.0,0.0,0.0,0.0,0.0,0.0,0.0,0.0,0.0,0.0,0.0,0.0,0.0,0.0,0.0,0.0,0.0,0.0,0.0,0.0,0.0,0.0,0.0,0.0,0.0,0.0,0.0,0.0,3.1569,2.9446,3.0806,3.149,0.0,0.0,2.9292,2.9443,3.1,0.0,0.0,0.0,0.0,0.0,0.0,0.0,0.0,0.0,0.0,0.0,0.0,0.0,0.0,0.0,0.0,0.0,0.0,0.0,0.0,0.0,0.0,0.0,0.0,0.0,0.0,0.0,0.0,0.0,0.0,0.0,0.0,0.0,0.0,0.0,0.0,0.0,0.0,0.0,0.0,0.0,0.0,0.0,0.0,0.0,0.0,0.0,0.0,0.0,0.0,0.0,0.0,0.0,0.0,0.0,2.206,2.4402,2.5146,2.5925,2.6737,2.5667,2.4482,2.3309,2.1865,2.0557,0.0,0.0,0.0,0.0,0.0,0.0,0.0,0.0,0.0,0.0,0.0,0.0,0.0,0.0,0.0,0.0,0.0,0.0,0.0,0.0,0.0,0.0,0.0,0.0,0.0,0.0,0.0,0.0,0.0,0.0,0.0,0.0,0.0,0.0,0.0,0.0,0.0,0.0,0.0,0.0,0.0,0.0,3.078,3.2215,0.0,0.0,0.0,3.1626,3.1,0.0,0.0,0.0,0.0,0.0,0.0,0.0,0.0,0.0,0.0,0.0,0.0,0.0,0.0,0.0,0.0,0.0,0.0,0.0,0.0,0.0,0.0,0.0,0.0,0.0,0.0,0.0,0.0,0.0,0.0,0.0,0.0,0.0,0.0,0.0,0.0,0.0,0.0,0.0,0.0,0.0,0.0,0.0,0.0,0.0,0.0,0.0,0.0,0.0,0.0,0.0,0.0,0.0,0.0,0.0,0.0,0.0,2.4196,2.5857,2.6809,2.7029,2.6185,2.5007,2.3426,2.1707,0.0,0.0,0.0,0.0,0.0,0.0,0.0,0.0,0.0,0.0,0.0,0.0,0.0,0.0,0.0,0.0,0.0,0.0,0.0,0.0,0.0,0.0,0.0,0.0,0.0,0.0,0.0,2.457,0.0,0.0,0.0,0.0,0.0,0.0,0.0,0.0,0.0,0.0,0.0,0.0,0.0,0.0,3.2901,3.2431,3.4045,3.5016,0.0,0.0,3.3933,3.2817,3.335,3.2843,0.0,0.0,0.0,0.0,0.0,0.0,0.0,0.0,0.0,0.0,0.0,0.0,0.0,0.0,0.0,0.0,0.0,0.0,0.0,0.0,0.0,0.0,0.0,0.0,0.0,0.0,0.0,0.0,0.0,0.0,0.0,0.0,0.0,0.0,0.0,0.0,0.0,0.0,0.0,0.0,0.0,0.0,0.0,0.0,0.0,0.0,0.0,0.0,0.0,0.0,0.0,0.0,0.0,0.0,0.0,2.3728,2.6194,2.7292,2.6898,2.6009,2.468,2.2914,2.1416,2.0081,0.0,0.0,0.0,0.0,0.0,0.0,0.0,0.0,0.0,0.0,0.0,0.0,0.0,0.0,0.0,0.0,0.0,0.0,0.0,0.0,0.0,0.0,0.0,0.0,0.0,0.0,0.0,0.0,0.0,0.0,0.0,0.0,0.0,0.0,0.0,0.0,0.0,0.0,0.0,0.0,0.0,3.3652,3.4606,3.6435,3.8068,0.0,0.0,3.6453,3.5802,3.7423,3.6791,3.0896,0.0,0.0,0.0,0.0,0.0,0.0,0.0,0.0,0.0,0.0,0.0,0.0,0.0,0.0,0.0,0.0,0.0,0.0,0.0,0.0,0.0,0.0,0.0,0.0,0.0,0.0,0.0,0.0,0.0,0.0,0.0,0.0,0.0,0.0,0.0,0.0,0.0,0.0,0.0,0.0,0.0,0.0,0.0,0.0,0.0,0.0,0.0,0.0,0.0,0.0,0.0,0.0,0.0,2.3182,2.4453,2.6065,2.6909,2.6889,2.6302,2.5018,2.2965,2.24,2.1308,0.0,0.0,0.0,0.0,0.0,0.0,0.0,0.0,0.0,0.0,0.0,0.0,0.0,0.0,0.0,0.0,0.0,0.0,0.0,0.0,0.0,0.0,0.0,0.0,0.0,0.0,0.0,0.0,2.5842,2.6219,2.6115,0.0,0.0,0.0,0.0,0.0,0.0,0.0,0.0,0.0,0.0,3.4325,3.5517,3.6955,0.0,0.0,3.8171,3.7355,3.7093,3.6693,3.5337,3.212,3.1266,0.0,0.0,0.0,0.0,0.0,0.0,0.0,0.0,0.0,0.0,0.0,0.0,0.0,0.0,0.0,0.0,0.0,0.0,0.0,0.0,0.0,0.0,0.0,0.0,0.0,0.0,0.0,0.0,0.0,0.0,0.0,0.0,0.0,0.0,0.0,0.0,0.0,0.0,0.0,0.0,0.0,0.0,0.0,0.0,0.0,0.0,0.0,0.0,0.0,0.0,0.0,0.0,2.3495,2.478,2.621,2.6948,2.6892,2.6477,2.528,2.3366,2.3034,2.2063,0.0,0.0,0.0,0.0,0.0,0.0,0.0,0.0,0.0,0.0,0.0,0.0,0.0,0.0,0.0,0.0,0.0,0.0,0.0,0.0,0.0,0.0,0.0,0.0,0.0,0.0,0.0,0.0,2.7054,2.7526,2.6981,0.0,0.0,0.0,0.0,0.0,0.0,0.0,0.0,0.0,0.0,3.5377,3.6554,3.7639,3.8435,3.878,3.8338,3.7772,3.7333,3.6361,3.4889,3.2688,0.0,0.0,0.0,0.0,0.0,0.0,0.0,0.0,0.0,0.0,0.0,0.0,0.0,0.0,0.0,0.0,0.0,0.0,0.0,0.0,0.0,0.0,0.0,0.0,0.0,0.0,0.0,0.0,0.0,0.0,0.0,0.0,0.0,0.0,0.0,0.0,0.0,0.0,0.0,0.0,0.0,0.0,0.0,0.0,0.0,0.0,0.0,0.0,0.0,0.0,0.0,0.0,0.0,2.3997,2.429,2.6791,2.7678,2.6942,2.6401,2.5422,2.3959,2.298,2.2036,2.1157,0.0,0.0,0.0,0.0,0.0,0.0,0.0,0.0,0.0,0.0,0.0,0.0,0.0,0.0,0.0,0.0,0.0,0.0,0.0,0.0,0.0,0.0,0.0,0.0,0.0,0.0,2.7448,2.7639,2.7303,0.0,0.0,0.0,0.0,0.0,0.0,0.0,0.0,0.0,0.0,3.5011,3.6785,3.7945,3.8779,3.9168,3.9167,3.8621,3.7757,3.6481,3.712,3.6437,0.0,0.0,0.0,0.0,0.0,0.0,0.0,0.0,0.0,0.0,0.0,0.0,0.0,0.0,0.0,0.0,0.0,0.0,0.0,0.0,0.0,0.0,0.0,0.0,0.0,0.0,0.0,2.4122,2.4215,0.0,0.0,0.0,0.0,0.0,0.0,0.0,0.0,0.0,0.0,0.0,2.5803,2.5963,0.0,0.0,0.0,0.0,0.0,0.0,0.0,0.0,0.0,0.0,0.0,0.0,2.5172,2.6633,2.7733,2.831,2.8272,2.7679,2.6736,2.5459,2.5349,2.475,2.3462,0.0,0.0,0.0,0.0,0.0,0.0,0.0,0.0,0.0,0.0,0.0,0.0,0.0,0.0,0.0,0.0,0.0,0.0,0.0,0.0,0.0,0.0,0.0,0.0,0.0,2.8967,0.0,0.0,0.0,0.0,0.0,0.0,0.0,0.0,0.0,0.0,0.0,3.1508,3.2993,3.5011,3.6447,3.6758,3.8018,3.8821,0.0,0.0,0.0,0.0,0.0,0.0,0.0,0.0,0.0,0.0,0.0,0.0,0.0,0.0,3.5026,3.0393,2.914,2.8848,2.9108,0.0,0.0,0.0,0.0,0.0,0.0,0.0,0.0,0.0,0.0,0.0,0.0,0.0,0.0,0.0,0.0,2.553,0.0,0.0,0.0,0.0,0.0,0.0,0.0,0.0,2.6492,2.7245,2.7919,2.7845,2.7685,0.0,2.6328,2.5245,0.0,0.0,0.0,0.0,0.0,0.0,0.0,0.0,2.5637,2.7317,2.791,2.8416,2.8794,2.8311,2.7587,2.6768,2.6385,2.5854,2.5086,2.4022,2.358,0.0,0.0,0.0,0.0,0.0,0.0,0.0,0.0,0.0,0.0,0.0,0.0,0.0,0.0,0.0,0.0,0.0,0.0,0.0,0.0,0.0,0.0,0.0,2.9233,0.0,0.0,0.0,0.0,0.0,0.0,0.0,0.0,0.0,3.119,3.2071,3.318,3.4449,3.6062,3.6967,3.6643,0.0,0.0,0.0,0.0,0.0,0.0,0.0,3.7428,3.697,3.6388,3.5997,3.5956,3.686,3.7358,3.663,0.0,0.0,3.2548,3.131,3.0974,3.113,3.1606,3.2132,3.2606,3.27,3.246,0.0,0.0,0.0,0.0,0.0,0.0,0.0,0.0,2.6312,2.6517,0.0,2.6672,0.0,0.0,0.0,0.0,0.0,0.0,0.0,0.0,2.802,2.8985,2.9656,2.854,2.8507,2.9595,2.9007,2.8381,2.7599,2.4876,0.0,0.0,0.0,0.0,0.0,0.0,2.552,2.6529,2.7429,2.8127,2.8657,2.8256,2.7943,2.7707,2.6096,2.5437,2.5841,2.4628,2.4126,2.4553,2.4609,0.0,0.0,0.0,0.0,0.0,0.0,0.0,0.0,0.0,0.0,0.0,0.0,0.0,0.0,0.0,0.0,0.0,0.0,0.0,0.0,2.9139,0.0,0.0,0.0,0.0,0.0,0.0,0.0,0.0,0.0,0.0,3.3095,3.4521,3.5966,3.7103,0.0,0.0,0.0,0.0,3.7297,3.7257,3.7684,3.8254,3.8807,3.9559,3.9613,3.8251,0.0,0.0,3.6101,3.6724,3.7386,3.7002,3.7351,3.7602,3.721,3.5727,3.4919,3.5243,3.446,3.3882,3.3832,3.3603,3.2919,3.4077,0.0,0.0,0.0,0.0,3.034,3.0636,3.0876,3.0841,3.0152,2.9131,2.8986,0.0,0.0,0.0,0.0,0.0,0.0,2.7633,2.8545,2.9343,3.0297,3.1326,3.1449,3.1409,3.1291,3.0555,2.9944,2.9341,2.7496,2.5921,2.4699,0.0,0.0,0.0,0.0,2.6658,2.783,2.8442,2.9044,2.9732,2.9126,2.8761,2.8693,2.7194,2.6452,2.6579,2.5195,2.4467,2.4589,2.4875,0.0,0.0,0.0,0.0,0.0,0.0,0.0,0.0,0.0,0.0,0.0,0.0,0.0,0.0,0.0,0.0,0.0,0.0,0.0,2.9405,2.9598,2.9496,0.0,0.0,0.0,0.0,0.0,0.0,0.0,0.0,0.0,3.5074,3.5711,3.6364,0.0,0.0,3.7849,3.7986,3.7724,3.792,3.8992,0.0,0.0,0.0,3.8823,3.8611,3.8756,3.9238,3.9302,3.8428,3.8402,3.8286,3.7553,3.7525,3.7542,3.7166,3.6364,3.5604,3.52,3.5215,3.5346,3.5355,3.5242,3.4808,3.757,3.4348,3.3306,3.3109,3.3435,3.3225,3.3282,3.355,3.2834,3.201,3.1228,3.0992,3.0321,2.9374,2.8813,0.0,0.0,0.0,2.8928,2.9945,3.0345,3.1067,3.197,3.2178,3.2031,3.1632,3.1146,3.0881,3.081,2.9401,2.8225,2.7237,0.0,0.0,2.5298,2.6175,2.713,2.8131,2.8351,2.8713,2.9313,2.8896,2.8894,2.9316,2.7689,2.6899,2.719,2.5794,2.4993,2.4993,2.5227,2.5266,0.0,0.0,0.0,0.0,0.0,0.0,0.0,0.0,0.0,0.0,0.0,2.7544,2.6718,0.0,0.0,0.0,2.7748,2.8899,2.9665,2.9826,0.0,0.0,0.0,0.0,0.0,0.0,0.0,3.279,3.3184,3.4035,3.5703,3.6155,3.6671,3.7474,3.7396,3.732,3.7597,0.0,3.7546,3.9023,3.9036,3.908,3.9681,3.9299,3.8995,3.9175,3.9572,3.9677,3.9166,3.8863,3.8486,3.7978,3.7725,3.7524,3.7178,3.6738,3.6208,3.5512,3.5678,3.5893,3.5628,3.5794,3.5596,4.0622,3.9856,3.8203,3.7377,3.704,3.5876,3.5294,3.5049,3.3182,3.2692,3.3157,3.2648,3.1994,3.1238,2.9922,0.0,2.9315,2.9875,3.0479,3.1068,3.1099,3.1427,3.1928,3.1456,3.1191,3.1132,3.1191,3.1409,3.1758,3.0543,3.0179,3.0559,2.7987,2.6576,2.6485,2.6801,2.7248,2.7781,2.7596,2.7593,2.7862,2.7882,2.8432,2.9507,2.7627,2.6884,2.7539,2.6315,2.5602,2.5602,2.5624,2.5624,2.5624,0.0,0.0,0.0,0.0,0.0,0.0,0.0,0.0,0.0,0.0,0.0,0.0,0.0,0.0,0.0,2.8099,0.0,2.9629,2.993,0.0,0.0,0.0,3.0813,3.1972,3.2127,3.2416,3.3041,0.0,0.0,3.5296,0.0,3.6676,3.7367,3.7074,3.6812,3.6926,3.6544,3.6627,3.8184,3.8288,3.881,3.9842,3.9895,3.9496,3.8972,3.9152,3.8958,3.856,3.8309,3.8128,3.778,3.7644,3.7196,3.6796,3.6522,3.6539,3.5711,3.576,3.5644,3.4828,3.5101,3.5013,4.2515,4.1825,4.1406,3.9852,3.7731,3.7523,3.6868,3.5903,3.5579,3.4973,3.4171,3.4105,3.3482,3.2393,3.1644,3.1184,3.0939,3.1232,3.1352,3.1383,3.1411,3.1469,3.1618,3.2005,3.1901,3.1439,3.1827,3.1857,3.1551,3.0546,3.0132,3.0176,2.8709,2.7885,2.7778,2.8137,2.8404,2.8551,2.8137,2.7547,2.682,2.6788,2.7054,2.7651,2.6681,2.6378,2.6823,2.6056,2.5602,2.5605,2.585,2.5852,2.5624,2.6245,0.0,0.0,0.0,0.0,0.0,0.0,0.0,0.0,0.0,2.8986,2.7492,0.0,3.0196,0.0,2.9039,2.9794,3.0516,3.0653,0.0,0.0,3.2126,3.2505,3.2818,3.3337,3.3538,3.3148,3.3335,3.3787,3.4482,3.4823,3.5053,3.5256,3.614,3.712,3.7985,3.7051,3.7029,3.875,3.7949,3.7363,3.8413,3.7685,3.6926,3.6689,3.7178,3.7423,3.7024,3.7211,3.7013,3.595,3.5372,3.4796,3.3991,3.3763,3.3723,3.3613,3.4376,3.4631,3.3067,3.3265,3.3209,4.2402,4.1993,4.2009,4.0881,3.9055,3.856,3.7903,3.7188,3.6375,3.5674,3.5035,3.486,3.4439,3.3713,3.2848,3.2351,3.2147,3.192,3.1727,3.1626,3.1539,3.1496,3.1511,3.1884,3.1854,3.1525,3.1811,3.1763,3.144,3.0598,3.0186,3.0111,2.9186,2.8669,2.8608,2.8818,2.9046,2.9227,2.7741,2.6704,2.6113,2.5774,2.6302,2.7705,2.649,2.6301,2.7365,2.6419,2.601,2.6323,2.6543,2.6561,2.6374,2.6778,2.6885,0.0,0.0,0.0,0.0,0.0,0.0,0.0,0.0,0.0,0.0,0.0,3.0816,2.9772,2.9733,3.0124,3.0865,3.0935,3.114,3.1584,3.2004,3.2374,3.2698,3.3102,3.3299,3.3249,3.3313,3.3469,3.3862,3.3972,3.4015,3.3998,3.4742,3.553,3.6126,3.579,3.6044,3.7261,3.6756,3.6332,3.7053,3.6399,3.5786,3.5822,3.6182,3.6289,3.5794,3.5752,3.5436,3.4387,3.383,3.3406,3.2846,3.2685,3.2619,3.2398,3.2845,3.3086,3.2479,3.2436,3.2144,4.1404,4.1332,4.1332,4.099,4.0369,3.9001,3.8407,3.8269,3.6455,3.5672,3.5617,3.5185,3.4958,3.4836,3.3677,3.3099,3.2953,3.2276,3.1932,3.1813,3.1626,3.1553,3.1568,3.1478,3.1433,3.1405,3.1315,3.1252,3.1137,3.0488,3.0148,3.0069,2.9445,2.9167,2.9277,2.9167,2.922,2.944,2.7154,2.5901,2.5814,2.5165,2.602,2.8317,2.6587,2.6346,2.7995,2.6919,2.6519,2.7135,2.717,2.7203,2.7186,2.7225,2.7311,0.0,2.7587,0.0,0.0,0.0,0.0,0.0,0.0,0.0,0.0,3.0731,3.123,3.109,3.0412,3.0264,3.0965,3.1015,3.1109,3.1326,3.1343,3.163,3.2344,3.2446,3.2649,3.3186,3.3254,3.3254,3.3271,3.3254,3.3254,3.3271,3.3322,3.3418,3.3315,3.3928,3.449,3.4583,3.5217,3.5591,3.5514,3.546,3.5388,3.5442,3.5503,3.5364,3.4783,3.4419,3.3923,3.3262,3.2815,3.252,3.2453,3.2387,3.2166,3.1603,3.1548,3.1709,3.2073,3.2027,3.1652,4.147,4.0919,4.0919,4.0511,3.9773,3.8489,3.7926,3.7868,3.7013,3.6122,3.5278,3.5083,3.4759,3.4361,3.4079,3.3609,3.2997,3.2962,3.2599,3.1953,3.1912,3.1912,3.1881,3.1367,3.1039,3.091,3.0373,3.0057,2.9919,2.9658,2.9549,2.9617,2.9391,2.9582,3.0176,0.0,0.0,0.0,2.7783,2.7332,2.646,2.6099,2.6315,2.7205,2.6224,0.0,2.6659,2.6531,2.6465,2.6494,2.6581,0.0,0.0,0.0,0.0,0.0,0.0,0.0,0.0,0.0,0.0,0.0,3.1106,3.0891,3.0008,3.0712,3.1447,3.1965,3.1371,3.0979,3.1134,3.1171,3.1427,3.2005,3.209,3.2395,3.3085,3.3186,3.3034,3.2564,3.2513,3.2513,3.2513,3.2513,3.2513,3.2534,3.2513,3.238,3.2113,3.2769,3.3643,3.473,3.488,3.4591,3.3954,3.3903,3.3961,3.387,3.4157,3.4203,3.3934,3.3827,3.3462,3.2632,3.2118,3.1598,3.109,3.0903,3.0974,3.0754,3.0721,3.0674,3.0549,3.0847,3.0817,4.0581,0.0,4.0256,4.0081,0.0,3.881,3.8435,3.839,3.7041,3.6137,3.5608,3.5947,3.5587,3.4716,3.4364,3.3845,3.3169,3.2863,3.2499,3.2094,3.201,3.2012,3.1981,3.1647,3.1271,3.0897,3.0552,3.0026,2.9339,2.9194,2.9011,2.8759,2.8704,2.8856,2.924,2.8872,2.8201,2.7327,2.7069,2.652,2.5668,2.5734,2.6041,2.6477,0.0,0.0,0.0,0.0,0.0,0.0,0.0,0.0,0.0,0.0,0.0,2.8185,2.9205,3.0009,3.0468,3.1164,3.1426,3.1114,3.1249,3.1116,3.0572,3.0951,3.1362,3.1701,3.1393,3.119,3.119,3.119,3.1343,3.1701,3.1769,3.1918,3.2239,3.2307,3.2171,3.1853,3.1752,3.1769,3.1769,3.1769,3.1831,3.1974,3.2012,3.2085,3.2231,3.2423,3.3055,3.4069,3.4143,3.3864,3.3487,3.3226,3.3114,3.3122,3.3136,3.3017,3.2721,3.2686,3.2439,3.1759,3.1386,3.1108,3.0825,3.0692,3.0692,3.0692,3.0692,3.0671,3.051,3.0478,3.0341,3.9781,3.9781,3.9781,3.9833,3.9884,3.9286,3.9028,3.8903,0.0,0.0,0.0,3.6904,3.655,3.5407,3.4678,3.4089,3.3647,3.2801,3.241,3.237,3.2163,3.2081,3.2066,3.1822,3.1414,3.0855,3.0639,2.9928,2.8855,2.8718,2.8445,2.806,2.7908,2.7923,2.8014,2.7801,2.7594,2.7394,2.662,2.5987,2.5538,2.5894,2.6235,2.659,2.629,2.6533,2.7287,2.6821,2.6788,2.7305,2.7357,2.734,2.7372,2.8016,2.856,2.8846,2.9499,3.0302,3.1142,3.1252,3.1269,3.119,3.119,3.119,3.119,3.119,3.119,3.119,3.119,3.119,3.119,3.119,3.119,3.119,3.119,3.1207,3.1207,3.119,3.1258,3.119,3.1224,3.119,3.1224,3.1224,3.1291,3.1543,3.1688,3.1968,3.2584,3.267,3.2807,3.3367,3.3523,3.3414,3.3271,3.3147,3.2876,3.2731,3.2503,3.2127,3.175,3.1528,3.1302,3.0847,3.0711,3.0624,3.0523,3.0369,3.0506,3.049,3.0506,3.0509,3.0549,3.0174,2.9863,4.0062,4.0062,4.0062,4.0062,4.0037,3.9418,3.8892,3.8407,3.8108,3.7649,3.7138,3.7046,3.6682,3.6007,3.5249,3.4832,3.4701,3.3724,3.3144,0.0,3.2559,3.2342,3.2281,3.1163,3.0527,3.0223,2.9154,2.8463,2.8111,2.7595,2.7567,2.8039,2.762,2.7597,2.8048,2.7031,2.6932,2.7887,2.8313,2.8681,2.8954,2.8831,2.8654,2.8468,2.7781,2.7192,2.6757,2.6691,2.6691,2.6723,2.6775,2.6775,2.6757,2.7198,2.7878,2.8894,2.9609,3.0335,3.1114,3.1468,3.1506,3.123,3.119,3.119,3.119,3.119,3.119,3.119,3.121,3.119,3.119,3.119,3.119,3.119,3.119,3.119,3.119,3.119,3.119,3.119,3.119,3.119,3.119,3.119,3.123,3.131,3.1638,3.1986,3.2617,3.3068,3.3274,3.3378,3.3393,3.3238,3.3019,3.3162,3.2943,3.2452,3.2282,3.1987,3.1609,3.1219,3.0762,3.0157,2.9978,2.9683,2.9178,2.8925,2.9078,2.9147,2.9147,2.9133,2.928,2.9116,2.9197,4.0113,4.0113,4.0113,4.0113,4.007,3.9893,3.9454,3.8941,3.9332,3.8579,3.7206,3.7386,3.6729,3.5456,3.507,3.4732,3.4455,3.3937,3.3541,3.3198,3.2949,3.2466,3.1824,3.1228,3.034,2.925,2.9014,2.8443,2.7682,2.7361,2.7592,2.8238,2.8001,2.7832,2.7755,2.7525,2.7493,2.769,2.7741,2.8054,2.8615,2.9034,2.8828,2.7948,2.7786,2.7417,2.6691,2.6674,2.6691,2.6674,2.6674,2.6691,2.6674,2.7199,2.7777,2.8316,2.9041,2.9625,2.9993,3.016,3.0348,3.0584,3.0598,3.0784,3.1173,3.137,3.1389,3.123,3.1368,3.1372,3.1213,3.119,3.119,3.119,3.119,3.119,3.119,3.119,3.119,3.119,3.119,3.119,3.119,3.119,3.1291,3.1466,3.1914,3.2332,3.2518,3.2829,3.3144,3.3316,3.3223,3.3037,3.2829,3.2586,3.2368,3.2003,3.1477,3.1088,3.0798,3.0366,2.985,2.9511,2.9353,2.9216,2.8811,2.8811,2.8811,2.8827,2.8827,2.8848,2.8849,2.8598,2.8285,4.0188,4.0121,4.0171,4.0196,4.0196,4.0288,3.9994,3.9479,4.0169,3.9172,3.7285,3.7691,3.6969,3.5392,3.5018,3.4745,3.4439,3.4194,3.3928,3.3659,3.3345,3.2651,3.1695,3.1337,3.0268,2.8845,2.9061,2.859,2.7519,2.7396,2.7565,2.7934,2.795,2.7673,2.7219,2.7673,2.782,2.755,2.7469,2.7592,2.7933,2.896,2.8791,2.7402,2.7613,2.7469,2.6759,2.6708,2.6708,2.6708,2.6708,2.6708,2.6725,2.7232,2.7621,2.7841,2.8383,2.8824,2.8976,2.8993,2.9247,2.9803,2.9854,3.0091,3.0637,3.1182,3.1392,3.1257,3.1428,3.1466,3.1249,3.119,3.119,3.119,3.119,3.119,3.119,3.119,3.119,3.119,3.119,3.1157,3.1004,3.0954,3.0972,3.1161,3.1772,3.2073,3.2085,3.218,3.2382,3.2919,3.2878,3.2651,3.255,3.2038,3.16,3.1416,3.0596,3.0108,2.9846,2.9365,2.8942,2.8822,2.8721,2.8586,2.8501,2.831,2.8259,2.8226,2.8084,2.806,2.8101,2.7872,2.7307,4.0387,4.0313,4.0412,4.0468,4.0427,4.0451,4.0044,3.9525,4.0161,3.9197,3.7297,3.7854,3.7683,3.6809,3.5677,3.5374,3.5621,3.4807,3.4559,3.4745,3.3749,3.2959,3.2324,3.1134,3.014,2.9437,2.8978,2.8372,2.7504,2.7481,2.7157,2.6626,2.6511,2.6595,2.6518,2.6633,2.7107,2.804,2.909,2.927,2.8726,2.9781,2.9546,2.7804,2.7772,2.7452,2.6776,2.6708,2.6708,2.6708,2.6708,2.6708,2.6708,2.6776,2.7114,2.7739,2.7874,2.8213,2.8891,2.8993,2.8993,2.9077,2.9094,2.9162,2.935,3.0155,3.0862,3.1104,3.1249,3.1201,3.121,3.1157,3.1089,3.1004,3.1106,3.119,3.1089,3.119,3.119,3.119,3.1021,3.0937,3.0328,3.0192,3.0071,2.9919,3.0295,3.0683,3.1039,3.0841,3.0943,3.1944,3.2298,3.2144,3.1881,3.1515,3.0976,3.0385,2.9862,2.9416,2.9117,2.8959,2.879,2.8027,2.7908,2.774,2.7214,2.6671,2.6668,2.7077,2.6764,2.6094,2.6319,2.6671,2.6516,4.0485,4.0419,4.0485,4.0253,3.9877,3.9898,3.947,3.8877,3.9227,3.8597,3.7463,3.7669,3.731,3.642,3.588,3.5567,3.5339,3.5341,3.4773,3.393,3.3738,3.3037,3.1725,3.1144,3.028,2.9422,2.9416,2.9076,2.8471,2.8637,2.8338,2.7541,2.7762,2.7634,2.7111,2.7673,2.8048,2.8145,2.9951,3.0328,2.9408,3.0296,3.0356,2.9225,2.8297,2.7672,2.735,2.6928,2.6708,2.6708,2.6708,2.6708,2.6708,2.6708,2.6843,2.7131,2.7148,2.73,2.7639,2.7656,2.7842,2.8247,2.8298,2.8653,2.9567,3.0073,3.0532,3.1065,3.0978,3.0764,3.0586,3.0565,3.0378,3.0057,3.0277,3.0395,2.9924,2.9907,2.9907,2.9907,2.989,2.9803,2.9516,2.945,2.9369,2.9279,2.9523,2.9811,2.9903,2.9832,2.997,3.0231,3.0349,3.0799,3.128,3.0589,3.0103,2.9901,2.9186,2.8422,2.8318,2.7876,2.7486,2.7215,2.7232,2.7131,2.6843,2.6624,2.6522,2.6539,2.6333,2.5908,2.607,2.6228,2.607,4.0662,4.0707,4.0558,4.0169,3.9646,3.9376,3.8854,3.8253,3.8486,3.7998,3.7063,3.7327,3.6891,3.5988,3.5814,3.5467,3.509,3.533,3.4678,3.3339,3.3625,3.2919,3.1505,3.1181,3.0512,2.9654,2.9924,2.9812,2.9254,2.9165,2.8947,2.8441,2.8592,2.8335,2.7698,2.8525,2.8866,2.871,3.057,3.102,3.0166,3.0729,3.0751,2.9786,2.85,2.7789,2.779,2.7097,2.6708,2.6708,2.6708,2.6708,2.6708,2.6708,2.6708,2.6708,2.6708,2.6708,2.6708,2.6894,2.7249,2.7739,2.7789,2.8348,2.9482,2.9803,3.0142,3.0736,3.0457,3.0082,3.0131,2.9922,2.955,2.9094,2.9516,2.955,2.9111,2.8993,2.9044,2.8993,2.9128,2.8891,2.8723,2.8574,2.8458,2.8423,2.8716,2.904,2.8783,2.8853,2.8836,2.8948,2.8759,2.9103,3.048,2.9739,2.9128,2.8975,2.8299,2.7555,2.7486,2.6979,2.6725,2.6928,2.6759,2.6674,2.6657,2.6657,2.647,2.6385,2.6263,2.6157,2.6122,2.6192,2.6087,4.103,4.1171,4.0657,4.0359,4.0254,3.9118,3.8215,3.7577,3.8215,3.7494,3.61,3.6938,3.6791,3.5671,3.5372,3.5232,3.5094,3.4539,3.414,3.3771,3.3291,3.2701,3.2202,3.1469,3.0804,3.0307,3.0336,3.0285,2.9995,2.8764,2.829,2.8848,2.8396,2.7944,2.7959,2.8595,2.9037,2.9527,3.0845,3.14,3.1125,3.1137,3.055,2.9314,2.8281,2.7891,2.7807,2.7114,2.6725,2.6725,2.6708,2.6708,2.6708,2.6708,2.6708,2.6708,2.6708,2.6708,2.6776,2.7266,2.7705,2.7773,2.7756,2.8146,2.9027,2.9162,2.9465,3.0108,2.9605,2.9402,2.9837,2.9397,2.901,2.8874,2.8976,2.8993,2.8942,2.8756,2.8959,2.8891,2.879,2.8502,2.7926,2.7568,2.7396,2.728,2.7405,2.7757,2.7997,2.7622,2.7811,2.8355,2.8065,2.7522,2.8708,2.8504,2.801,2.801,2.774,2.6843,2.6759,2.6708,2.6708,2.6708,2.6708,2.6674,2.6641,2.6453,2.6157,2.6105,2.6367,2.6333,2.6139,2.6453,2.6367,4.1512,4.1775,4.0817,4.013,3.9578,3.8417,3.7439,3.6766,3.6991,3.6732,3.6212,3.6547,3.6474,3.5981,3.4964,3.449,3.4493,3.4217,3.3576,3.2748,3.28,3.2569,3.1991,3.1661,3.1449,3.1295,3.1274,3.1181,3.105,3.0468,3.0138,3.0065,2.9871,2.9539,2.9303,2.9683,3.0017,3.0223,3.0965,3.1305,3.1205,3.119,3.092,3.0398,2.9211,2.8789,2.9244,2.806,2.7401,2.7384,2.6962,2.6708,2.6708,2.6708,2.6708,2.6708,2.6708,2.6708,2.6725,2.6962,2.7317,2.7722,2.7368,2.7689,2.8705,2.901,2.9314,2.977,2.9414,2.9178,2.9144,2.8704,2.8044,2.7672,2.7943,2.8061,2.7655,2.752,2.7537,2.752,2.7537,2.7385,2.725,2.6994,2.6907,2.6909,2.7056,2.7258,2.7346,2.716,2.7313,2.7555,2.7317,2.7063,2.7437,2.7402,2.7165,2.7418,2.7283,2.6911,2.6708,2.6708,2.6708,2.6708,2.6708,2.6708,2.6657,2.6641,2.628,2.6349,2.6573,2.6419,2.6139,2.6419,2.6367,4.1724,4.1819,4.0867,3.9919,3.8997,3.7812,3.6911,3.6322,3.6284,3.6216,3.6114,3.6237,3.622,3.5874,3.4671,3.4096,3.4027,3.3596,3.2802,3.1938,3.2559,3.2507,3.1938,3.2041,3.2024,3.1834,3.18,3.1746,3.1653,3.1559,3.137,3.1083,3.1041,3.0825,3.0526,3.0727,3.0828,3.0845,3.1078,3.1213,3.121,3.119,3.119,3.1055,3.0228,2.9803,3.0091,2.8856,2.8043,2.7773,2.7334,2.6945,2.6725,2.6708,2.6708,2.6708,2.6708,2.6708,2.6742,2.6928,2.7283,2.7722,2.7384,2.7638,2.8824,2.879,2.9008,2.9381,2.9059,2.8602,2.8467,2.7891,2.7249,2.6843,2.7148,2.7232,2.6793,2.6725,2.6742,2.6793,2.681,2.6742,2.6708,2.6759,2.6825,2.6909,2.6991,2.704,2.7088,2.7137,2.7119,2.7039,2.7058,2.6958,2.7096,2.7012,2.686,2.7046,2.7182,2.6843,2.6708,2.6708,2.6708,2.6708,2.6708,2.6708,2.6725,2.6725,2.6742,2.6742,2.6691,2.659,2.6435,2.6367,2.6367,4.1578,4.1488,4.08,3.9751,3.8644,3.74,3.6655,3.6343,3.6284,3.6092,3.5854,3.6114,3.6058,3.5474,3.4641,3.4128,3.3889,3.2852,3.2162,3.199,3.2593,3.2593,3.2059,3.2541,3.2472,3.1921,3.1852,3.1817,3.1781,3.1671,3.1579,3.156,3.15,3.1406,3.1443,3.1404,3.1387,3.1293,3.1276,3.1274,3.121,3.121,3.121,3.119,3.1055,3.0717,3.0125,2.9381,2.8653,2.7976,2.7773,2.7435,2.681,2.6708,2.6708,2.6708,2.6708,2.6708,2.6776,2.7283,2.757,2.7773,2.7705,2.7926,2.8535,2.8298,2.823,2.8704,2.8383,2.7891,2.779,2.7249,2.6793,2.6708,2.681,2.6776,2.6725,2.6708,2.6708,2.6708,2.6708,2.6708,2.6708,2.6775,2.6859,2.6958,2.7039,2.712,2.7218,2.7283,2.7234,2.7066,2.6882,2.6732,2.6788,2.6842,2.6758,2.6725,2.6793,2.6708,2.6708,2.6708,2.6708,2.6708,2.6758,2.6758,2.6792,2.6808,2.6842,2.6842,2.6792,2.6759,2.6657,2.6573,2.659,4.1341,4.1147,3.9824,3.9065,3.852,3.7134,3.6409,3.6301,3.6284,3.6199,3.6114,3.622,3.5941,3.5397,3.4967,3.4596,3.4096,3.3561,3.3093,3.2697,3.2817,3.3093,3.3285,3.3041,3.2766,3.2593,3.2559,3.2283,3.1886,3.178,3.1744,3.1727,3.1707,3.1653,3.1578,3.156,3.1521,3.1462,3.1426,3.1387,3.1291,3.1274,3.1235,3.121,3.119,3.0852,3.0142,2.9888,2.9397,2.8619,2.8095,2.7469,2.686,2.6708,2.6708,2.6708,2.6708,2.6708,2.6725,2.6928,2.73,2.757,2.7351,2.7452,2.8027,2.7942,2.7891,2.8163,2.7942,2.7789,2.7689,2.7131,2.6725,2.6708,2.6708,2.6708,2.6708,2.6708,2.6708,2.6708,2.6708,2.6708,2.6708,2.6758,2.6808,2.689,2.6972,2.7037,2.7198,2.7126,2.7006,2.6563,2.6464,2.6315,2.6237,2.6073,2.589,2.5995,2.6183,2.6387,2.6471,2.6539,2.6573,2.6742,2.6792,2.6842,2.6875,2.6908,2.6942,2.6926,2.6876,2.6826,2.6775,2.6742,2.6725,4.1051,4.0662,3.9941,3.9068,3.8273,3.7455,3.6917,3.644,3.6423,3.6423,3.6381,3.6364,3.6118,3.5611,3.5318,3.4938,3.4527,3.451,3.4251,3.3857,3.3768,3.3923,3.4101,3.3634,3.3375,3.3356,3.3354,3.2955,3.2248,3.2472,3.2369,3.1921,3.2059,3.2004,3.1724,3.1654,3.1634,3.1557,3.1538,3.15,3.1387,3.1332,3.1274,3.1232,3.123,3.0818,3.0176,3.0089,2.9617,2.8636,2.7807,2.7165,2.6742,2.6708,2.6708,2.6708,2.6691,2.6708,2.6775,2.6809,2.6962,2.7301,2.7063,2.6995,2.7385,2.7487,2.7453,2.7402,2.7385,2.7367,2.73,2.7012,2.6708,2.6708,2.6708,2.6708,2.6708,2.6708,2.6708,2.6708,2.6708,2.6708,2.6708,2.6691,2.6606,2.6585,2.6565,2.6441,2.6497,2.637,2.6077,2.5835,2.5719,2.5607,2.5499,2.5284,2.5001,2.5211,2.5487,2.5777,2.5998,2.6099,2.615,2.6673,2.6876,2.6909,2.6958,2.7006,2.7023,2.6991,2.6926,2.6892,2.6859,2.6742,2.664,4.0818,4.0154,4.0822,3.9774,3.799,3.8455,3.7881,3.6702,3.6647,3.6626,3.6523,3.6444,3.6316,3.6063,3.5542,3.5266,3.5197,3.5249,3.531,3.5281,3.5209,3.495,3.4441,3.4441,3.4406,3.4285,3.4224,3.3699,3.2871,3.3371,3.3266,3.199,3.2334,3.2472,3.1885,3.18,3.1727,3.1634,3.1617,3.1595,3.15,3.1389,3.1315,3.1295,3.1235,3.0871,3.0226,2.9871,2.9193,2.7942,2.7199,2.6776,2.6708,2.6708,2.6725,2.6708,2.6691,2.6656,2.6791,2.6706,2.679,2.6823,2.6942,2.6958,2.6978,2.6978,2.6945,2.686,2.681,2.6776,2.6776,2.6725,2.6708,2.6708,2.6708,2.6708,2.6708,2.6708,2.6708,2.6708,2.6708,2.6708,2.6674,2.664,2.6284,2.5976,2.5868,2.5603,2.5403,2.5358,2.5094,2.4956,2.4907,2.4864,2.4773,2.4333,2.4103,2.4405,2.4701,2.501,2.5691,2.5946,2.6181,2.6671,2.6975,2.7008,2.7041,2.7071,2.7071,2.7007,2.6975,2.6959,2.6859,2.6741,2.6589,4.0944,4.0218,4.0689,4.015,3.9022,3.9013,3.8237,3.7069,3.6956,3.6816,3.6547,3.6402,3.607,3.5559,3.589,3.5714,3.5456,3.577,3.6087,3.617,3.6187,3.5778,3.5424,3.5757,3.5687,3.5198,3.5032,3.4367,3.3138,3.3323,3.2817,3.1834,3.2059,3.2059,3.1817,3.18,3.1781,3.1763,3.1746,3.169,3.1596,3.1542,3.1449,3.1315,3.1276,3.0859,3.0057,2.8973,2.8297,2.7824,2.7097,2.6708,2.6725,2.6792,2.6842,2.6791,2.6416,2.6142,2.6175,2.6225,2.6175,2.611,2.6669,2.6876,2.6758,2.6758,2.6742,2.6708,2.6708,2.6708,2.6708,2.6708,2.6708,2.6708,2.6708,2.6708,2.6708,2.6708,2.6708,2.6708,2.6674,2.664,2.6488,2.6251,2.5861,2.5586,2.5272,2.4938,2.4685,2.4655,2.4557,2.4232,2.4098,2.407,2.389,2.3429,2.3302,2.3608,2.3874,2.4117,2.5125,2.6162,2.6533,2.6989,2.7072,2.7105,2.7137,2.7168,2.7105,2.7007,2.6959,2.6926,2.6792,2.6674,2.6573,4.1315,4.0256,4.0854,4.0478,3.9548,3.9362,3.8598,3.7613,3.7415,3.7267,3.7055,3.6756,3.6391,3.604,3.6181,3.6059,3.5787,3.6301,3.6536,3.6585,3.667,3.6449,3.624,3.6571,3.6344,3.5697,3.5826,3.5018,3.3904,3.3794,3.3341,3.2491,3.2248,3.211,3.18,3.18,3.18,3.18,3.18,3.1746,3.169,3.1635,3.156,3.1428,3.1319,3.0832,2.9673,2.8233,2.7436,2.7335,2.7029,2.6809,2.6825,2.6909,2.6925,2.6908,2.6565,2.6273,2.6048,2.6185,2.6219,2.6116,2.6612,2.6906,2.6875,2.6825,2.6808,2.6708,2.6691,2.6708,2.6708,2.6708,2.6708,2.6708,2.6708,2.6691,2.6691,2.6404,2.6285,2.625,2.6267,2.6148,2.596,2.5723,2.5382,2.4919,2.4449,2.4149,2.3867,2.4004,2.4022,2.3646,2.3422,2.3412,2.3399,2.3058,2.3024,2.3264,2.3805,2.3881,2.4859,2.6175,2.663,2.6949,2.71,2.7184,2.7168,2.7152,2.7071,2.6991,2.6942,2.6859,2.6741,2.6404,2.6319,4.1768,4.0415,4.1282,4.0935,4.0024,3.9949,3.9402,3.8266,3.8126,3.7967,3.7738,3.7339,3.7039,3.7038,3.6586,3.6409,3.6419,3.6623,3.6676,3.6751,3.6871,3.6849,3.6479,3.6689,3.6516,3.6077,3.6466,3.5722,3.4775,3.4978,3.4451,3.3319,3.2938,3.2541,3.2093,3.1886,3.18,3.18,3.18,3.18,3.1746,3.169,3.1617,3.1542,3.1408,3.0619,2.9325,2.8032,2.7283,2.7079,2.696,2.6926,2.6975,2.7008,2.7007,2.6887,2.6698,2.6319,2.6141,2.6397,2.6585,2.6237,2.6685,2.7135,2.6923,2.6806,2.6587,2.6454,2.664,2.6708,2.6742,2.6725,2.6742,2.6708,2.6691,2.6606,2.6488,2.6014,2.5607,2.5586,2.5586,2.5276,2.5101,2.5081,2.5134,2.4251,2.3796,2.3459,2.323,2.3247,2.3202,2.3009,2.2871,2.2785,2.2785,2.275,2.2888,2.3137,2.3904,2.4359,2.5032,2.5994,2.6503,2.686,2.7082,2.7168,2.7119,2.707,2.7006,2.6941,2.6876,2.6809,2.6674,2.615,2.5896,4.1646,4.1356,4.2192,4.235,4.2122,4.2085,4.1027,3.9349,3.9185,3.8602,3.7933,3.7542,3.7432,3.7377,3.6997,3.6939,3.7036,3.6739,3.6506,3.6766,3.7206,3.6815,3.6375,3.6613,3.6808,3.6611,3.6626,3.6162,3.5459,3.5114,3.4806,3.3958,3.3179,3.2835,3.261,3.2041,3.18,3.18,3.18,3.18,3.18,3.1781,3.169,3.1598,3.1468,3.0643,2.95,2.8885,2.8494,2.7946,2.7366,2.7061,2.7093,2.7089,2.7087,2.6898,2.6121,2.5721,2.5926,2.5855,2.5685,2.6084,2.621,2.639,2.6857,2.6264,2.5945,2.5964,2.6336,2.664,2.6825,2.6859,2.6842,2.6774,2.6416,2.6042,2.5925,2.574,2.5365,2.5058,2.4917,2.4846,2.4656,2.4274,2.4052,2.3559,2.3209,2.2819,2.2705,2.2646,2.2685,2.2712,2.2712,2.2712,2.2712,2.2815,2.3078,2.3388,2.4115,2.4981,2.5639,2.6138,2.6755,2.7013,2.7116,2.7135,2.7103,2.7006,2.6942,2.6892,2.6792,2.6674,2.6437,2.5913,2.5287,4.1386,4.107,4.1516,4.1683,4.1605,4.1219,4.0463,3.956,3.9329,3.8936,3.8385,3.7997,3.7843,3.779,3.7396,3.7246,3.7111,3.6753,3.6647,3.6888,3.7131,3.6648,3.6052,3.6346,3.6665,3.6178,3.6549,3.624,3.5653,3.5359,3.5068,3.4545,3.349,3.2938,3.28,3.2198,3.1834,3.18,3.18,3.18,3.18,3.18,3.1744,3.1532,3.1289,3.0499,2.9401,2.8905,2.863,2.8304,2.786,2.757,2.755,2.7375,2.7201,2.7027,2.6613,2.5988,2.6057,2.6109,2.6146,2.6031,2.6019,2.6148,2.6189,2.5667,2.5198,2.5268,2.5742,2.6368,2.6874,2.6959,2.6942,2.6822,2.6309,2.5746,2.529,2.495,2.4829,2.4586,2.4462,2.4335,2.4059,2.3816,2.3425,2.3151,2.3072,2.2714,2.2674,2.2646,2.2685,2.2712,2.2712,2.2712,2.2712,2.2923,2.3353,2.3836,2.4525,2.5508,2.6423,2.6786,2.7148,2.72,2.72,2.712,2.7088,2.6992,2.6892,2.6809,2.6691,2.6522,2.6099,2.5406,2.4763,4.0807,4.0306,4.0368,4.0471,4.0476,4.0048,3.9733,3.9366,3.9369,3.9346,3.8906,3.8489,3.8263,3.8147,3.7506,3.707,3.6705,3.6643,3.6589,3.6893,3.705,3.6354,3.5795,3.6186,3.6173,3.4984,3.6055,3.62,3.5841,3.557,3.5555,3.5131,3.395,3.336,3.3011,3.2305,3.1873,3.1818,3.18,3.18,3.18,3.18,3.1763,3.1587,3.1278,3.0643,2.9815,2.9265,2.8801,2.8731,2.8577,2.8594,2.8524,2.7937,2.7351,2.7316,2.6971,2.6695,2.6488,2.6644,2.6628,2.6096,2.5924,2.5811,2.5567,2.5028,2.4558,2.4598,2.4956,2.5631,2.6546,2.6478,2.6529,2.6444,2.5981,2.5314,2.4648,2.3913,2.3922,2.4396,2.4205,2.3993,2.3832,2.3605,2.3179,2.2821,2.2758,2.2703,2.2676,2.268,2.272,2.2712,2.2712,2.2712,2.2712,2.275,2.3233,2.3957,2.4695,2.5661,2.6678,2.7042,2.7214,2.7266,2.7234,2.7153,2.7072,2.6991,2.6892,2.6758,2.6471,2.6167,2.5592,2.4897,2.4288,3.9421,3.9933,4.0277,4.0773,4.1404,4.1887,4.1167,4.042,4.0611,4.0204,3.8966,3.874,3.8637,3.8305,3.7141,3.6268,3.6003,3.6073,3.6289,3.6596,3.6755,3.6197,3.5056,3.5945,3.588,3.525,3.5722,3.6235,3.6298,3.6212,3.6001,3.5814,3.4838,3.4145,3.3509,3.2819,3.2037,3.1837,3.18,3.18,3.18,3.18,3.18,3.1746,3.1558,3.1127,3.0592,3.0351,3.0317,3.0265,2.9644,2.9696,2.9679,2.8851,2.8023,2.742,2.6833,2.6661,2.6902,2.6575,2.6322,2.5914,2.5588,2.5163,2.4851,2.4308,2.3986,2.3886,2.3991,2.4394,2.5165,2.5579,2.5405,2.5182,2.4886,2.4333,2.3979,2.3532,2.3306,2.3924,2.3849,2.3757,2.3667,2.3457,2.3013,2.2762,2.2737,2.2699,2.2685,2.2724,2.2789,2.275,2.2712,2.2712,2.2712,2.275,2.3026,2.3784,2.4543,2.5316,2.623,2.6902,2.7195,2.7264,2.725,2.7152,2.7071,2.7007,2.6925,2.6825,2.6335,2.5795,2.5186,2.4592,2.3866,3.8911,3.8946,3.914,3.9423,3.9858,4.0363,4.0218,3.9623,3.9989,3.9752,3.911,3.8866,3.8667,3.8259,3.7707,3.6844,3.6227,3.6115,3.6093,3.6041,3.6053,3.5378,3.3944,3.5114,3.4706,3.4202,3.4693,3.5821,3.6412,3.6346,3.6201,3.5794,3.503,3.4329,3.366,3.2791,3.2196,3.1909,3.18,3.18,3.18,3.18,3.18,3.18,3.1748,3.1421,3.08,3.0213,3.03,3.042,2.992,2.9817,2.9748,2.942,2.861,2.7868,2.7126,2.6833,2.7195,2.6885,2.6766,2.6597,2.5911,2.5313,2.4773,2.4196,2.3651,2.3633,2.3716,2.419,2.5448,2.5394,2.5721,2.5857,2.5097,2.4442,2.4204,2.365,2.3636,2.3694,2.3464,2.3495,2.3681,2.3353,2.2884,2.2712,2.2712,2.2712,2.2712,2.2923,2.3078,2.3043,2.3039,2.3043,2.3009,2.2957,2.3026,2.3698,2.4422,2.5195,2.5954,2.6713,2.7109,2.7282,2.7234,2.7168,2.7104,2.7023,2.6975,2.6841,2.6249,2.5641,2.4965,2.4288,2.3628,3.8506,3.8,3.8068,3.8101,3.8152,3.8394,3.8538,3.8548,3.8785,3.8918,3.8785,3.8574,3.8282,3.7905,3.7333,3.672,3.6118,3.5734,3.5356,3.518,3.5141,3.4376,3.3588,3.3604,3.3885,3.3412,3.4204,3.4915,3.5648,3.6073,3.5988,3.5766,3.5127,3.4618,3.4003,3.3178,3.2492,3.2101,3.1817,3.18,3.18,3.18,3.18,3.18,3.18,3.1524,3.1007,3.0558,3.0541,3.0644,3.03,2.9782,2.9713,2.9455,2.9006,2.8403,2.7696,2.7401,2.7282,2.7264,2.7059,2.6735,2.6232,2.5513,2.4677,2.3876,2.3443,2.3512,2.3512,2.3801,2.4735,2.5249,2.5525,2.568,2.5129,2.4698,2.4525,2.4232,2.4112,2.3908,2.3371,2.3388,2.3733,2.325,2.2763,2.2712,2.2712,2.2712,2.2798,2.3353,2.3526,2.3474,2.3457,2.3474,2.3405,2.3267,2.3371,2.3698,2.4405,2.5143,2.5868,2.6609,2.6937,2.7315,2.7299,2.725,2.7153,2.7071,2.7024,2.6737,2.6128,2.5623,2.5168,2.4421,2.3623,3.7667,3.7596,3.7929,3.8101,3.8066,3.8059,3.8129,3.8114,3.8054,3.8265,3.8206,3.7632,3.7353,3.7057,3.5434,3.427,3.3778,3.3923,3.4146,3.43,3.4322,3.3908,3.3246,3.3869,3.3521,3.3082,3.4244,3.4673,3.4923,3.5471,3.5856,3.576,3.5771,3.5739,3.4776,3.3546,3.312,3.2686,3.211,3.18,3.18,3.18,3.18,3.18,3.1783,3.1731,3.1524,3.1231,3.1317,3.1334,3.0869,3.0541,3.0334,2.9196,2.8661,2.8213,2.7764,2.7315,2.7315,2.7315,2.7059,2.6511,2.5734,2.4807,2.4073,2.3399,2.2944,2.2806,2.2858,2.3099,2.3543,2.3353,2.3302,2.3836,2.4353,2.4163,2.4112,2.466,2.4574,2.4456,2.4008,2.3905,2.4043,2.3319,2.2712,2.2712,2.2746,2.2832,2.3026,2.3698,2.4319,2.437,2.4129,2.4095,2.3871,2.3715,2.3767,2.3922,2.4439,2.5143,2.5833,2.6523,2.704,2.7315,2.7315,2.7299,2.7234,2.7153,2.7088,2.675,2.6259,2.5908,2.5608,2.4709,2.3803,3.6799,3.7189,3.6914,3.7058,3.7362,3.677,3.6729,3.6999,3.679,3.6675,3.6721,3.6544,3.6331,3.5905,3.478,3.4141,3.3675,3.364,3.3575,3.3595,3.3597,3.3251,3.2731,3.2836,3.2695,3.2919,3.3423,3.3807,3.4119,3.5127,3.5993,3.5706,3.5432,3.4869,3.4688,3.3388,3.2684,3.2239,3.1938,3.1817,3.18,3.18,3.18,3.18,3.18,3.18,3.1714,3.1334,3.1214,3.1041,3.0455,2.9799,2.9403,2.873,2.8265,2.773,2.7489,2.7315,2.7315,2.7315,2.7025,2.6682,2.5958,2.5131,2.4015,2.315,2.2712,2.2716,2.2712,2.2854,2.3181,2.3319,2.3905,2.4232,2.4112,2.4267,2.4405,2.4643,2.4867,2.4781,2.4749,2.4749,2.4732,2.4422,2.3988,2.3798,2.3884,2.4005,2.4109,2.4405,2.4991,2.5473,2.5129,2.4784,2.4456,2.4215,2.4267,2.4405,2.4612,2.5264,2.585,2.6454,2.7039,2.7315,2.7315,2.7299,2.7299,2.7201,2.7104,2.678,2.6423,2.6173,2.5873,2.5225,2.4507,3.6057,3.6357,3.5776,3.5881,3.6306,3.5244,3.5243,3.5865,3.5289,3.5157,3.5362,3.548,3.525,3.4837,3.4516,3.4233,3.4118,3.421,3.3865,3.3486,3.3171,3.2839,3.2457,3.2213,3.2213,3.2143,3.3048,3.3326,3.3878,3.4866,3.5797,3.5494,3.5303,3.4635,3.3792,3.3018,3.24,3.1906,3.1834,3.18,3.18,3.18,3.18,3.18,3.18,3.18,3.1679,3.1128,3.0766,3.061,2.9748,2.9041,2.861,2.823,2.7851,2.7471,2.7315,2.7315,2.7315,2.7297,2.7211,2.6782,2.6006,2.4681,2.3681,2.2957,2.2712,2.2712,2.2712,2.3009,2.3353,2.344,2.3715,2.4163,2.4574,2.4798,2.4991,2.5195,2.5574,2.5902,2.5885,2.5799,2.5747,2.5678,2.5385,2.504,2.5023,2.5126,2.5212,2.5264,2.5695,2.6214,2.6178,2.5833,2.5592,2.5264,2.5143,2.4954,2.5143,2.5436,2.6023,2.6592,2.7177,2.7315,2.7315,2.7315,2.7299,2.7217,2.7117,2.6914,2.671,2.6473,2.6116,2.5552,2.5183,3.5406,3.4864,3.4794,3.4812,3.4899,3.3986,3.4074,3.4744,3.3825,3.4058,3.4813,3.4713,3.4205,3.3822,3.399,3.4114,3.4211,3.4338,3.4145,3.3864,3.3512,3.3054,3.2598,3.2371,3.2266,3.2283,3.2947,3.326,3.3623,3.4857,3.5222,3.4939,3.5089,3.5039,3.4315,3.3149,3.2378,3.1903,3.18,3.18,3.18,3.18,3.18,3.1783,3.1783,3.18,3.1748,3.0972,3.0438,3.0368,2.9299,2.8523,2.8178,2.7782,2.7437,2.7366,2.7315,2.7315,2.7315,2.7263,2.6868,2.604,2.506,2.4043,2.3078,2.2836,2.2712,2.2712,2.2712,2.2746,2.2836,2.2867,2.3216,2.3664,2.4232,2.4577,2.4956,2.5663,2.6109,2.6816,2.6919,2.6644,2.6575,2.6454,2.6212,2.5833,2.5712,2.5799,2.5971,2.6092,2.6437,2.6833,2.704,2.6987,2.6952,2.6557,2.5833,2.5661,2.5816,2.5954,2.6212,2.6782,2.7315,2.7315,2.7315,2.7315,2.7315,2.7266,2.72,2.7151,2.6998,2.6794,2.6696,2.639,2.5987,3.4756,3.4233,3.3754,3.3988,3.4618,3.3354,3.3248,3.3722,3.3018,3.3036,3.3858,3.3622,3.3515,3.3506,3.36,3.389,3.4159,3.4106,3.4339,3.4464,3.4252,3.3739,3.3247,3.2915,3.2792,3.2599,3.3072,3.344,3.3562,3.4885,3.4974,3.4928,3.4871,3.4596,3.3958,3.3053,3.2216,3.1938,3.18,3.18,3.18,3.18,3.18,3.1783,3.1231,3.1162,3.0989,3.0334,2.9799,2.9282,2.8696,2.8247,2.7851,2.7437,2.7316,2.7315,2.7315,2.7315,2.728,2.7194,2.673,2.5626,2.4816,2.3991,2.2836,2.2716,2.2712,2.2712,2.2798,2.2919,2.2767,2.2767,2.294,2.3302,2.3733,2.4215,2.4939,2.5732,2.6232,2.6799,2.7092,2.7142,2.7177,2.7211,2.6918,2.6624,2.6523,2.6454,2.6592,2.6695,2.6937,2.7075,2.7263,2.7315,2.7263,2.6799,2.6316,2.6385,2.6454,2.6506,2.6592,2.6885,2.7315,2.7315,2.7315,2.7315,2.7315,2.7315,2.7282,2.7233,2.7217,2.7149,2.7103,2.7023,2.6685,3.4295,3.3743,3.3187,3.334,3.3846,3.2948,3.2755,3.3055,3.2753,3.275,3.3214,3.3151,3.331,3.3606,3.3846,3.4418,3.4791,3.4803,3.5137,3.5196,3.5005,3.4534,3.4075,3.3563,3.3051,3.2965,3.3161,3.3494,3.3546,3.5016,3.5084,3.4695,3.4337,3.4206,3.35,3.2577,3.18,3.18,3.18,3.18,3.18,3.18,3.18,3.1696,3.1127,3.08,3.0472,2.9817,2.9023,2.861,2.8161,2.7815,2.7522,2.7315,2.7315,2.7315,2.7315,2.7315,2.7246,2.6678,2.6178,2.5229,2.4367,2.3629,2.306,2.2888,2.3147,2.3147,2.3264,2.3367,2.3302,2.3371,2.3543,2.3991,2.3715,2.4129,2.5111,2.5939,2.6266,2.6695,2.6971,2.7315,2.7315,2.7315,2.7211,2.6987,2.6952,2.6901,2.6988,2.7075,2.7144,2.7263,2.7297,2.7315,2.728,2.6988,2.6764,2.6833,2.6885,2.6902,2.7023,2.7263,2.7315,2.7315,2.7315,2.7315,2.7315,2.7315,2.7315,2.7299,2.7283,2.725,2.7152,2.7054,2.7039,3.4119,3.3345,3.3309,3.3013,3.2719,3.2721,3.2706,3.2716,3.2963,3.3243,3.3476,3.3458,3.3684,3.405,3.428,3.4981,3.574,3.5542,3.5804,3.6261,3.5397,3.5126,3.4693,3.4101,3.3447,3.3835,3.374,3.3512,3.3547,3.488,3.5034,3.4681,3.4309,3.3884,3.3108,3.2252,3.1817,3.18,3.1818,3.18,3.18,3.18,3.1783,3.1438,3.0869,3.0455,2.9972,2.9075,2.8385,2.8161,2.7729,2.7453,2.7349,2.7315,2.7315,2.7315,2.7315,2.7315,2.7246,2.5919,2.5367,2.5143,2.4525,2.3578,2.3147,2.3336,2.3802,2.3836,2.425,2.466,2.4577,2.4319,2.4422,2.4458,2.4195,2.4524,2.5542,2.6058,2.6435,2.6838,2.7104,2.7315,2.7315,2.7315,2.7315,2.7263,2.7297,2.7315,2.7315,2.7315,2.7315,2.7315,2.7315,2.7315,2.7315,2.7315,2.7246,2.7282,2.7264,2.7195,2.7178,2.728,2.7315,2.7315,2.7315,2.7315,2.7315,2.7315,2.7315,2.7315,2.7315,2.7266,2.7168,2.7137,2.7173,3.4142,3.3638,3.3638,3.3379,3.3052,3.3078,3.3081,3.3019,3.3172,3.339,3.3616,3.3597,3.3773,3.4134,3.4357,3.4955,3.5647,3.5478,3.5721,3.6362,3.5502,3.5113,3.4803,3.4533,3.3916,3.3462,3.3334,3.3547,3.3511,3.4739,3.495,3.4597,3.3999,3.3278,3.2611,3.2016,3.1875,3.1857,3.1838,3.18,3.18,3.1783,3.1593,3.1145,3.0403,2.9817,2.9403,2.8383,2.7881,2.7779,2.7381,2.7378,2.7345,2.7345,2.733,2.7345,2.736,2.7378,2.7155,2.6413,2.5833,2.5525,2.5111,2.4422,2.4388,2.4422,2.4577,2.4643,2.4971,2.516,2.4836,2.4781,2.4876,2.5076,2.5119,2.5592,2.6257,2.6395,2.6656,2.7123,2.7465,2.7376,2.7346,2.733,2.733,2.7346,2.7329,2.7315,2.7315,2.7315,2.7315,2.7315,2.7315,2.7315,2.7315,2.7315,2.7315,2.7315,2.7315,2.728,2.7297,2.7315,2.7315,2.7315,2.7315,2.7315,2.7315,2.7315,2.7315,2.7315,2.7315,2.7266,2.7168,2.7288,2.7476,3.4252,3.3985,3.3947,3.3829,3.3602,3.3522,3.3522,3.356,3.3476,3.362,3.3863,3.3845,3.3935,3.4161,3.4271,3.4661,3.5373,3.4916,3.5473,3.6071,3.5406,3.5304,3.5243,3.4829,3.438,3.3745,3.361,3.3741,3.4038,3.4723,3.4916,3.4511,3.3598,3.2879,3.2301,3.209,3.193,3.1912,3.1857,3.1819,3.1801,3.1748,3.1576,3.1007,3.0231,2.9385,2.8746,2.8085,2.7423,2.7407,2.7407,2.7421,2.7405,2.739,2.7392,2.7438,2.7438,2.7423,2.7186,2.6997,2.6571,2.6471,2.6109,2.5523,2.521,2.5224,2.536,2.5463,2.5619,2.5757,2.5774,2.5722,2.5582,2.5792,2.6063,2.6538,2.6979,2.714,2.7102,2.7561,2.7569,2.7483,2.7438,2.736,2.7345,2.736,2.7376,2.736,2.7362,2.7346,2.7412,2.7513,2.7448,2.7433,2.74,2.7315,2.7315,2.7315,2.7417,2.7552,2.7315,2.7315,2.7315,2.7315,2.7315,2.7315,2.7315,2.7315,2.7315,2.7315,2.7315,2.7266,2.7168,2.7373,2.7629,3.4277,3.4237,3.4147,3.4055,3.4074,3.3766,3.3873,3.413,3.3921,3.3928,3.4111,3.4086,3.408,3.4111,3.416,3.4606,3.5089,3.4563,3.5181,3.5645,3.4955,3.534,3.5299,3.4807,3.4543,3.4744,3.4585,3.4057,3.4656,3.4811,3.4846,3.4389,3.3178,3.2617,3.2336,3.2214,3.2055,3.2002,3.1948,3.1911,3.1892,3.1838,3.1683,3.1182,3.0439,2.9712,2.9052,2.8337,2.7741,2.7531,2.7496,2.7478,2.7496,2.7496,2.7496,2.7496,2.7513,2.7452,2.7404,2.7249,2.7238,2.6982,2.6102,2.5399,2.5431,2.5957,2.6177,2.6417,2.6593,2.6957,2.7182,2.6818,2.6519,2.6691,2.6859,2.7323,2.7835,2.7968,2.7844,2.7844,2.7672,2.76,2.7659,2.76,2.7496,2.7615,2.7627,2.7569,2.7542,2.7454,2.7554,2.7857,2.7778,2.7601,2.762,2.7895,2.7773,2.7941,2.7976,2.8028,2.7705,2.7516,2.7654,2.7672,2.7417,2.7315,2.7315,2.7315,2.7315,2.7315,2.7332,2.7299,2.725,2.7508,2.7783,3.2653,3.2586,3.2511,3.2834,3.3294,3.3259,3.358,3.4148,3.4093,3.387,3.3373,3.3956,3.3807,3.341,3.3918,3.4309,3.4401,3.4383,3.4476,3.4531,3.4531,3.4624,3.4654,3.4652,3.4522,3.4353,3.4184,3.4064,3.4109,3.4394,3.4196,3.3634,3.2897,3.2511,3.2406,3.2354,3.2267,3.2161,3.2109,3.2019,3.2001,3.1983,3.1757,3.1202,3.0734,3.0004,2.9202,2.8657,2.8078,2.7648,2.7574,2.7554,2.7554,2.7526,2.7511,2.7572,2.7542,2.7496,2.7511,2.7498,2.7452,2.7436,2.6881,2.6885,2.6833,2.6814,2.7013,2.7135,2.7189,2.7398,2.7452,2.7226,2.7128,2.7271,2.7469,2.7829,2.8281,2.8391,2.8273,2.8087,2.789,2.7892,2.7946,2.7771,2.7701,2.7855,2.7943,2.7893,2.7912,2.7864,2.7925,2.8228,2.8528,2.8489,2.8833,2.9148,2.8798,2.8572,2.8687,2.8646,2.8314,2.8179,2.8209,2.8078,2.7823,2.7535,2.7315,2.7315,2.7332,2.7332,2.7333,2.7332,2.7366,2.7558,2.8075,3.1982,3.193,3.1835,3.2109,3.2462,3.2537,3.2834,3.3224,3.3262,3.2946,3.263,3.299,3.3157,3.315,3.3491,3.3881,3.4234,3.4253,3.4309,3.4309,3.4216,3.4271,3.4371,3.4473,3.4475,3.4215,3.4025,3.3975,3.3828,3.3404,3.3143,3.3476,3.2774,3.2579,3.254,3.2589,3.2639,3.2505,3.2387,3.2161,3.2126,3.2126,3.1742,3.1342,3.0958,3.0104,2.9545,2.9119,2.8227,2.7934,2.7927,2.7627,2.7627,2.76,2.7585,2.763,2.7615,2.7585,2.7587,2.7557,2.7509,2.7509,2.7524,2.7459,2.7426,2.7372,2.7422,2.7489,2.7507,2.7559,2.7529,2.7511,2.7627,2.7757,2.801,2.8268,2.8469,2.8663,2.8556,2.8367,2.8272,2.8269,2.8177,2.7986,2.7943,2.8134,2.8327,2.8433,2.8542,2.8671,2.8684,2.8858,2.929,2.9584,2.9971,3.0224,2.9849,2.9611,2.9672,2.9543,2.9086,2.9074,2.9296,2.8851,2.8247,2.8112,2.8096,2.7502,2.7333,2.7437,2.7609,2.7644,2.7575,2.7437,2.8127,3.1779,3.1731,3.1727,3.1663,3.1701,3.1701,3.1738,3.1682,3.1663,3.1663,3.1701,3.1831,3.224,3.25,3.2964,3.3454,3.3863,3.4067,3.4216,3.4216,3.4216,3.4216,3.4216,3.4228,3.4375,3.4425,3.4256,3.3818,3.3641,3.3289,3.3102,3.3424,3.2912,3.2673,3.2846,3.2862,3.2941,3.3003,3.2685,3.2403,3.2266,3.2179,3.2074,3.1725,3.1009,3.0203,3.0184,2.9409,2.8122,2.8368,2.8228,2.7736,2.7686,2.7686,2.7686,2.7686,2.7672,2.7659,2.763,2.7615,2.763,2.7615,2.7585,2.7644,2.7674,2.7615,2.76,2.76,2.7632,2.7632,2.7602,2.7572,2.7644,2.7789,2.8017,2.8286,2.8563,2.8797,2.8966,2.8889,2.9062,2.9007,2.8603,2.8455,2.8519,2.8601,2.8598,2.8763,2.9246,2.948,2.9795,2.9843,3.0238,3.0713,3.1026,3.1176,3.0886,3.0734,3.0799,3.0492,3.008,3.0209,3.0466,2.9928,2.9353,2.9171,2.9001,2.8391,2.7987,2.8023,2.8144,2.8092,2.7971,2.7868,2.8247,3.006,3.0093,3.0644,3.0883,3.0883,3.0883,3.0883,3.0809,3.0214,3.0363,3.0902,3.144,3.1552,3.144,3.25,3.3101,3.3361,3.3974,3.4179,3.4216,3.4216,3.4216,3.4216,3.4216,3.4303,3.4197,3.3979,3.3688,3.35,3.3242,3.3104,3.3319,3.3037,3.3065,3.3169,3.3184,3.3243,3.339,3.3214,3.2822,3.2559,3.246,3.234,3.17,3.0897,3.0478,3.0214,2.9388,2.8807,2.8754,2.8105,2.7771,2.7716,2.7716,2.7716,2.7716,2.7716,2.7686,2.7689,2.7689,2.7716,2.7786,2.7815,2.7858,2.7844,2.7728,2.7686,2.7672,2.7686,2.7701,2.7672,2.7659,2.7644,2.7803,2.7993,2.8304,2.8656,2.9021,2.9338,2.9611,2.9863,2.9669,2.9277,2.9059,2.9119,2.9083,2.8919,2.915,3.002,3.0529,3.125,3.1415,3.1518,3.1863,3.2141,3.2198,3.1942,3.2007,3.2094,3.1675,3.1128,3.1128,3.121,3.0998,3.0639,3.0304,2.985,2.9276,2.8969,2.8885,2.8903,2.8954,2.9041,2.8989,2.9127,2.9237,2.9011,2.9733,3.0065,3.0065,3.0065,3.0065,2.9983,2.9593,2.9638,3.0076,3.0511,3.066,3.066,3.1942,3.2797,3.3083,3.3844,3.4123,3.4216,3.4216,3.4216,3.4216,3.4179,3.4222,3.4124,3.3921,3.368,3.3522,3.3335,3.3276,3.3317,3.3317,3.3339,3.3443,3.3504,3.3501,3.3711,3.3597,3.3267,3.2787,3.2627,3.2335,3.165,3.0923,3.0507,3.0055,2.9386,2.9018,2.8684,2.8122,2.7789,2.7716,2.7716,2.7716,2.7716,2.7716,2.7716,2.7716,2.7745,2.7786,2.7858,2.7844,2.78,2.7936,2.7821,2.7701,2.7716,2.7886,2.7929,2.78,2.7742,2.7701,2.7774,2.8064,2.8394,2.915,2.988,3.0214,3.0532,3.0818,3.1063,3.0552,2.9814,2.9923,3.0216,2.9965,3.0075,3.084,3.1219,3.2058,3.2729,3.2666,3.283,3.3067,3.3144,3.3075,3.318,3.3199,3.2963,3.247,3.2111,3.1894,3.1897,3.1676,3.1087,3.0615,3.0088,2.9868,2.9782,2.9817,2.9868,2.9955,3.0024,3.0144,2.8713,2.8331,2.9082,2.9407,2.9388,2.9407,2.9425,2.9425,2.9388,2.9388,2.9452,2.95,2.988,3.0641,3.1589,3.2314,3.3045,3.3844,3.4141,3.4216,3.4216,3.4216,3.4141,3.4048,3.3937,3.3852,3.369,3.3779,3.3842,3.3662,3.3532,3.34,3.3371,3.3382,3.3578,3.3542,3.3368,3.3408,3.3321,3.3142,3.2888,3.2578,3.2023,3.1326,3.0541,2.9999,2.9686,2.9388,2.8947,2.8596,2.819,2.7856,2.7716,2.7716,2.7716,2.7716,2.7716,2.7716,2.7716,2.7716,2.776,2.7771,2.773,2.7789,2.794,2.7922,2.7818,2.7886,2.8065,2.8037,2.7911,2.7918,2.7864,2.7971,2.8307,2.8685,2.9651,3.0561,3.0971,3.1347,3.177,3.2106,3.1482,3.073,3.0748,3.1072,3.1219,3.1555,3.1757,3.1782,3.218,3.2947,3.3371,3.3597,3.3802,3.3738,3.3656,3.367,3.3615,3.3787,3.3755,3.3154,3.2897,3.3135,3.2795,3.1909,3.1363,3.0903,3.0751,3.0524,3.0679,3.0696,3.0644,3.0748,3.1041,2.7717,2.8199,2.9035,2.937,2.9351,2.937,2.9388,2.9388,2.9388,2.9388,2.9425,2.9452,2.9842,3.0679,3.2165,3.2908,3.3057,3.3838,3.4123,3.4216,3.4216,3.4216,3.3956,3.3454,3.3268,3.3214,3.329,3.3543,3.3691,3.385,3.3955,3.383,3.3222,3.3087,3.2995,3.2846,3.2556,3.2769,3.2681,3.2412,3.2281,3.184,3.1142,3.0329,2.9344,2.9185,2.9053,2.8983,2.8912,2.8667,2.8228,2.7891,2.7716,2.773,2.7745,2.7745,2.7745,2.7745,2.7745,2.773,2.7742,2.7869,2.7855,2.7904,2.8017,2.8097,2.8079,2.8206,2.8273,2.8061,2.7996,2.8227,2.8263,2.8594,2.8927,2.9432,3.0146,3.0861,3.1426,3.2021,3.2621,3.2425,3.1825,3.1384,3.1347,3.1366,3.0809,3.1176,3.2015,3.218,3.2359,3.3077,3.3858,3.3939,3.3947,3.3934,3.3884,3.3934,3.3921,3.3881,3.3887,3.3887,3.3778,3.3688,3.3212,3.2382,3.1952,3.1529,3.1202,3.1025,3.1386,3.1524,3.1403,3.1334,3.1472]}]]